[[{"header":{"parameterUnit":"m.s-1","parameterCategory":1,"la1":30.6,"la2":29.2853,"lo1":-89.7004,"lo2":-87.6739,"dy":0.0162,"dx":0.0183,"nx":112,"ny":82,"refTime":"2024-05-22T06:00:00:Z","depth":0,"parameterNumber":2,"parameterNumberName":"U-component_of_WINDS"},"data":[0.0,0.0,0.0,0.0,0.0,0.0,0.0,0.0,0.0,0.0,0.0,0.0,0.0,0.0,0.0,0.0,0.0,0.0,0.0,0.0,0.0,0.0,0.0,0.0,0.0,0.0,0.0,0.0,0.0,0.0,0.0,0.0,0.0,0.0,0.0,0.0,0.0,0.0,0.0,0.0,0.0,0.0,0.0,0.0,0.0,0.0,0.0,0.0,0.0,0.0,0.0,0.0,0.0,0.0,0.0,0.0,0.0,0.0,0.0,0.0,0.0,0.0,0.0,0.0,0.0,0.0,0.0,0.0,0.0,0.0,0.0,0.0,0.0,0.0,0.0,0.0,0.0,0.0,0.0,0.0,0.0,0.0,0.0,0.0,0.0,0.0,0.0,0.0,0.0,0.0,-5.9208,-6.1887,-6.4163,-6.5154,-6.4347,-6.4053,-6.2218,-5.8253,0.0,0.0,0.0,0.0,0.0,0.0,0.0,0.0,0.0,0.0,0.0,0.0,0.0,0.0,0.0,0.0,0.0,0.0,0.0,0.0,0.0,0.0,0.0,0.0,0.0,0.0,0.0,0.0,0.0,0.0,0.0,0.0,0.0,0.0,0.0,0.0,0.0,0.0,0.0,0.0,0.0,0.0,0.0,0.0,0.0,0.0,0.0,0.0,0.0,0.0,0.0,0.0,0.0,0.0,0.0,0.0,0.0,0.0,0.0,0.0,0.0,0.0,0.0,0.0,0.0,0.0,0.0,0.0,0.0,0.0,0.0,0.0,0.0,0.0,0.0,0.0,0.0,0.0,0.0,0.0,0.0,0.0,0.0,0.0,0.0,0.0,0.0,0.0,0.0,0.0,0.0,0.0,0.0,0.0,0.0,0.0,0.0,0.0,0.0,0.0,0.0,0.0,0.0,0.0,-6.0493,-6.4347,-6.5705,-6.5999,-6.5191,-6.3833,-6.1594,-5.8217,0.0,0.0,0.0,0.0,0.0,0.0,0.0,0.0,0.0,0.0,0.0,0.0,0.0,0.0,0.0,0.0,0.0,0.0,0.0,0.0,0.0,0.0,0.0,0.0,0.0,0.0,0.0,0.0,0.0,0.0,0.0,0.0,0.0,0.0,0.0,0.0,0.0,0.0,0.0,0.0,0.0,0.0,0.0,0.0,0.0,0.0,0.0,0.0,0.0,0.0,0.0,0.0,0.0,0.0,0.0,0.0,0.0,0.0,0.0,0.0,0.0,0.0,0.0,0.0,0.0,0.0,0.0,0.0,0.0,0.0,0.0,0.0,0.0,0.0,0.0,0.0,0.0,0.0,0.0,0.0,0.0,0.0,0.0,0.0,0.0,0.0,0.0,0.0,0.0,0.0,0.0,0.0,0.0,0.0,0.0,0.0,0.0,0.0,0.0,0.0,0.0,0.0,0.0,-5.9428,-6.141,-6.5521,-6.5888,-6.5705,-6.5338,-6.3356,-6.0786,-5.7556,-5.6932,0.0,0.0,0.0,0.0,0.0,0.0,0.0,0.0,0.0,0.0,0.0,0.0,0.0,0.0,0.0,0.0,0.0,0.0,0.0,0.0,0.0,0.0,0.0,0.0,0.0,0.0,0.0,0.0,0.0,0.0,0.0,0.0,0.0,0.0,0.0,0.0,0.0,0.0,0.0,0.0,0.0,0.0,0.0,0.0,0.0,0.0,0.0,0.0,0.0,0.0,0.0,0.0,0.0,0.0,0.0,0.0,0.0,0.0,0.0,0.0,0.0,0.0,0.0,0.0,0.0,0.0,0.0,0.0,0.0,0.0,0.0,0.0,0.0,0.0,0.0,0.0,0.0,0.0,0.0,0.0,0.0,0.0,0.0,0.0,0.0,0.0,0.0,0.0,0.0,0.0,0.0,0.0,0.0,0.0,0.0,0.0,0.0,0.0,0.0,0.0,0.0,0.0,-6.1337,-6.2768,-6.5888,-6.5852,-6.5448,-6.5044,-6.2732,-6.0015,-5.7005,-5.5868,0.0,0.0,0.0,0.0,0.0,0.0,0.0,0.0,0.0,0.0,0.0,0.0,0.0,0.0,0.0,0.0,0.0,0.0,0.0,0.0,0.0,0.0,0.0,0.0,0.0,0.0,0.0,0.0,0.0,0.0,0.0,0.0,0.0,0.0,0.0,0.0,0.0,0.0,0.0,0.0,0.0,0.0,0.0,0.0,0.0,0.0,0.0,0.0,0.0,0.0,0.0,0.0,0.0,0.0,0.0,0.0,0.0,0.0,0.0,0.0,0.0,0.0,0.0,0.0,0.0,0.0,0.0,0.0,0.0,0.0,0.0,0.0,0.0,0.0,0.0,0.0,0.0,0.0,0.0,0.0,0.0,0.0,0.0,0.0,0.0,0.0,0.0,0.0,0.0,0.0,0.0,0.0,0.0,0.0,0.0,0.0,0.0,0.0,0.0,0.0,0.0,0.0,-6.2633,-6.5081,-6.5375,-6.5999,-6.5815,-6.431,-6.1924,-5.9428,-5.6969,-5.5354,0.0,0.0,0.0,0.0,0.0,0.0,0.0,0.0,0.0,0.0,0.0,0.0,0.0,0.0,0.0,0.0,0.0,0.0,0.0,0.0,0.0,0.0,0.0,0.0,0.0,0.0,0.0,0.0,0.0,0.0,0.0,0.0,0.0,0.0,0.0,0.0,0.0,0.0,0.0,0.0,0.0,0.0,0.0,0.0,0.0,0.0,0.0,0.0,0.0,0.0,0.0,0.0,0.0,0.0,0.0,0.0,0.0,0.0,0.0,0.0,0.0,0.0,0.0,0.0,0.0,0.0,0.0,0.0,0.0,0.0,0.0,0.0,0.0,0.0,0.0,0.0,0.0,0.0,0.0,0.0,0.0,0.0,0.0,0.0,0.0,0.0,0.0,0.0,0.0,0.0,0.0,0.0,0.0,0.0,0.0,0.0,0.0,0.0,0.0,0.0,0.0,0.0,-6.141,-6.3576,-6.5154,-6.5118,-6.453,-6.3392,-6.152,-5.9171,-5.6235,0.0,0.0,0.0,0.0,0.0,0.0,0.0,0.0,0.0,0.0,0.0,0.0,0.0,0.0,0.0,0.0,0.0,0.0,0.0,0.0,0.0,0.0,0.0,0.0,0.0,0.0,0.0,0.0,0.0,0.0,0.0,0.0,0.0,0.0,0.0,0.0,0.0,0.0,0.0,0.0,0.0,0.0,0.0,0.0,0.0,0.0,0.0,0.0,0.0,0.0,0.0,0.0,0.0,0.0,0.0,0.0,0.0,0.0,0.0,0.0,0.0,0.0,0.0,0.0,0.0,0.0,0.0,0.0,0.0,0.0,0.0,0.0,0.0,0.0,0.0,0.0,0.0,0.0,0.0,0.0,0.0,0.0,0.0,0.0,0.0,0.0,0.0,0.0,0.0,0.0,0.0,0.0,0.0,0.0,0.0,0.0,0.0,0.0,0.0,0.0,0.0,0.0,-5.8547,-6.0676,-6.2622,-6.4347,-6.4273,-6.3649,-6.2511,-6.0933,-5.8767,-5.5816,0.0,0.0,0.0,0.0,0.0,0.0,0.0,0.0,0.0,0.0,0.0,0.0,0.0,0.0,0.0,0.0,0.0,0.0,0.0,0.0,0.0,0.0,0.0,0.0,0.0,0.0,0.0,0.0,0.0,0.0,0.0,0.0,0.0,0.0,0.0,0.0,0.0,0.0,0.0,0.0,0.0,0.0,0.0,0.0,0.0,0.0,0.0,0.0,0.0,0.0,0.0,0.0,0.0,0.0,0.0,0.0,0.0,0.0,0.0,0.0,0.0,0.0,0.0,0.0,0.0,0.0,0.0,0.0,0.0,0.0,0.0,0.0,0.0,0.0,0.0,0.0,0.0,0.0,0.0,0.0,0.0,0.0,0.0,0.0,0.0,0.0,0.0,0.0,0.0,0.0,0.0,0.0,0.0,0.0,0.0,0.0,0.0,0.0,0.0,0.0,0.0,0.0,-5.7776,-6.0786,-6.278,-6.2805,-6.3539,-6.3392,-6.1741,-6.0126,-5.818,0.0,0.0,0.0,0.0,0.0,0.0,0.0,0.0,0.0,0.0,0.0,0.0,0.0,0.0,0.0,0.0,0.0,0.0,0.0,0.0,0.0,0.0,0.0,0.0,0.0,0.0,0.0,0.0,0.0,0.0,0.0,0.0,0.0,0.0,0.0,0.0,0.0,0.0,0.0,0.0,0.0,0.0,0.0,0.0,0.0,0.0,0.0,0.0,0.0,0.0,0.0,0.0,0.0,0.0,0.0,0.0,0.0,0.0,0.0,0.0,0.0,0.0,0.0,0.0,0.0,0.0,0.0,0.0,0.0,0.0,0.0,0.0,0.0,0.0,0.0,0.0,0.0,0.0,0.0,0.0,0.0,0.0,0.0,0.0,0.0,0.0,0.0,0.0,0.0,0.0,0.0,0.0,0.0,0.0,0.0,0.0,0.0,0.0,0.0,0.0,0.0,0.0,0.0,-5.7005,-5.9465,-6.1337,-6.1887,-6.1667,-6.13,-6.0786,-5.9795,-5.7923,-5.495,0.0,0.0,0.0,0.0,0.0,0.0,0.0,0.0,0.0,0.0,0.0,0.0,0.0,0.0,0.0,0.0,0.0,0.0,0.0,0.0,0.0,0.0,0.0,0.0,0.0,0.0,0.0,0.0,0.0,0.0,0.0,0.0,0.0,0.0,0.0,0.0,0.0,0.0,0.0,0.0,0.0,0.0,0.0,0.0,0.0,0.0,0.0,0.0,0.0,0.0,0.0,0.0,0.0,0.0,0.0,0.0,0.0,0.0,0.0,0.0,0.0,0.0,0.0,0.0,0.0,0.0,0.0,0.0,0.0,0.0,0.0,0.0,0.0,0.0,0.0,0.0,0.0,0.0,0.0,0.0,0.0,0.0,0.0,0.0,0.0,0.0,0.0,0.0,0.0,0.0,0.0,0.0,0.0,0.0,0.0,0.0,0.0,0.0,0.0,0.0,0.0,0.0,-5.6198,-5.8437,-6.0236,-6.1043,-6.0676,-6.0272,-5.9942,-5.9208,-5.7373,-5.4106,0.0,0.0,0.0,0.0,0.0,0.0,0.0,0.0,0.0,0.0,0.0,0.0,0.0,0.0,0.0,0.0,0.0,0.0,0.0,0.0,0.0,0.0,0.0,0.0,0.0,0.0,0.0,0.0,0.0,0.0,0.0,0.0,0.0,0.0,0.0,0.0,0.0,0.0,0.0,0.0,0.0,0.0,0.0,0.0,0.0,0.0,0.0,0.0,0.0,0.0,0.0,0.0,0.0,0.0,0.0,0.0,0.0,0.0,0.0,0.0,0.0,0.0,0.0,0.0,0.0,0.0,0.0,0.0,0.0,0.0,0.0,0.0,0.0,0.0,0.0,0.0,0.0,0.0,0.0,0.0,0.0,0.0,0.0,0.0,0.0,0.0,0.0,0.0,0.0,0.0,0.0,0.0,0.0,0.0,0.0,0.0,0.0,0.0,0.0,0.0,0.0,0.0,-5.539,-5.7629,-5.9404,-6.0199,-6.0236,-5.9905,-5.9258,-5.8474,-5.6638,-5.3387,0.0,0.0,0.0,0.0,0.0,0.0,0.0,0.0,0.0,0.0,0.0,0.0,0.0,0.0,0.0,0.0,0.0,0.0,0.0,0.0,0.0,0.0,0.0,0.0,0.0,0.0,0.0,0.0,0.0,0.0,0.0,0.0,0.0,0.0,0.0,0.0,0.0,0.0,0.0,0.0,0.0,0.0,0.0,0.0,0.0,0.0,0.0,0.0,0.0,0.0,0.0,0.0,0.0,0.0,0.0,0.0,0.0,0.0,0.0,0.0,-6.2397,-6.132,0.0,0.0,0.0,0.0,0.0,0.0,0.0,0.0,0.0,0.0,0.0,0.0,0.0,0.0,0.0,0.0,0.0,0.0,0.0,0.0,0.0,0.0,0.0,0.0,0.0,0.0,0.0,0.0,0.0,0.0,0.0,0.0,0.0,0.0,0.0,0.0,0.0,0.0,0.0,0.0,-5.539,-5.7152,-5.8547,-5.9368,-5.8877,-5.8694,-5.9148,-5.8474,-5.6638,-5.3387,-5.2873,0.0,0.0,0.0,0.0,0.0,0.0,0.0,0.0,0.0,0.0,0.0,0.0,0.0,0.0,0.0,0.0,0.0,0.0,0.0,0.0,0.0,0.0,0.0,0.0,0.0,0.0,0.0,0.0,0.0,0.0,0.0,0.0,0.0,0.0,0.0,0.0,0.0,0.0,0.0,0.0,0.0,0.0,0.0,0.0,0.0,0.0,0.0,0.0,0.0,0.0,0.0,0.0,0.0,0.0,0.0,0.0,0.0,0.0,0.0,-6.3858,-6.282,0.0,0.0,0.0,0.0,0.0,0.0,0.0,0.0,0.0,0.0,0.0,0.0,0.0,0.0,0.0,0.0,0.0,0.0,0.0,0.0,0.0,0.0,0.0,0.0,0.0,0.0,0.0,0.0,0.0,0.0,0.0,0.0,0.0,0.0,0.0,0.0,0.0,0.0,0.0,0.0,-5.4876,-5.6748,-5.8143,-5.8584,-5.8253,-5.818,-5.8584,-5.7886,-5.6565,-5.4473,-5.3261,0.0,0.0,0.0,0.0,0.0,0.0,0.0,0.0,0.0,0.0,0.0,0.0,0.0,0.0,0.0,0.0,0.0,0.0,0.0,0.0,0.0,0.0,0.0,0.0,0.0,0.0,0.0,0.0,0.0,0.0,0.0,0.0,0.0,0.0,0.0,0.0,0.0,0.0,0.0,0.0,0.0,0.0,0.0,0.0,0.0,0.0,0.0,0.0,0.0,0.0,0.0,0.0,0.0,-6.5705,-6.5782,-6.632,-6.559,-6.5743,-6.6513,-6.5782,-6.482,-6.3743,-6.3743,0.0,0.0,0.0,0.0,0.0,0.0,0.0,0.0,0.0,0.0,0.0,0.0,0.0,0.0,0.0,0.0,0.0,0.0,0.0,0.0,0.0,0.0,-5.6188,-5.5474,-5.5849,-5.6103,-5.4967,0.0,0.0,0.0,0.0,0.0,0.0,0.0,0.0,0.0,0.0,0.0,-5.4509,-5.6602,-5.7997,-5.7997,-5.7997,-5.7997,-5.7997,-5.7409,-5.6602,-5.5669,-5.3592,-5.1536,0.0,0.0,0.0,0.0,0.0,0.0,0.0,0.0,0.0,0.0,0.0,0.0,0.0,0.0,0.0,0.0,0.0,0.0,0.0,0.0,0.0,0.0,0.0,0.0,0.0,0.0,0.0,0.0,0.0,0.0,0.0,0.0,-5.9377,-6.1227,0.0,0.0,0.0,0.0,0.0,0.0,0.0,0.0,0.0,0.0,0.0,0.0,0.0,-6.5651,-6.5743,-6.7282,-6.7705,-6.6974,-6.8359,-6.8706,-6.809,-6.7962,-6.8359,-6.9206,-6.909,0.0,-6.5551,-6.5551,0.0,0.0,0.0,0.0,0.0,0.0,0.0,0.0,0.0,0.0,0.0,0.0,0.0,0.0,0.0,0.0,0.0,0.0,0.0,0.0,0.0,0.0,-5.7032,-5.6899,-5.6996,-5.7046,-5.7012,-5.5418,-5.3624,-5.2249,-5.1903,-5.1573,0.0,0.0,0.0,0.0,0.0,0.0,-5.5317,-5.6932,-5.7997,-5.7997,-5.7997,-5.7997,-5.7997,-5.7886,-5.7189,-5.5684,-5.4656,-5.2711,-4.9721,-4.7902,0.0,0.0,0.0,0.0,0.0,0.0,0.0,0.0,0.0,0.0,0.0,0.0,0.0,0.0,0.0,0.0,0.0,0.0,0.0,0.0,0.0,0.0,0.0,0.0,0.0,0.0,0.0,0.0,0.0,-5.9155,-6.0725,-6.149,-6.1257,-6.1023,0.0,0.0,0.0,0.0,0.0,0.0,0.0,0.0,0.0,-6.7019,-6.8013,-6.8803,-6.9436,-7.0667,-7.0821,-6.9975,-7.1245,-7.1129,-6.9821,-7.0321,-7.0475,-7.036,-7.036,-6.9744,-6.859,-6.7167,-6.5859,-6.4628,0.0,0.0,0.0,0.0,-6.1555,-6.1441,-6.1207,-6.0992,-6.0725,-6.0047,0.0,0.0,0.0,0.0,0.0,0.0,0.0,-5.6512,-5.6806,-5.7059,-5.7188,-5.7188,-5.7188,-5.7239,-5.7363,-5.6661,-5.5686,-5.4669,-5.4173,-5.3485,-5.2239,-5.2098,0.0,0.0,0.0,-5.5354,-5.6161,-5.7262,-5.7997,-5.7997,-5.7997,-5.7997,-5.7997,-5.7997,-5.7703,-5.6969,-5.5757,-5.4216,-5.238,-4.9848,-4.7535,0.0,0.0,0.0,0.0,0.0,0.0,0.0,0.0,0.0,0.0,0.0,0.0,0.0,0.0,0.0,0.0,0.0,0.0,0.0,0.0,0.0,0.0,0.0,0.0,0.0,0.0,0.0,0.0,-6.0898,-6.1997,-6.2231,-6.262,-6.2737,0.0,0.0,0.0,0.0,0.0,0.0,-6.7642,-6.8435,-6.9168,-6.9864,-7.0937,-7.186,-7.2514,-7.3168,-7.3168,-7.2552,-7.2976,-7.2476,-7.1245,-7.1668,-7.1514,-7.0898,-7.0898,-7.0898,-7.0744,-6.8629,-6.7128,-6.6051,-6.4551,-6.3705,-6.3308,-6.3308,-6.3308,-6.3308,-6.3308,-6.3308,-6.3065,-6.1834,-6.0342,-5.879,-5.7127,0.0,0.0,0.0,0.0,-5.6995,-5.7389,-5.7338,-5.7188,-5.7188,-5.7188,-5.7213,-5.7313,-5.7338,-5.717,-5.6514,-5.6035,-5.5249,-5.3873,-5.3726,0.0,-5.3812,-5.5023,-5.6124,-5.6712,-5.7483,-5.7997,-5.7997,-5.7997,-5.7997,-5.7997,-5.7997,-5.7923,-5.7703,-5.6381,-5.5133,-5.4142,-5.1389,-4.882,-4.6544,0.0,0.0,0.0,0.0,0.0,0.0,0.0,0.0,0.0,0.0,0.0,0.0,0.0,0.0,0.0,0.0,0.0,0.0,0.0,0.0,0.0,0.0,0.0,0.0,0.0,0.0,0.0,0.0,0.0,-6.3867,-6.5426,0.0,0.0,0.0,0.0,-6.6517,-6.8154,-6.9484,-7.0341,-7.1761,-7.2526,-7.2502,-7.313,-7.3459,-7.3437,-7.3476,-7.3476,-7.3437,-7.2629,-7.2206,-7.2091,-7.1321,-7.0937,-7.0898,-7.0898,-7.0898,-7.0821,-6.9937,-6.8552,-6.6974,-6.609,-6.4743,-6.3308,-6.3308,-6.3308,-6.3308,-6.3308,-6.3271,-6.3194,-6.3118,-6.1222,-5.8935,-5.8517,-5.7241,0.0,0.0,-5.6987,-5.7202,-5.7213,-5.7213,-5.7188,-5.7188,-5.7188,-5.7188,-5.7188,-5.7213,-5.7046,-5.649,-5.6473,-5.6273,-5.5432,0.0,-5.5464,-5.5464,-5.6198,-5.6748,-5.6785,-5.7483,-5.7997,-5.7997,-5.7997,-5.7997,-5.7997,-5.7997,-5.7666,-5.6932,-5.6051,-5.4913,-5.3335,-5.1646,-4.9921,-4.8233,-4.6544,0.0,0.0,0.0,0.0,0.0,0.0,0.0,0.0,0.0,0.0,0.0,0.0,0.0,0.0,0.0,0.0,0.0,0.0,0.0,0.0,0.0,0.0,0.0,0.0,0.0,0.0,0.0,0.0,-6.566,-6.7296,0.0,-6.5933,-6.7063,-6.8271,-6.9128,-7.0258,-7.156,-7.3037,-7.4016,-7.4475,-7.4381,-7.4912,-7.5169,-7.513,-7.5071,-7.4764,-7.4284,-7.4514,-7.3783,-7.2206,-7.2476,-7.1975,-7.0898,-7.0898,-7.0898,-7.0821,-7.0014,-6.9013,-6.7859,-6.7013,-6.5974,-6.5051,-6.5551,-6.5436,-6.4974,-6.4974,-6.4577,-6.3898,-6.2822,-6.1275,-5.9807,-5.9669,-5.882,-5.7874,-5.7884,-5.7666,-5.7412,-5.7239,-5.7188,-5.7188,-5.7188,-5.7188,-5.7188,-5.7188,-5.7188,-5.7141,-5.695,-5.711,-5.6998,-5.6171,-5.6649,-5.6969,-5.6455,-5.7042,-5.7556,-5.7556,-5.7813,-5.7997,-5.7997,-5.7997,-5.7997,-5.7997,-5.7519,-5.6895,-5.6088,-5.4803,-5.3555,-5.2454,-5.0875,-4.9481,-4.8343,-4.6728,-4.4856,0.0,0.0,0.0,0.0,0.0,0.0,0.0,0.0,0.0,0.0,0.0,0.0,0.0,0.0,0.0,0.0,0.0,0.0,0.0,0.0,0.0,0.0,0.0,0.0,0.0,-6.4427,-6.6283,-6.7452,-6.9089,-6.9596,-6.8154,-6.9557,-7.0804,-7.1388,-7.249,-7.3636,-7.4831,-7.5591,-7.5906,-7.5682,-7.6024,-7.6147,-7.597,-7.594,-7.5648,-7.513,-7.5438,-7.4553,-7.2629,-7.2937,-7.2283,-7.0898,-7.0898,-7.0898,-7.0821,-6.9706,-6.8936,-6.8321,-6.7436,-6.659,-6.5974,-6.6513,-6.6359,-6.5859,-6.5551,-6.4705,-6.3551,-6.2447,-6.1364,-6.0455,-6.0265,-5.9717,-5.9084,-5.8591,-5.809,-5.7631,-5.7289,-5.7188,-5.7188,-5.7188,-5.7188,-5.7188,-5.7188,-5.7188,-5.7188,-5.7188,-5.7363,-5.7389,-5.6866,-5.7421,-5.7767,-5.7299,-5.7666,-5.7997,-5.7997,-5.7997,-5.7997,-5.7997,-5.7997,-5.7997,-5.7997,-5.7005,-5.6161,-5.5633,-5.4106,-5.2968,-5.2417,-5.0839,-4.9738,-4.915,-4.7021,-4.5112,-4.3497,0.0,0.0,0.0,0.0,0.0,0.0,0.0,0.0,0.0,0.0,0.0,0.0,0.0,0.0,0.0,0.0,0.0,0.0,0.0,0.0,0.0,0.0,0.0,-6.425,-6.5713,-6.7452,-6.9172,-7.0842,-7.1583,-7.0804,-7.2206,-7.3181,-7.3181,-7.4767,-7.5707,-7.5752,-7.6521,-7.6805,-7.6422,-7.6454,-7.6285,-7.5895,-7.597,-7.5976,-7.5976,-7.513,-7.4322,-7.3476,-7.2629,-7.1745,-7.0898,-7.0898,-7.0898,-7.0783,-6.9129,-6.8436,-6.8321,-6.7436,-6.659,-6.5897,-6.5936,-6.5897,-6.5743,-6.4859,-6.3474,-6.2101,-6.2062,-6.1473,-6.071,-6.0246,-5.9915,-5.9513,-5.8586,-5.815,-5.7831,-5.7363,-5.7213,-5.7213,-5.7188,-5.7188,-5.7188,-5.7188,-5.7188,-5.7188,-5.7188,-5.7289,-5.7437,-5.7559,-5.7703,-5.7857,-5.7973,-5.7997,0.0,-5.7997,-5.7997,-5.7997,-5.7997,-5.7997,-5.7997,-5.7997,-5.6528,-5.5574,-5.5537,-5.4069,-5.313,-5.3151,-5.1646,-5.0802,-5.0765,-4.7572,-4.5957,-4.592,0.0,0.0,0.0,0.0,0.0,0.0,0.0,0.0,0.0,0.0,0.0,0.0,0.0,0.0,0.0,0.0,0.0,0.0,0.0,0.0,0.0,-6.2396,-6.5085,-6.5085,-6.7652,-6.9907,-7.0998,-7.2635,-7.3609,-7.3375,-7.435,-7.4973,-7.4973,-7.5446,-7.5964,-7.6604,-7.6677,-7.6621,-7.6397,-7.6195,-7.6002,-7.5895,-7.5826,-7.5856,-7.6015,-7.5745,-7.4899,-7.35,-7.3245,-7.2322,-7.0898,-7.0898,-7.0898,-7.0821,-6.9783,-6.8975,-6.8321,-6.7436,-6.659,-6.5974,-6.6551,-6.6013,-6.482,-6.3974,-6.2974,-6.1985,-6.1358,-6.1012,-6.0746,-6.0533,-6.0097,-5.9614,-5.9269,-5.8793,-5.8289,-5.7854,-5.7713,-5.7618,-5.7289,-5.7188,-5.7188,-5.7188,-5.7188,-5.7188,-5.7188,-5.7213,-5.7313,-5.7559,-5.7703,-5.7857,-5.7973,-5.7997,-5.7997,-5.7997,-5.7997,-5.7997,-5.7997,-5.7997,-5.7997,-5.7997,-5.6528,-5.5354,-5.4766,-5.3225,-5.2087,-5.1499,-5.1059,-5.0545,-4.9941,-4.7865,-4.6746,0.0,0.0,0.0,0.0,0.0,0.0,0.0,0.0,0.0,0.0,0.0,0.0,0.0,0.0,0.0,0.0,0.0,0.0,0.0,0.0,0.0,0.0,-6.4418,-6.6751,-6.7491,-6.9323,-7.1154,-7.2713,-7.3765,-7.47,-7.5402,-7.5947,-7.6259,-7.6259,-7.6231,-7.6476,-7.6989,-7.6752,-7.6514,-7.6316,-7.6057,-7.589,-7.581,-7.5794,-7.5856,-7.6015,-7.6015,-7.513,-7.3514,-7.3514,-7.2552,-7.0898,-7.0898,-7.0898,-7.0821,-6.9629,-6.8859,-6.8321,0.0,0.0,0.0,0.0,-6.5513,-6.3974,-6.3462,-6.2512,-6.1485,-6.0973,-6.0781,-6.0757,-6.0623,-6.0373,-6.0023,-5.9668,-5.9287,-5.8872,-5.8402,-5.8113,-5.7831,-5.7546,-5.7363,-5.7188,-5.7188,-5.7188,-5.7188,-5.7188,-5.7188,0.0,-5.7461,-5.7607,-5.7786,-5.7904,-5.7973,-5.7997,-5.7997,-5.7997,-5.7997,-5.7997,-5.7997,-5.7997,-5.7997,-5.6528,0.0,0.0,0.0,-5.2123,-5.1353,-5.1316,0.0,0.0,0.0,0.0,0.0,-4.7902,0.0,0.0,-4.8416,-4.8563,0.0,0.0,0.0,0.0,0.0,0.0,0.0,0.0,0.0,0.0,0.0,0.0,0.0,0.0,0.0,0.0,-6.7073,-6.8816,-7.0375,-7.0765,-7.1739,-7.4116,-7.4505,-7.5207,-7.6843,-7.6999,-7.6999,-7.6999,-7.6983,-7.6989,-7.6999,-7.6723,0.0,0.0,0.0,-7.587,-7.5692,-7.581,-7.5925,-7.6015,-7.6015,-7.513,-7.3514,-7.3514,-7.2552,-7.0898,-7.0898,-7.086,-7.0667,-6.9167,-6.8436,-6.8167,-6.7282,-6.6513,-6.5897,-6.5782,-6.4705,-6.3269,-6.3205,0.0,0.0,-6.0781,-6.0781,-6.0757,-6.0623,-6.0585,-6.0468,-5.9924,-5.9685,-5.9482,-5.9009,-5.8471,-5.8046,-5.7946,-5.757,-5.7264,-5.7213,-5.7188,-5.7188,-5.7188,-5.7188,-5.7239,-5.7338,-5.7486,-5.7667,-5.7786,-5.7927,-5.7997,-5.7997,-5.7997,-5.7997,-5.7997,-5.7997,0.0,-5.7997,-5.6528,-5.5596,-5.5596,-5.4106,-5.2894,-5.216,-5.2123,-5.1756,-5.0949,-5.0949,-5.1242,-5.1867,-5.1169,-5.0839,-5.0875,-4.7865,-4.7609,0.0,0.0,0.0,0.0,0.0,0.0,0.0,0.0,0.0,0.0,0.0,0.0,0.0,0.0,0.0,-6.5353,-6.8042,-7.0219,-7.0531,-7.1739,-7.3064,-7.4272,-7.5012,-7.5869,-7.6882,-7.6999,-7.6999,-7.6999,-7.7005,-7.7005,-7.6999,-7.6534,-7.6261,-7.6204,-7.5846,-7.5676,-7.5692,-7.581,-7.5925,-7.6015,-7.6015,0.0,-7.3514,-7.3514,-7.2552,-7.0898,-7.0898,-7.0514,-6.9898,-6.959,-6.8629,-6.7282,-6.6436,-6.6051,-6.582,-6.5128,-6.4205,-6.3205,-6.2551,-6.1666,-6.0781,-6.0781,-6.0781,-6.0757,-6.0623,-6.0585,0.0,-6.0265,-6.0194,-6.0023,-5.9499,-5.9287,-5.8989,-5.8113,-5.7831,-5.7666,-5.7289,-5.7188,-5.7188,-5.7188,-5.7188,-5.7188,-5.7239,-5.7437,-5.7667,-5.7786,-5.7927,-5.7997,-5.7997,-5.7997,-5.7997,-5.7997,-5.7997,-5.7997,-5.7997,-5.6528,-5.5596,-5.5596,-5.4106,-5.3151,-5.2968,-5.2968,-5.2601,-5.1756,-5.1756,-5.1536,-5.1022,-5.0875,-5.1132,-5.172,-5.0435,-5.0105,0.0,0.0,0.0,0.0,0.0,0.0,0.0,0.0,0.0,0.0,0.0,-6.1794,-6.218,0.0,-6.6507,-6.7808,-6.979,-7.1349,-7.1778,-7.3336,-7.4388,-7.4388,-7.5168,-7.6025,-7.6921,-7.6999,-7.6999,-7.6999,-7.7389,-7.7397,-7.6823,-7.6826,-7.6633,-7.6096,-7.5764,-7.5666,-7.5794,-7.5864,-7.5925,-7.6015,-7.6015,-7.513,-7.3514,-7.3514,-7.2552,-7.0898,-7.0898,-7.0437,-6.9629,-6.8744,-6.7628,-6.6436,-6.6051,-6.5628,-6.5205,-6.4743,-6.3782,-6.2627,-6.2255,-6.1524,-6.0781,-6.0781,-6.0781,-6.0769,-6.071,-6.0685,-6.0673,-6.0572,-6.0494,-6.0373,-5.9992,-5.9723,-5.9287,-5.8461,-5.8068,-5.7784,-5.7313,-5.7188,-5.7188,-5.7188,-5.7188,-5.7213,-5.7289,-5.7461,-5.7607,-5.7715,-5.7881,-5.7997,-5.7997,-5.7997,-5.7997,-5.7997,-5.7997,-5.785,-5.7446,-5.5904,-5.4987,-5.4987,-5.3885,-5.3203,-5.3203,-5.3203,-5.3004,-5.2601,-5.2601,-5.2417,-5.2013,-5.161,-5.161,-5.1977,-5.1169,-5.1022,0.0,0.0,0.0,0.0,0.0,0.0,0.0,-5.9378,-6.0786,-6.0432,-6.2272,-6.4418,-6.5745,-6.6902,-6.8374,-7.0497,-7.1505,-7.2362,-7.3219,-7.47,-7.5441,-7.4739,-7.5402,-7.622,-7.6921,-7.6999,-7.7077,-7.7233,-7.774,-7.7683,-7.6898,-7.7123,-7.6867,-7.6027,-7.5772,-7.5753,-7.5895,-7.591,-7.5955,-7.6015,-7.5822,-7.4976,-7.35,-7.3322,-7.2399,-7.0898,-7.0552,-7.0052,-6.9321,-6.759,-6.6474,-6.5897,-6.5897,-6.5359,-6.4589,-6.4397,-6.3397,-6.2101,-6.1908,-6.1408,-6.0781,-6.0781,-6.0781,-6.0781,-6.0781,-6.0781,-6.0781,-6.0781,-6.071,-6.0585,-6.0335,-5.9977,-5.9482,-5.889,-5.8439,-5.8,-5.7449,-5.7338,-5.7313,-5.7213,-5.7188,-5.7239,-5.7363,-5.751,-5.7583,-5.7631,-5.7857,-5.7997,-5.7997,-5.7997,-5.7997,-5.7997,-5.785,-5.7373,-5.6418,-5.517,-5.4326,-5.4179,-5.3555,-5.3203,-5.3203,-5.3203,-5.3203,-5.3203,-5.3203,-5.3203,-5.3203,-5.238,-5.2087,-5.2197,-5.1426,-5.1389,-5.6404,-5.6507,-5.6819,-5.7496,-5.837,-5.9625,0.0,-6.2479,-6.3115,-6.4489,-6.6241,-6.7559,-6.7695,-6.9655,-7.1315,-7.1622,-7.2401,-7.3258,-7.4116,-7.509,-7.5674,-7.5558,-7.6337,-7.6882,-7.6999,-7.6999,-7.7311,-7.809,-7.7545,-7.7332,-7.7714,-7.6961,-7.6362,-7.6027,-7.5917,-7.5864,-7.5895,-7.597,-7.6,-7.5976,-7.5207,-7.4361,-7.3476,-7.2706,-7.1822,-7.0821,-6.9321,-6.8615,-6.8398,-6.6744,-6.5974,-6.5897,-6.5897,-6.5359,-6.4512,-6.3743,-6.2858,-6.1985,-6.1204,-6.0858,-6.0781,-6.0781,-6.0781,-6.0781,-6.0781,-6.0781,-6.0781,-6.0781,-6.0769,-6.071,-6.0362,-6.0265,-6.0023,-5.9287,-5.9065,-5.8813,-5.8,-5.7831,-5.7713,-5.7289,-5.7188,-5.7239,-5.7363,-5.751,-5.7631,-5.7786,-5.7904,-5.7997,-5.7997,-5.7997,-5.7997,-5.7997,-5.7373,-5.6345,-5.4803,-5.4509,-5.4106,-5.3408,-5.324,-5.3203,-5.3203,-5.3203,-5.3203,-5.3203,-5.3203,-5.3203,-5.3203,-5.238,-5.238,-5.3078,-5.2234,-5.1903,-5.9111,-5.8786,-5.835,-5.9736,-6.0711,-6.1612,-6.2714,-6.3737,-6.4791,-6.5998,-6.7637,-6.8997,-6.9486,-7.1257,-7.2599,-7.2623,-7.3737,-7.4739,-7.5129,-7.5908,-7.6454,-7.6454,-7.6765,-7.6999,-7.6999,-7.6999,-7.7155,-7.7506,-7.7552,-7.7352,-7.6912,-7.6927,-7.6583,-7.5864,-7.5856,-7.591,-7.5955,-7.6,-7.5745,-7.5245,-7.4861,-7.4014,-7.2745,-7.236,-7.1475,-7.0129,-6.8936,-6.8129,-6.7552,-6.6359,-6.5897,-6.5897,-6.5897,-6.5359,-6.4474,-6.3628,-6.2781,-6.1985,-6.1089,-6.0781,-6.0781,-6.0781,-6.0781,-6.0781,-6.0781,-6.0781,-6.0781,-6.0781,-6.0781,-6.0746,-6.0507,-6.0401,-6.0127,-5.9499,-5.9289,-5.9046,-5.8439,-5.8311,-5.8245,-5.8046,-5.8023,-5.8068,-5.823,-5.8332,-5.8418,-5.8607,-5.8238,-5.7997,-5.7997,-5.7997,-5.7813,-5.7336,-5.6161,-5.5133,-5.4473,-5.3959,-5.3661,-5.3501,-5.3314,-5.3293,-5.3464,-5.3314,-5.3203,-5.3203,-5.3203,-5.3203,-5.3203,-5.2858,-5.2858,-5.3167,-5.2858,-5.2819,-6.0224,-6.0054,-5.9814,-6.1312,-6.2515,-6.3374,-6.3667,-6.4835,-6.616,-6.7303,-6.8705,-7.0027,-7.0873,-7.2413,-7.3562,-7.3534,-7.4767,-7.5764,-7.6025,-7.6415,-7.6649,-7.6649,-7.6649,-7.6649,-7.6649,-7.6843,-7.7116,-7.735,-7.7455,-7.7264,-7.6575,-7.6817,-7.6597,-7.5747,-7.5841,-7.5955,-7.6015,-7.5745,-7.5322,-7.4707,-7.4245,-7.336,-7.2168,-7.1937,-7.1052,-6.9667,-6.8783,-6.7898,-6.7051,-6.6244,-6.5897,-6.5897,-6.5897,-6.5513,-6.482,-6.3705,-6.2781,-6.1985,-6.1089,-6.0781,-6.0781,-6.0781,-6.0781,-6.0781,-6.0781,-6.0781,-6.0781,-6.0781,-6.0781,-6.0757,-6.0623,-6.0506,-6.0265,-5.9836,-5.9601,-5.9395,-5.8989,-5.8872,-5.8793,-5.8673,-5.8648,-5.8669,-5.887,-5.891,-5.8988,-5.9178,-5.8689,-5.8282,-5.8186,-5.7867,-5.7262,-5.6271,-5.5097,-5.4332,-5.4202,-5.3649,-5.3501,-5.3851,-5.3524,-5.3461,-5.3701,-5.338,-5.3203,-5.3203,-5.3203,-5.3203,-5.3203,-5.3203,-5.3203,-5.3225,-5.3293,-5.3444,-5.836,-5.9095,-6.057,-6.1481,-6.3008,-6.4492,-6.5312,-6.617,-6.7264,-6.8981,-7.0024,-7.0909,-7.1689,-7.3275,-7.442,-7.4353,-7.5133,-7.598,-7.6849,-7.6259,-7.5752,-7.5752,-7.5752,-7.5752,-7.5752,-7.6493,-7.735,-7.8207,-7.726,-7.6876,-7.7427,-7.6623,-7.5985,-7.5708,-7.5887,-7.6015,-7.6015,-7.5168,-7.4745,-7.4668,-7.3053,-7.2245,-7.2168,-7.1321,-7.0475,-6.9667,-6.8783,-6.7898,-6.7051,-6.6244,-6.5897,-6.5897,-6.5897,-6.5859,-6.5628,-6.3935,-6.2781,-6.1985,-6.1089,-6.0781,-6.0781,-6.0781,-6.0781,-6.0781,-6.0781,-6.0781,-6.0781,-6.0781,-6.0781,-6.0757,-6.0623,-6.061,-6.0533,-6.0321,-6.0279,-6.0141,-5.9744,-5.9568,-5.9341,-5.8856,-5.8693,-5.8669,-5.887,-5.891,-5.8988,-5.9178,-5.9197,-5.9026,-5.8628,-5.7552,-5.6235,-5.4656,-5.4436,-5.4202,-5.3754,-5.3682,-5.387,-5.4245,-5.3907,-5.3701,-5.3701,-5.338,-5.3203,-5.3203,-5.3203,-5.3203,-5.3203,-5.3203,-5.3203,-5.3225,-5.3543,-5.3701,-6.0224,-6.073,-6.1422,-6.2873,-6.3993,-6.4986,-6.5867,-6.6262,-6.6813,-6.7987,-6.9016,-6.9796,-7.0073,-7.2049,-7.363,-7.3622,-7.4815,-7.6044,-7.6877,-7.6755,-7.6554,-7.6571,-7.6571,-7.6495,-7.6319,-7.6716,-7.704,-7.7175,-7.671,-7.6477,-7.6495,-7.6178,-7.5917,-7.5848,-7.5955,-7.6015,-7.6015,-7.513,-7.4437,-7.3899,-7.2168,-7.1321,-7.1321,-7.0475,-6.9629,-6.8783,-6.7936,-6.7051,-6.6282,-6.6013,-6.5897,-6.5897,-6.5897,-6.5551,-6.4897,-6.3743,-6.2781,-6.1985,-6.1089,-6.0781,-6.0781,-6.0781,-6.0781,-6.0781,-6.0781,-6.0781,-6.0781,-6.0781,-6.0781,-6.0769,-6.0734,-6.0648,-6.0572,-6.052,-6.0401,-6.0265,-6.0127,-6.0068,-5.9962,-5.9723,-5.9622,-5.9588,-5.9626,-5.9677,-5.9656,-5.9605,-5.9379,-5.8934,-5.8221,-5.7302,-5.633,-5.5249,-5.4689,-5.4328,-5.4167,-5.4246,-5.4409,-5.4754,-5.4366,-5.4153,-5.4105,-5.372,-5.344,-5.3188,-5.3203,-5.3203,-5.3203,-5.344,-5.3524,-5.3543,-5.3925,-5.4228,-6.124,-6.1481,-6.1816,-6.3884,-6.4712,-6.5266,-6.6112,-6.6314,-6.6547,-6.741,-6.8157,-6.8721,-6.9032,-7.0759,-7.236,-7.2998,-7.4275,-7.5613,-7.6748,-7.6618,-7.6352,-7.6327,-7.6265,-7.6177,-7.6012,-7.616,-7.6333,-7.6439,-7.635,-7.616,-7.6027,-7.5947,-7.5895,-7.5895,-7.5663,-7.5553,-7.5553,-7.4399,-7.3399,-7.2552,-7.1437,-7.0744,-7.0437,-6.9937,-6.9052,-6.7898,-6.7321,-6.6628,-6.5897,-6.5897,-6.5897,-6.5859,-6.5551,-6.5089,-6.4474,-6.332,-6.2551,-6.1985,-6.1089,-6.0781,-6.0781,-6.0781,-6.0781,-6.0781,-6.0781,-6.0781,-6.0781,-6.0781,-6.0781,-6.0781,-6.0781,-6.0722,-6.066,-6.066,-6.0546,-6.0494,-6.0494,-6.0455,-6.0373,-6.0217,-6.0129,-6.0068,-6.0029,-6.0152,-6.0203,-6.0091,-5.9915,-5.9219,-5.7674,-5.7019,-5.6304,-5.5228,-5.4667,-5.4472,-5.4655,-5.4772,-5.4922,-5.5147,-5.4833,-5.4532,-5.4296,-5.4052,-5.3739,-5.338,-5.338,-5.3293,-5.3119,-5.3495,-5.3628,-5.3478,-5.4163,-5.4591,-6.1315,-6.1421,-6.1934,-6.4466,-6.5126,-6.5351,-6.6089,-6.6283,-6.6485,-6.7309,-6.7433,-6.7713,-6.849,-6.9438,-7.0681,-7.2457,-7.3554,-7.4785,-7.6443,-7.5927,-7.5294,-7.5182,-7.5028,-7.4955,-7.4943,-7.4993,-7.5341,-7.6091,-7.6006,-7.5975,-7.5999,-7.5947,-7.5895,-7.5856,-7.5086,-7.4668,-7.463,-7.3014,-7.1745,-7.0898,-7.0898,-7.0475,-6.9706,-6.9667,-6.8706,-6.709,-6.7051,-6.659,-6.5897,-6.5897,-6.5897,-6.582,-6.4936,-6.4589,-6.4359,-6.2716,-6.2062,-6.1908,-6.1089,-6.0781,-6.0781,-6.0781,-6.0781,-6.0781,-6.0781,-6.0781,-6.0781,-6.0781,-6.0781,-6.0781,-6.0781,-6.0781,-6.0781,-6.0781,-6.0781,-6.0781,-6.0781,-6.0685,-6.0559,-6.0335,-6.0217,-6.0068,-6.0045,-6.0285,-6.0506,-6.0585,-6.071,-5.983,-5.7096,-5.677,-5.6161,-5.4645,-5.4472,-5.467,-5.5174,-5.525,-5.5287,-5.5461,-5.5211,-5.4813,-5.4313,-5.4313,-5.4121,-5.3683,-5.3683,-5.3459,-5.2944,-5.3421,-5.3439,-5.3036,-5.4216,-5.4783,-6.1849,-6.2587,-6.3312,-6.4551,-6.5283,-6.5743,-6.5974,-6.6013,-6.5859,-6.5445,-6.543,-6.5383,-6.5004,-6.6755,-6.8824,-7.0588,-7.2687,-7.4645,-7.631,-7.6294,-7.6118,-7.6062,-7.5968,-7.5823,-7.5642,-7.5721,-7.5743,-7.5764,-7.5394,-7.541,-7.5894,-7.597,-7.5678,-7.5024,-7.4808,-7.4399,-7.3822,-7.2745,-7.1745,-7.0898,-7.0898,-7.0475,-6.9667,-6.9052,-6.8129,-6.7051,-6.6474,-6.609,-6.5897,-6.5897,-6.5897,-6.582,-6.4936,-6.4205,-6.3512,-6.2474,-6.1678,-6.1089,-6.0858,-6.0781,-6.0781,-6.0781,-6.0781,-6.0781,-6.0781,-6.0781,-6.0781,-6.0781,-6.0781,-6.0781,-6.0781,-6.0781,-6.0781,-6.0781,-6.0781,-6.0781,-6.0781,-6.0757,-6.0697,-6.0559,-6.0289,-6.0129,-6.0194,-6.0279,-6.0441,-6.0697,-6.0757,-6.0056,-5.8081,-5.7826,-5.7188,-5.554,-5.5443,-5.5572,-5.5707,-5.5717,-5.5572,-5.5287,-5.5338,-5.5064,-5.433,-5.4632,-5.436,-5.3353,-5.337,-5.305,-5.2341,-5.259,-5.3005,-5.3509,-5.4022,-5.465,-6.3042,-6.3758,-6.4249,-6.506,-6.5584,-6.5782,-6.5436,-6.532,-6.5205,-6.4705,-6.4363,-6.4138,-6.4125,-6.5362,-6.7113,-6.9335,-7.1566,-7.3667,-7.5653,-7.6216,-7.6333,-7.6186,-7.6056,-7.5947,-7.581,-7.5533,-7.5295,-7.5194,-7.5278,-7.5491,-7.5895,-7.597,-7.5592,-7.4745,-7.4361,-7.3591,-7.236,-7.186,-7.136,-7.0898,-7.0898,-7.0283,-6.9129,-6.8629,-6.7744,-6.6551,-6.609,-6.5897,-6.5897,-6.5897,-6.5897,-6.582,-6.4936,-6.4089,-6.3192,-6.2397,-6.155,-6.0781,-6.0781,-6.0781,-6.0781,-6.0781,-6.0781,-6.0781,-6.0781,-6.0781,-6.0781,-6.0781,-6.0781,-6.0781,-6.0781,-6.0781,-6.0781,-6.0781,-6.0781,-6.0781,-6.0781,-6.0781,-6.0746,-6.0649,-6.036,-6.0246,-6.0401,-6.0443,-6.0559,-6.0789,-6.0905,-6.032,-5.8585,-5.8259,-5.7561,-5.5969,-5.5875,-5.5895,-5.5932,-5.5932,-5.5808,-5.5527,-5.561,-5.5375,-5.4739,-5.5094,-5.4727,-5.3538,-5.3546,-5.3071,-5.2031,-5.2284,-5.2716,-5.3417,-5.3862,-5.4562,-6.4356,-6.4667,-6.482,-6.5667,-6.5897,-6.5667,-6.4782,-6.4512,-6.4359,-6.4128,-6.3589,-6.3341,-6.3977,-6.4549,-6.579,-6.8394,-7.0512,-7.2609,-7.481,-7.5855,-7.6231,-7.5955,-7.5779,-7.5692,-7.5692,-7.5095,-7.4666,-7.4589,-7.5334,-7.568,-7.5603,-7.5624,-7.5284,-7.4399,-7.3591,-7.2437,-7.0898,-7.0898,-7.0898,-7.0898,-7.0898,-7.0014,-6.8385,-6.8385,-6.7475,-6.5897,-6.5897,-6.5897,-6.5897,-6.5897,-6.5897,-6.5782,-6.482,-6.3974,-6.3205,-6.2281,-6.1447,-6.0781,-6.0781,-6.0781,-6.0781,-6.0781,-6.0781,-6.0781,-6.0781,-6.0781,-6.0781,-6.0781,-6.0781,-6.0781,-6.0781,-6.0781,-6.0781,-6.0781,-6.0781,-6.0781,-6.0781,-6.0781,-6.0746,-6.0649,-6.0441,-6.0414,-6.0585,-6.0671,-6.075,-6.092,-6.1022,-6.0538,-5.8952,-5.849,-5.7636,-5.6078,-5.5895,-5.5923,-5.6003,-5.5995,-5.595,-5.5837,-5.5847,-5.5675,-5.5237,-5.5516,-5.5176,-5.4025,-5.3999,-5.3387,-5.2127,-5.2394,-5.2754,-5.3207,-5.3833,-5.4562,-6.4343,-6.4626,-6.482,-6.5667,-6.5897,-6.5667,-6.4782,-6.4051,-6.3128,-6.1743,-6.1897,-6.192,-6.0646,-6.3315,-6.6073,-6.7274,-7.0197,-7.2949,-7.4564,-7.5555,-7.6083,-7.5925,-7.5779,-7.5692,-7.5692,-7.5679,-7.538,-7.4666,-7.4802,-7.4601,-7.3947,-7.3923,-7.3514,-7.2668,-7.1783,-7.1206,-7.0898,-7.0898,-7.0898,-7.0898,-7.0898,-7.0014,-6.8385,-6.8385,-6.7475,-6.5897,-6.5897,-6.5897,-6.5897,-6.5897,-6.5897,-6.5743,-6.4166,-6.3435,-6.3128,-6.1589,-6.0935,-6.0781,-6.0781,-6.0781,-6.0781,-6.0781,-6.0781,-6.0781,-6.0781,-6.0781,-6.0781,-6.0781,-6.0781,-6.0781,-6.0781,-6.0781,-6.0781,-6.0781,-6.0781,-6.0781,-6.0781,-6.0781,-6.0746,-6.0649,-6.0559,-6.0597,-6.0683,-6.0692,-6.0784,-6.1022,-6.1109,-6.077,-5.9803,-5.9002,-5.7862,-5.6179,-5.5986,-5.5995,-5.6003,-5.5941,-5.5778,-5.5423,-5.5605,-5.5588,-5.5199,-5.5643,-5.5441,-5.4505,-5.4593,-5.4155,-5.3224,-5.3118,-5.3437,-5.4171,-5.4099,-5.4562,-6.4936,-6.5282,-6.5397,-6.5782,-6.5551,-6.4897,-6.3589,-6.2627,-6.1627,-6.0396,-6.0473,-6.0673,-6.0331,-6.2374,-6.4532,-6.5847,-6.8351,-7.092,-7.3251,-7.428,-7.5131,-7.5885,-7.5887,-7.5856,-7.5856,-7.5503,-7.4918,-7.4072,-7.364,-7.3437,-7.3514,-7.3091,-7.2629,-7.2206,-7.136,-7.0898,-7.0898,-7.0898,-7.0898,-7.0898,-7.0898,-7.0014,-6.8385,-6.8385,-6.7475,-6.5897,-6.5897,-6.5897,-6.5897,-6.5897,-6.5897,-6.5782,-6.4474,-6.3705,-6.3166,-6.1935,-6.1166,-6.0781,-6.0781,-6.0781,-6.0781,-6.0781,-6.0781,-6.0781,-6.0781,-6.0781,-6.0781,-6.0781,-6.0781,-6.0781,-6.0781,-6.0781,-6.0781,-6.0781,-6.0781,-6.0781,-6.0781,-6.0781,-6.0769,-6.0697,-6.0685,-6.0734,-6.085,-6.0872,-6.0888,-6.109,-6.1118,-6.0809,-5.9996,-5.9145,-5.8101,-5.6815,-5.6274,-5.6012,-5.6012,-5.5968,-5.5865,-5.5691,-5.5769,-5.5788,-5.5609,-5.5827,-5.5555,-5.4705,-5.4749,-5.4387,-5.3498,-5.3302,-5.3626,-5.4385,-5.4188,-5.4562,-6.5474,-6.5897,-6.5897,-6.5897,-6.5397,-6.4397,-6.2524,-6.1435,-6.0435,-5.9204,-5.9127,-5.9529,-6.0519,-6.1608,-6.3028,-6.4968,-6.6701,-6.8878,-7.2004,-7.3164,-7.4253,-7.5827,-7.6015,-7.5938,-7.5745,-7.5091,-7.4284,-7.3322,-7.2399,-7.2206,-7.2899,-7.2283,-7.1898,-7.1898,-7.1245,-7.0898,-7.0898,-7.0898,-7.0898,-7.0898,-7.0744,-6.986,-6.8385,-6.8205,-6.7321,-6.5897,-6.5897,-6.5897,-6.5897,-6.5897,-6.5782,-6.5513,-6.4666,-6.382,-6.2935,-6.2127,-6.1408,-6.0781,-6.0781,-6.0781,-6.0781,-6.0781,-6.0781,-6.0781,-6.0781,-6.0781,-6.0781,-6.0781,-6.0781,-6.0781,-6.0781,-6.0781,-6.0781,-6.0781,-6.0781,-6.0781,-6.0781,-6.0781,-6.0781,-6.0781,-6.0781,-6.0854,-6.0955,-6.0987,-6.1029,-6.109,-6.107,-6.0886,-6.0228,-5.9261,-5.8333,-5.7637,-5.6631,-5.6012,-5.6012,-5.6012,-5.6012,-5.6012,-5.6012,-5.6012,-5.6012,-5.6012,-5.5702,-5.5084,-5.5045,-5.4735,-5.4039,-5.387,-5.409,-5.4734,-5.4526,-5.4802,-6.5628,-6.5897,-6.5897,-6.5897,-6.582,-6.5128,-6.2678,-6.1435,-6.0127,-5.7742,-5.7857,-5.8665,-5.9507,-6.0993,-6.2941,-6.5433,-6.6741,-6.8584,-7.1801,-7.3085,-7.4253,-7.5827,-7.6015,-7.5707,-7.4899,-7.4745,-7.4053,-7.2437,-7.1514,-7.1052,-7.1129,-7.1052,-7.1014,-7.1014,-7.0937,-7.0898,-7.0898,-7.0898,-7.0898,-7.0898,-7.0167,-6.9321,-6.8359,-6.759,-6.6744,-6.5897,-6.5897,-6.5897,-6.5897,-6.5897,-6.5436,-6.4628,-6.3782,-6.2935,-6.2101,-6.1243,-6.0858,-6.0781,-6.0781,-6.0781,-6.0781,-6.0781,-6.0781,-6.0781,-6.0781,-6.0781,-6.0781,-6.0781,-6.0781,-6.0781,-6.0781,-6.0781,-6.0781,-6.0781,-6.0781,-6.0781,-6.0781,-6.0781,-6.0781,-6.0781,-6.0781,-6.0804,-6.0911,-6.0955,-6.1018,-6.1002,-6.1051,-6.1079,-6.1002,-5.9571,-5.8574,-5.8488,-5.6979,-5.6012,-5.6012,-5.6012,-5.6012,-5.6012,-5.6012,-5.6012,-5.6012,-5.6012,-5.5973,-5.5896,-5.5896,-5.5857,-5.578,-5.5682,-5.5702,-5.5741,-5.5619,-5.5594,-6.4897,-6.5513,-6.5897,-6.5897,-6.5513,-6.4589,-6.2563,-6.1012,-5.9435,-5.7434,-5.728,-5.778,-5.8627,-5.9826,-6.1527,-6.396,-6.4762,-6.6422,-7.0169,-7.0581,-7.1686,-7.4836,-7.4784,-7.4553,-7.4707,-7.4284,-7.3283,-7.1552,-7.1091,-7.0898,-7.0898,-7.0898,-7.0898,-7.0898,-7.0898,-7.0898,-7.0898,-7.0898,-7.0898,-7.0898,-7.009,-6.9244,-6.8359,-6.7513,-6.6667,-6.5897,-6.5897,-6.5897,-6.5897,-6.5897,-6.5397,-6.4512,-6.3628,-6.282,-6.1985,-6.1127,-6.0781,-6.0781,-6.0781,-6.0781,-6.0781,-6.0781,-6.0781,-6.0781,-6.0781,-6.0781,-6.0781,-6.0781,-6.0781,-6.0781,-6.0781,-6.0781,-6.0781,-6.0781,-6.0781,-6.0781,-6.0781,-6.0781,-6.0781,-6.0781,-6.0781,-6.0804,-6.09,-6.0955,-6.1008,-6.0992,-6.1051,-6.1118,-6.1118,-5.9648,-5.8613,-5.8613,-5.7056,-5.6012,-5.6012,-5.6012,-5.6012,-5.6012,-5.6012,-5.6012,-5.6012,-5.6012,-5.6012,-5.6012,-5.6012,-5.6012,-5.6012,-5.5923,-5.5914,-5.5914,-5.5756,-5.5703,-6.4359,-6.5243,-6.5897,-6.5897,-6.5243,-6.4166,-6.2486,-6.0742,-5.9165,-5.7973,-5.755,-5.7857,-5.9473,-5.9952,-6.0892,-6.3306,-6.3808,-6.5048,-6.8462,-6.8859,-6.9975,-7.3206,-7.3091,-7.2937,-7.3514,-7.3053,-7.2206,-7.0975,-7.0898,-7.0898,-7.0898,-7.0898,-7.0898,-7.0898,-7.0898,-7.0898,-7.0898,-7.0898,-7.0783,-7.0552,-6.9706,-6.8859,-6.7975,-6.7128,-6.6436,-6.5897,-6.5897,-6.5897,-6.5897,-6.5897,-6.5243,-6.4166,-6.3538,-6.2666,-6.1639,-6.1012,-6.0781,-6.0781,-6.0781,-6.0781,-6.0781,-6.0781,-6.0781,-6.0781,-6.0781,-6.0781,-6.0781,-6.0781,-6.0781,-6.0781,-6.0781,-6.0781,-6.0781,-6.0781,-6.0781,-6.0781,-6.0781,-6.0781,-6.0781,-6.0781,-6.0781,-6.0793,-6.0877,-6.0944,-6.1008,-6.101,-6.107,-6.1118,-6.1118,-5.9841,-5.8874,-5.8651,-5.7288,-5.6274,-5.6012,-5.6012,-5.6012,-5.6012,-5.6012,-5.6012,-5.6012,-5.6012,-5.6012,-5.6012,-5.6012,-5.6012,-5.6012,-5.595,-5.5913,-5.5913,-5.5837,-5.5807,-6.4359,-6.5243,-6.5897,-6.5897,-6.5243,-6.4166,-6.2486,-6.0742,-5.9511,-5.9473,-5.8858,-5.9319,-6.2615,-6.1897,-6.1639,-6.4166,-6.4589,-6.5166,-6.6898,-6.859,-7.0014,-7.0821,-7.0937,-7.0937,-7.0937,-7.0937,-7.0937,-7.0898,-7.0898,-7.0898,-7.0898,-7.0898,-7.0898,-7.0898,-7.0898,-7.0898,-7.0898,-7.0898,-7.0514,-6.9706,-6.8821,-6.7975,-6.709,-6.6282,-6.5897,-6.5897,-6.5897,-6.5897,-6.5897,-6.5897,-6.4897,-6.3308,-6.3308,-6.2281,-6.0819,-6.0781,-6.0781,-6.0781,-6.0781,-6.0781,-6.0781,-6.0781,-6.0781,-6.0781,-6.0781,-6.0781,-6.0781,-6.0781,-6.0781,-6.0781,-6.0781,-6.0781,-6.0781,-6.0781,-6.0781,-6.0781,-6.0781,-6.0781,-6.0781,-6.0781,-6.0781,-6.0781,-6.0781,-6.0922,-6.0987,-6.0997,-6.1051,-6.1118,-6.1118,-6.0383,-5.9571,-5.869,-5.783,-5.6932,-5.6089,-5.6012,-5.6012,-5.6012,-5.6012,-5.6012,-5.6012,-5.6012,-5.6012,-5.6012,-5.6012,-5.6012,-5.6012,-5.6003,-5.6003,-5.6003,-5.6003,-5.6003,-6.2627,-6.3474,-6.4128,-6.4128,-6.3935,-6.3281,-6.1589,-6.0319,-5.9511,-5.9511,-5.8858,-5.9165,-6.1973,-6.155,-6.1627,-6.4205,-6.4089,-6.4705,-6.759,-6.7936,-6.8859,-7.1475,-7.1783,-7.1783,-7.1783,-7.1245,-7.0898,-7.0898,-7.0898,-7.0898,-7.0898,-7.0898,-7.0898,-7.0898,-7.0898,-7.0898,-7.0898,-7.036,-6.9937,-6.9667,-6.8205,-6.7359,-6.7051,-6.6282,-6.5897,-6.5897,-6.5897,-6.5897,-6.5859,-6.5243,-6.4359,-6.3231,-6.2704,-6.1781,-6.0781,-6.0781,-6.0781,-6.0781,-6.0781,-6.0781,-6.0781,-6.0781,-6.0781,-6.0781,-6.0781,-6.0781,-6.0781,-6.0781,-6.0781,-6.0781,-6.0781,-6.0781,-6.0781,-6.0781,-6.0781,-6.0781,-6.0781,-6.0781,-6.0781,-6.0781,-6.0781,-6.0793,-6.0877,-6.0944,-6.1008,-6.101,-6.107,-6.1118,-6.1118,-6.0383,-5.9571,-5.869,-5.783,-5.6932,-5.6089,-5.6012,-5.6012,-5.6012,-5.6012,-5.6012,-5.6012,-5.6012,-5.6012,-5.6012,-5.6012,-5.6012,-5.6012,-5.6012,-5.6012,-5.6012,-5.6012,-5.6012,0.0,-6.2435,-6.3308,-6.3308,-6.282,-6.2089,-6.105,-5.9627,-5.8742,-5.9358,-5.8858,-5.8973,-6.1204,-6.1166,-6.132,-6.2897,-6.3512,-6.4436,-6.6244,-6.7128,-6.8398,-7.0514,-7.1052,-7.1245,-7.1245,-7.1052,-7.0898,-7.0898,-7.0898,-7.0898,-7.0898,-7.0898,-7.0744,-7.0475,-7.0437,-7.0437,-7.0437,-6.9629,-6.9052,-6.8706,-6.7628,-6.6948,-6.6699,-6.614,-6.5921,-6.5967,-6.5909,-6.5897,0.0,-6.4974,-6.4089,-6.3243,-6.2397,-6.1562,-6.0781,-6.0781,-6.0781,-6.0781,-6.0781,-6.0781,-6.0781,-6.0781,-6.0781,-6.0781,-6.0781,-6.0781,-6.0781,-6.0781,-6.0781,-6.0781,-6.0781,-6.0781,-6.0781,-6.0781,-6.0781,-6.0781,-6.0781,-6.0781,-6.0781,-6.0781,-6.0781,-6.0804,-6.09,-6.0955,-6.1008,-6.0992,-6.1051,-6.1118,-6.1118,-6.0654,-5.988,-5.8729,-5.8101,-5.7288,-5.6089,-5.6012,-5.6012,-5.6012,-5.6012,-5.6012,-5.6012,-5.6012,-5.6012,-5.6012,-5.6012,-5.6012,-5.6012,-5.6012,-5.6012,-5.6012,-5.6012,-5.6012,0.0,-6.1704,-6.2923,-6.2923,-6.1781,-6.0589,-6.055,-5.8715,0.0,-5.9088,-5.8819,-5.8858,-6.0666,-6.0896,-6.0858,-6.105,-6.3012,-6.4282,-6.3589,-6.6397,-6.85,-6.8577,-6.9283,-6.9783,-6.9783,-7.0475,-7.0898,-7.0898,-7.0898,-7.0898,-7.0898,-7.086,-7.0475,-6.9706,-6.959,-6.9552,-6.9629,-6.8744,-6.7911,-6.7128,-6.7051,-6.6723,-6.6118,-6.599,-6.6001,-6.6098,-6.5955,-6.5884,-6.5743,-6.4859,-6.4012,-6.3128,-6.232,-6.1524,-6.0781,-6.0781,-6.0781,-6.0781,-6.0781,-6.0781,-6.0781,-6.0781,-6.0781,-6.0781,-6.0781,-6.0781,-6.0781,-6.0781,-6.0781,-6.0781,-6.0781,-6.0781,-6.0781,-6.0781,-6.0781,-6.0781,-6.0781,-6.0781,-6.0781,-6.0781,-6.0793,-6.0843,-6.0911,-6.0965,-6.1018,-6.1002,-6.1051,-6.1118,-6.1118,-6.1118,-6.046,-5.8758,-5.8613,-5.7869,-5.6167,-5.6012,-5.6012,-5.6012,-5.6012,-5.6012,-5.6012,-5.6012,-5.6012,-5.6012,-5.6012,-5.6012,-5.6012,-5.6012,-5.6012,-5.6012,-5.6012,-5.6012,-5.7715,0.0,-5.9473,-5.9473,-5.9165,-5.8704,0.0,-5.7445,-5.7291,-5.8357,-5.8434,-5.9204,-6.2166,-6.1666,-6.1435,-6.3397,-6.3666,-6.4012,-6.5128,-6.7667,-6.9629,-7.0244,-7.0475,-7.0629,-7.0629,-7.0783,-7.0898,-7.0898,-7.0898,-7.0898,-7.0898,-7.0321,-6.9898,-6.9706,-6.8398,-6.8013,-6.8706,-6.7821,-6.7383,-6.7299,-6.6643,-6.6293,-6.6251,-6.6209,-6.6176,-6.6108,-6.6056,-6.5616,-6.4859,-6.3974,-6.3128,-6.2281,-6.1435,-6.0973,-6.0781,-6.0781,-6.0781,-6.0781,-6.0781,-6.0781,-6.0781,-6.0781,-6.0781,-6.0781,-6.0781,-6.0781,-6.0781,-6.0781,-6.0781,-6.0781,-6.0781,-6.0781,-6.0781,-6.0781,-6.0781,-6.0781,-6.0781,-6.0781,-6.0781,-6.0781,-6.0816,-6.0911,-6.0965,-6.098,-6.1002,-6.1051,-6.1109,-6.1118,-6.1118,-6.1118,-6.046,-5.8758,-5.8613,-5.7869,-5.6167,-5.6012,-5.6012,-5.6012,-5.6012,-5.6012,-5.6012,-5.6012,-5.6012,-5.6012,-5.6012,-5.6012,-5.6012,-5.6012,-5.6012,-5.6012,-5.6012,-5.6012,-5.6406,-5.7588,-5.8858,-5.8858,-5.8588,-5.8165,-5.7703,-5.6973,-5.6549,-5.7011,-5.7126,-5.778,-6.0012,-6.0281,-6.0781,-6.2551,-6.3435,-6.4628,-6.6744,-6.8244,-6.9552,-7.0744,-7.0898,-7.0898,-7.0898,-7.0552,-7.036,-7.036,-6.9975,-6.9744,-6.9744,-6.936,-6.8936,-6.8513,-6.7677,-6.7456,-6.7957,-6.707,-6.6731,-6.6901,-6.6436,-6.6267,-6.6413,-6.6344,-6.6259,-6.6203,-6.6148,-6.5517,-6.4551,-6.3666,-6.282,-6.2024,-6.1127,-6.0781,-6.0781,-6.0781,-6.0781,-6.0781,-6.0781,-6.0781,-6.0781,-6.0781,-6.0781,-6.0781,-6.0781,-6.0781,-6.0781,-6.0781,-6.0781,-6.0781,-6.0781,-6.0781,-6.0781,-6.0781,-6.0781,-6.0781,-6.0781,-6.0781,-6.0781,-6.0781,-6.0827,-6.0933,-6.0987,-6.1,-6.1022,-6.1109,-6.1118,-6.1118,-6.1118,-6.1118,-6.046,-5.8758,-5.8613,-5.7869,-5.6167,-5.6012,-5.6012,-5.6012,-5.6012,-5.6012,-5.6012,-5.6012,-5.6012,-5.6012,-5.6012,-5.6012,-5.6012,-5.6012,-5.6012,-5.6012,-5.6012,-5.6012,-5.6011,-5.7742,-5.9396,-5.9011,-5.8511,-5.8088,-5.7934,0.0,0.0,0.0,0.0,-5.6049,-5.7176,-5.855,-5.9858,-6.1012,-6.3089,-6.5436,-6.7859,-6.8205,-6.8783,-7.0321,-7.0514,-7.0514,-7.0514,-6.9898,-6.9513,-6.9513,-6.8821,-6.8385,-6.8385,-6.8282,-6.7859,-6.7128,-6.7189,-6.7201,-6.7232,-6.6506,-6.6212,-6.6344,-6.6344,-6.6465,-6.6615,-6.6438,-6.6373,-6.6337,-6.6048,-6.5378,-6.4381,-6.3486,-6.2627,-6.1831,-6.1089,-6.0781,-6.0781,-6.0781,-6.0781,-6.0781,-6.0781,-6.0781,-6.0781,-6.0781,-6.0781,-6.0781,-6.0781,-6.0781,-6.0781,-6.0781,-6.0781,-6.0781,-6.0781,-6.0781,-6.0781,-6.0781,-6.0781,-6.0781,-6.0781,-6.0781,-6.0793,-6.0793,-6.0888,-6.0944,-6.0997,-6.1021,-6.1032,-6.107,-6.1118,-6.1118,-6.1118,-6.1118,-6.046,-5.8758,-5.8613,-5.7869,-5.6167,-5.6012,-5.6012,-5.6012,-5.6012,-5.6012,-5.6012,-5.6012,-5.6012,-5.6012,-5.6012,-5.6012,-5.6012,-5.6012,-5.6012,-5.6012,-5.6012,-5.6012,-5.7511,-5.8665,-5.8973,-5.6819,-5.6742,-5.7022,-5.628,-5.5895,0.0,0.0,0.0,-5.6395,-5.8704,-5.9319,-6.0242,-6.2551,-6.3858,-6.5243,-6.7051,-6.7282,-6.7667,-6.8667,-6.8783,-6.8783,-6.8783,-6.8667,-6.859,-6.859,-6.8475,-6.8385,-6.8385,-6.7705,-6.7244,-6.709,-6.6571,-6.6341,-6.6461,-6.6353,-6.6351,-6.6569,-6.6569,-6.6624,-6.6781,-6.6733,-6.665,-6.6519,-6.5652,-6.467,-6.366,-6.2683,-6.1781,-6.0973,-6.0858,-6.0781,-6.0781,-6.0781,-6.0781,-6.0781,-6.0781,-6.0781,-6.0781,-6.0781,-6.0781,-6.0781,-6.0781,-6.0781,-6.0781,-6.0781,-6.0781,-6.0781,-6.0781,-6.0781,-6.0781,-6.0781,-6.0781,-6.0781,-6.0781,-6.0781,-6.0843,-6.0888,-6.0944,-6.0997,-6.0982,-6.1032,-6.1109,-6.1118,-6.1118,-6.1118,-6.1118,-6.1118,-6.046,-5.8758,-5.8613,-5.7869,-5.6167,-5.6012,-5.6012,-5.6012,-5.6012,-5.6012,-5.6012,-5.6012,-5.6012,-5.6012,-5.6012,-5.6012,-5.6012,-5.6012,-5.6012,-5.6012,-5.6012,-5.6012,-5.6665,-5.7511,-5.7857,-5.6714,-5.7742,-5.883,-5.7934,-5.7434,-5.7088,-5.7088,-5.7088,-5.7742,-5.9819,-6.0589,-6.1743,-6.4282,-6.5051,-6.5705,-6.6936,-6.709,-6.7398,-6.8321,-6.8385,-6.8385,-6.8385,-6.7975,-6.7705,-6.7705,-6.7282,-6.7051,-6.7051,-6.6667,-6.6473,-6.6565,-6.6322,-6.6042,-6.5764,-6.5873,-6.62,-6.6709,-6.6709,-6.673,-6.6795,-6.6366,-6.6057,-6.5844,-6.4831,-6.3812,-6.2849,-6.232,-6.1601,-6.0781,-6.0781,-6.0781,-6.0781,-6.0781,-6.0781,-6.0781,-6.0781,-6.0781,-6.0781,-6.0781,-6.0781,-6.0781,-6.0781,-6.0781,-6.0781,-6.0781,-6.0781,-6.0781,-6.0781,-6.0781,-6.0781,-6.0781,-6.0781,-6.0781,-6.0781,-6.0843,-6.0877,-6.09,-6.0948,-6.101,-6.1002,-6.1041,-6.1118,-6.1118,-6.1118,-6.1118,-6.1118,-6.1118,-6.0654,-5.9416,-5.8874,-5.8062,-5.6815,-5.6274,-5.6012,-5.6012,-5.6012,-5.6012,-5.6012,-5.6012,-5.6012,-5.6012,-5.6012,-5.6012,-5.6012,-5.6012,-5.6012,-5.6012,-5.6012,-5.6012,-5.6203,-5.678,-5.7368,-5.7561,-5.8742,-5.9819,-5.955,-5.8896,-5.8357,-5.855,-5.8588,-5.905,-6.0512,-6.182,-6.3397,-6.5551,-6.5897,-6.6128,-6.6744,-6.6821,-6.7051,-6.7744,-6.7821,-6.7821,-6.7821,-6.7205,-6.6821,-6.6821,-6.6244,-6.5897,-6.5897,-6.5897,-6.5866,-6.5788,-6.5946,-6.5686,-6.4992,-6.5201,-6.5585,-6.6209,-6.6209,-6.6209,-6.617,-6.5585,-6.5208,-6.5026,-6.398,-6.3092,-6.2334,-6.1973,-6.1416,-6.0781,-6.0781,-6.0781,-6.0781,-6.0781,-6.0781,-6.0781,-6.0781,-6.0781,-6.0781,-6.0781,-6.0781,-6.0781,-6.0781,-6.0781,-6.0781,-6.0781,-6.0781,-6.0781,-6.0781,-6.0781,-6.0781,-6.0781,-6.0781,-6.0781,-6.0781,-6.0854,-6.09,-6.0911,-6.0959,-6.0992,-6.1002,-6.1041,-6.1118,-6.1118,-6.1118,-6.1118,-6.1118,-6.1118,-6.0809,-5.9996,-5.9106,-5.8139,-5.7086,-5.6583,-5.6197,-5.6012,-5.6012,-5.6012,-5.6012,-5.6012,-5.6012,-5.6012,-5.6012,-5.6012,-5.6012,-5.6012,-5.6012,-5.6012,-5.6012,-5.6012,-5.7665,-5.8165,-5.8396,-5.9127,-5.828,-5.7676,-5.9165,-5.8896,-5.8511,-5.9281,-5.9396,-5.9704,-6.0627,-6.2781,-6.4743,-6.5743,-6.5897,-6.5897,-6.5974,-6.5974,-6.6013,-6.6051,-6.609,-6.609,-6.609,-6.6013,-6.5974,-6.5974,-6.5936,-6.5897,-6.5897,-6.5897,-6.5596,-6.4927,-6.5092,-6.4824,-6.4091,-6.4304,-6.4416,-6.4494,-6.4494,-6.4494,-6.4494,-6.4416,-6.4375,-6.4328,-6.3319,-6.2708,-6.2408,-6.1492,-6.098,-6.0781,-6.0781,-6.0781,-6.0781,-6.0781,-6.0781,-6.0781,-6.0781,-6.0781,-6.0781,-6.0781,-6.0781,-6.0781,-6.0781,-6.0781,-6.0781,-6.0781,-6.0781,-6.0781,-6.0781,-6.0781,-6.0781,-6.0781,-6.0781,-6.0781,-6.0781,-6.0793,-6.0843,-6.09,-6.0955,-6.1018,-6.0992,-6.1041,-6.1118,-6.1118,-6.1118,-6.1118,-6.1118,-6.1118,-6.0809,-5.9996,-5.9106,-5.7907,-5.6244,-5.6777,-5.6854,-5.6051,-5.6012,-5.6012,-5.6012,-5.6012,-5.6012,-5.6012,-5.6012,-5.6012,-5.6012,-5.6012,-5.6012,-5.6012,-5.6012,-5.6012,-5.6511,-5.7088,-5.7703,-5.855,-5.828,-5.8242,-5.9935,-6.0473,-6.0896,-6.1704,-6.1858,-6.1973,-6.2281,-6.3589,-6.4705,-6.5051,-6.5551,-6.5897,-6.5897,-6.5897,-6.5897,-6.5897,-6.5897,-6.5897,-6.5897,-6.5897,-6.5667,-6.5128,-6.5089,-6.4859,-6.432,-6.4282,-6.4238,-6.4183,-6.4256,-6.4013,-6.34,-6.3467,-6.3204,-6.2696,-6.3789,-6.4299,-6.4299,-6.375,-6.3477,-6.3435,-6.243,-6.1896,-6.1645,-6.1199,-6.0913,-6.0781,-6.0781,-6.0781,-6.0781,-6.0781,-6.0781,-6.0781,-6.0781,-6.0781,-6.0781,-6.0781,-6.0781,-6.0781,-6.0781,-6.0781,-6.0781,-6.0781,-6.0781,-6.0781,-6.0781,-6.0781,-6.0781,-6.0781,-6.0781,-6.0781,-6.0781,-6.0816,-6.0888,-6.0911,-6.0948,-6.1021,-6.1002,-6.1041,-6.1118,-6.1118,-6.1118,-6.1118,-6.1118,-6.1118,-6.0963,-6.0692,-5.988,-5.8681,-5.697,-5.7125,-5.6932,-5.6051,-5.6012,-5.6012,-5.6012,-5.6012,-5.6012,-5.6012,-5.6012,-5.6012,-5.6012,-5.6012,-5.6012,-5.6012,-5.6012,-5.6012,-5.578,-5.6329,-5.7137,-5.7742,-5.8088,-5.8819,-6.0781,-6.1678,-6.232,-6.3128,-6.3308,-6.3308,-6.3308,-6.4012,-6.4589,-6.4589,-6.532,-6.5897,-6.5897,-6.5897,-6.5897,-6.5897,-6.5897,-6.5897,-6.5897,-6.5628,-6.5243,-6.4628,-6.4359,-6.3935,-6.332,-6.3308,-6.3345,-6.3386,-6.3393,-6.3142,-6.2576,-6.2579,-6.2306,-6.1718,-6.2891,-6.3477,-6.3477,-6.2852,-6.2579,-6.2537,-6.1868,-6.1422,-6.1179,-6.1103,-6.0973,-6.0781,-6.0781,-6.0781,-6.0781,-6.0781,-6.0781,-6.0781,-6.0781,-6.0781,-6.0781,-6.0781,-6.0781,-6.0781,-6.0781,-6.0781,-6.0781,-6.0781,-6.0781,-6.0781,-6.0781,-6.0781,-6.0781,-6.0781,-6.0781,-6.0781,-6.0781,-6.0854,-6.0877,-6.0877,-6.0938,-6.101,-6.101,-6.107,-6.1118,-6.1118,-6.1118,-6.1118,-6.1118,-6.1118,-6.1002,-6.0731,-6.046,-5.9455,-5.7473,-5.7559,-5.7211,-5.6089,-5.6012,-5.6012,-5.6012,-5.6012,-5.6012,-5.6012,-5.6012,-5.6012,-5.6012,-5.6012,-5.6012,-5.6012,-5.6012,-5.6012,-5.5934,-5.6329,-5.6983,-5.7022,-5.7665,-5.8973,-6.1524,-6.2101,-6.232,-6.3166,-6.332,-6.3308,-6.3308,-6.4012,-6.4589,-6.4589,-6.532,-6.5897,-6.5897,-6.5897,-6.5897,-6.5897,-6.5897,-6.5897,-6.5897,-6.5128,-6.4589,-6.4589,-6.3782,-6.3269,-6.3269,-6.3281,-6.3036,-6.2485,-6.2493,-6.2241,-6.1718,-6.172,-6.172,-6.172,-6.172,-6.1718,-6.1718,-6.1718,-6.1718,-6.1718,-6.1718,-6.1521,-6.1186,-6.1186,-6.1027,-6.0781,-6.0781,-6.0781,-6.0781,-6.0781,-6.0781,-6.0781,-6.0781,-6.0781,-6.0781,-6.0781,-6.0781,-6.0781,-6.0781,-6.0781,-6.0781,-6.0781,-6.0781,-6.0781,-6.0781,-6.0781,-6.0781,-6.0781,-6.0781,-6.0781,-6.0781,-6.0781,-6.0781,-6.0781,-6.0911,-6.0987,-6.0987,-6.1051,-6.1118,-6.1118,-6.1118,-6.1118,-6.1118,-6.1118,-6.0809,-5.9996,-6.0615,-6.0074,-5.755,-5.8101,-5.7869,-5.6128,-5.6012,-5.6012,-5.6012,-5.6012,-5.6012,-5.6012,-5.6012,-5.6012,-5.6012,-5.6012,-5.6012,-5.6012,-5.6012,-5.6012,-5.5934,-5.6329,-5.7137,-5.7742,-5.9011,-6.0435,-6.1793,-6.2551,-6.3358,-6.482,-6.4628,-6.4205,-6.4205,-6.4436,-6.4589,-6.4589,-6.532,-6.5897,-6.5897,-6.5897,-6.5897,-6.5897,-6.5897,-6.5667,-6.5051,-6.4743,-6.4128,-6.2935,-6.2589,-6.2204,-6.155,-6.1632,-6.1637,-6.1596,-6.1728,-6.1758,-6.1715,-6.1715,-6.1715,-6.1715,-6.1707,-6.1696,-6.1718,-6.1718,-6.1718,-6.1718,-6.1718,-6.1521,-6.1172,-6.1002,-6.0877,-6.0781,-6.0781,-6.0781,-6.0781,-6.0781,-6.0781,-6.0781,-6.0781,-6.0781,-6.0781,-6.0781,-6.0781,-6.0781,-6.0781,-6.0781,-6.0781,-6.0781,-6.0781,-6.0781,-6.0781,-6.0781,-6.0781,-6.0781,-6.0781,-6.0781,-6.0781,-6.0781,-6.0781,-6.0781,-6.0888,-6.0944,-6.0987,-6.1021,-6.1041,-6.107,-6.1118,-6.1118,-6.1118,-6.1118,-6.1002,-6.077,-6.0963,-6.0576,-5.9223,-5.8797,-5.8101,-5.697,-5.6351,-5.6012,-5.6012,-5.6012,-5.6012,-5.6012,-5.6012,-5.6012,-5.6012,-5.6012,-5.6012,-5.6012,-5.6012,-5.6012,-5.678,-5.7126,-5.778,-5.9011,-6.005,-6.1089,-6.232,-6.3205,-6.4128,-6.5166,-6.4705,-6.4089,-6.4089,-6.4089,-6.4205,-6.4551,-6.532,-6.5897,-6.5897,-6.5897,-6.5897,-6.5897,-6.559,-6.5166,-6.4666,-6.4012,-6.3205,-6.2178,-6.1793,-6.1358,-6.0819,-6.0925,-6.105,-6.12,-6.1413,-6.1573,-6.1719,-6.1719,-6.1719,-6.1719,-6.1717,-6.1708,-6.1688,-6.1681,-6.1718,-6.1718,-6.1657,-6.1451,-6.1172,-6.0954,-6.0834,-6.0781,-6.0781,-6.0781,-6.0781,-6.0781,-6.0781,-6.0781,-6.0781,-6.0781,-6.0781,-6.0781,-6.0781,-6.0781,-6.0781,-6.0781,-6.0781,-6.0781,-6.0781,-6.0781,-6.0781,-6.0781,-6.0781,-6.0781,-6.0781,-6.0781,-6.0781,-6.0781,-6.0781,-6.0781,-6.0827,-6.0922,-6.0955,-6.0969,-6.1031,-6.1041,-6.107,-6.1118,-6.1118,-6.1118,-6.1118,-6.1118,-6.1118,-6.077,-5.9957,-5.9106,-5.8217,-5.7357,-5.6467,-5.6012,-5.6012,-5.6012,-5.6012,-5.6012,-5.6012,-5.6012,-5.6012,-5.6012,-5.6012,-5.6012,-5.6012,-5.6012,-5.7973,-5.8242,-5.8704,-6.0358,-6.0896,-6.1435,-6.3051,-6.3974,-6.4474,-6.4474,-6.3858,-6.3308,-6.3308,-6.3346,-6.3666,-6.4474,-6.532,-6.5897,-6.5897,-6.5897,-6.5897,-6.5897,-6.5128,-6.4589,-6.4474,-6.3051,-6.2062,-6.1985,-6.1243,-6.0793,-6.0804,-6.0934,-6.108,-6.1223,-6.141,-6.1591,-6.1718,-6.1718,-6.1718,-6.1718,-6.1719,-6.1717,-6.1702,-6.1688,-6.172,-6.1676,-6.1569,-6.139,-6.1179,-6.1044,-6.0913,-6.0781,-6.0781,-6.0781,-6.0781,-6.0781,-6.0781,-6.0781,-6.0781,-6.0781,-6.0781,-6.0781,-6.0781,-6.0781,-6.0781,-6.0781,-6.0781,-6.0781,-6.0781,-6.0781,-6.0781,-6.0781,-6.0781,-6.0781,-6.0781,-6.0781,-6.0781,-6.0781,-6.0781,-6.0781,-6.0866,-6.09,-6.0911,-6.0955,-6.1008,-6.0992,-6.1032,-6.1109,-6.1109,-6.107,-6.107,-6.1118,-6.1118,-6.0809,-6.0074,-5.9223,-5.8333,-5.7473,-5.6583,-5.6081,-5.6012,-5.6012,-5.6012,-5.6012,-5.6012,-5.6012,-5.6012,-5.6012,-5.6012,-5.6012,-5.6012,-5.6012,-5.7253,-5.778,-5.8704,-6.0358,-6.1781,-6.3051,-6.4089,-6.3935,-6.3589,-6.3589,-6.3435,-6.3308,-6.3308,-6.3858,-6.4397,-6.4589,-6.532,-6.5897,-6.5897,-6.5897,-6.5897,-6.5897,-6.5128,-6.432,-6.3666,-6.2666,-6.1831,-6.1127,-6.0896,-6.0827,-6.0877,-6.1042,-6.1229,-6.1331,-6.1554,-6.1674,-6.1694,-6.1694,-6.1694,-6.1696,-6.1713,-6.1718,-6.1719,-6.1707,-6.1686,-6.1702,-6.156,-6.139,-6.1179,-6.1044,-6.0913,-6.0781,-6.0781,-6.0781,-6.0781,-6.0781,-6.0781,-6.0781,-6.0781,-6.0781,-6.0781,-6.0781,-6.0781,-6.0781,-6.0781,-6.0781,-6.0781,-6.0781,-6.0781,-6.0781,-6.0781,-6.0781,-6.0781,-6.0781,-6.0781,-6.0781,-6.0781,-6.0781,-6.0781,-6.0781,-6.0793,-6.0854,-6.09,-6.0922,-6.0944,-6.1008,-6.1018,-6.101,-6.1012,-6.1022,-6.1032,-6.107,-6.1118,-6.1041,-6.0847,-6.0074,-5.9261,-5.8372,-5.7521,-5.6699,-5.6051,-5.6012,-5.6012,-5.6012,-5.6012,-5.6012,-5.6012,-5.6012,-5.6012,-5.6012,-5.6012,-5.6012,-5.7857,-5.8511,-5.9473,-6.1973,-6.2974,-6.3423,-6.3858,-6.3012,-6.2089,-6.2089,-6.2435,-6.2743,-6.2743,-6.3397,-6.4128,-6.4551,-6.532,-6.5897,-6.5897,-6.5551,-6.5282,-6.5282,-6.4166,-6.3205,-6.2781,-6.1973,-6.1281,-6.0819,-6.0839,-6.0856,-6.091,-6.1161,-6.1314,-6.14,-6.1601,-6.1692,-6.1718,-6.1718,-6.1683,-6.169,-6.1705,-6.1715,-6.1719,-6.1709,-6.1686,-6.1699,-6.1641,-6.1437,-6.1186,-6.1136,-6.0974,-6.0781,-6.0781,-6.0781,-6.0781,-6.0781,-6.0781,-6.0781,-6.0781,-6.0781,-6.0781,-6.0781,-6.0781,-6.0781,-6.0781,-6.0781,-6.0781,-6.0781,-6.0781,-6.0781,-6.0781,-6.0781,-6.0781,-6.0781,-6.0781,-6.0781,-6.0781,-6.0781,-6.0781,-6.0781,-6.0781,-6.0793,-6.0866,-6.0888,-6.0922,-6.0944,-6.0976,-6.1008,-6.1,-6.0982,-6.1012,-6.1041,-6.106,-6.1118,-6.1118,-6.0344,-5.9532,-5.8651,-5.7791,-5.6893,-5.6051,-5.6012,-5.6012,-5.6012,-5.6012,-5.6012,-5.6012,-5.6012,-5.6012,-5.6012,-5.6012,-5.6012,-5.8434,-5.9511,-6.0704,-6.382,-6.3935,-6.3308,-6.3308,-6.2012,-6.0781,-6.0781,-6.1358,-6.187,-6.187,-6.2551,-6.3358,-6.4243,-6.5128,-6.5743,-6.5859,-6.5282,-6.4782,-6.4628,-6.3243,-6.2255,-6.2101,-6.132,-6.0781,-6.0781,-6.0856,-6.092,-6.0941,-6.1238,-6.1403,-6.141,-6.16,-6.1718,-6.1718,-6.1681,-6.1688,-6.1697,-6.1701,-6.1715,-6.1716,-6.1708,-6.1692,-6.1702,-6.1713,-6.1521,-6.1186,-6.1186,-6.1027,-6.0781,-6.0781,-6.0781,-6.0781,-6.0781,-6.0781,-6.0781,-6.0781,-6.0781,-6.0781,-6.0781,-6.0781,-6.0781,-6.0781,-6.0781,-6.0781,-6.0781,-6.0781,-6.0781,-6.0781,-6.0781,-6.0781,-6.0781,-6.0781,-6.0781,-6.0781,-6.0781,-6.0781,-6.0781,-6.0781,-6.0781,-6.0781,-6.0866,-6.09,-6.09,-6.0933,-6.0965,-6.0976,-6.098,-6.0982,-6.0992,-6.1032,-6.107,-6.107,-6.0499,-5.9687,-5.8651,-5.7907,-5.7056,-5.6051,-5.6012,-5.6012,-5.6012,-5.6012,-5.6012,-5.6012,-5.6012,-5.6012,-5.6012,-5.6012,-5.6012,-5.706,0.0,-6.2204,-6.4128,-6.3935,-6.3308,-6.3308,-6.2012,-6.0781,-6.0781,-6.0896,-6.0973,-6.0973,-6.1678,-6.2512,-6.3358,-6.4205,-6.5051,-6.5782,-6.5782,-6.5436,-6.4705,-6.3743,-6.2858,-6.2178,-6.132,-6.0781,-6.0781,-6.0856,-6.0951,-6.1051,-6.1262,-6.1417,-6.1481,-6.1637,-6.1718,-6.1718,-6.169,-6.1696,-6.1697,-6.1711,-6.1719,-6.171,-6.1714,-6.1707,-6.1715,-6.1705,-6.1504,-6.1186,-6.1186,-6.1027,-6.0781,-6.0781,-6.0781,-6.0781,-6.0781,-6.0781,-6.0781,-6.0781,-6.0781,-6.0781,-6.0781,-6.0781,-6.0781,-6.0781,-6.0781,-6.0781,-6.0781,-6.0781,-6.0781,-6.0781,-6.0781,-6.0781,-6.0781,-6.0781,-6.0781,-6.0781,-6.0781,-6.0781,-6.0781,-6.0781,-6.0781,-6.0781,-6.0793,-6.0793,-6.0793,-6.0804,-6.0866,-6.0911,-6.0933,-6.0955,-6.0997,-6.1021,-6.1012,-6.1012,-6.0974,-6.0267,-5.869,-5.8488,-5.7714,-5.6089,-5.6012,-5.6012,-5.6012,-5.6012,-5.6012,-5.6012,-5.6012,-5.6012,-5.6012,-5.6012,-5.6012,-5.7896,-5.9858,-6.1781,-6.3435,-6.3243,-6.2627,-6.2627,-6.1666,-6.0781,-6.0781,-6.0781,-6.0781,-6.0781,-6.1524,-6.2358,-6.3166,-6.4051,-6.4897,-6.5782,-6.5474,-6.4859,-6.3974,-6.3128,-6.2281,-6.1447,-6.1012,-6.0816,-6.0834,-6.0941,-6.1059,-6.1213,-6.1387,-6.1488,-6.1555,-6.1631,-6.1718,-6.1718,-6.1692,-6.1702,-6.171,-6.1717,-6.1719,-6.1717,-6.1714,-6.1704,-6.1718,-6.1683,-6.153,-6.1186,-6.1186,-6.1027,-6.0781,-6.0781,-6.0781,-6.0781,-6.0781,-6.0781,-6.0781,-6.0781,-6.0781,-6.0781,-6.0781,-6.0781,-6.0781,-6.0781,-6.0781,-6.0781,-6.0781,-6.0781,-6.0781,-6.0781,-6.0781,-6.0781,-6.0781,-6.0781,-6.0781,-6.0781,-6.0781,-6.0781,-6.0781,-6.0781,-6.0781,-6.0781,-6.0781,-6.0781,-6.0781,-6.0781,-6.0793,-6.0854,-6.0888,-6.0922,-6.0944,-6.0997,-6.101,-6.1002,-6.1022,-6.0355,-5.8681,-5.8613,-5.783,-5.6089,-5.6012,-5.6012,-5.6012,-5.6012,-5.6012,-5.6012,-5.6012,-5.6012,-5.6012,-5.6012,-5.6012,-5.828,0.0,-6.055,-6.2243,-6.2204,-6.1831,-6.2062,-6.1435,-6.0781,-6.0781,-6.0781,-6.0781,-6.0781,-6.132,-6.205,-6.2858,-6.3705,-6.4589,-6.5436,-6.5205,-6.4512,-6.3435,-6.2781,-6.1973,-6.0896,-6.0816,-6.0861,-6.091,-6.1041,-6.1164,-6.1266,-6.1424,-6.1502,-6.156,-6.1668,-6.1718,-6.1718,-6.1694,-6.1709,-6.1718,-6.1718,-6.1719,-6.1719,-6.1716,-6.1708,-6.1697,-6.1694,-6.1506,-6.1214,-6.12,-6.1027,-6.0781,-6.0781,-6.0781,-6.0781,-6.0781,-6.0781,-6.0781,-6.0781,-6.0781,-6.0781,-6.0781,-6.0781,-6.0781,-6.0781,-6.0781,-6.0781,-6.0781,-6.0781,-6.0781,-6.0781,-6.0781,-6.0781,-6.0781,-6.0781,-6.0781,-6.0781,-6.0781,-6.0781,-6.0781,-6.0781,-6.0781,-6.0781,-6.0781,-6.0781,-6.0781,-6.0781,-6.0781,-6.0781,-6.0827,-6.0888,-6.0888,-6.0933,-6.0997,-6.1021,-6.0992,-6.0297,-5.8681,-5.8613,-5.783,-5.6089,-5.6012,-5.6012,-5.6012,-5.6012,-5.6012,-5.6012,-5.6012,-5.6012,-5.6012,-5.6012,-5.6012,-5.6868,-5.778,0.0,-6.0512,-6.0896,-6.1089,-6.1908,-6.1435,-6.0781,-6.0781,-6.0781,-6.0781,-6.0781,-6.0819,-6.1127,-6.2024,-6.2858,-6.3666,-6.4551,-6.532,-6.5205,-6.3512,-6.3281,-6.2589,-6.0973,-6.0845,-6.091,-6.091,-6.1068,-6.1181,-6.1197,-6.1392,-6.1488,-6.149,-6.1636,-6.1718,-6.1718,-6.1701,-6.1714,-6.1719,-6.1719,-6.1719,-6.1719,-6.1719,-6.1719,-6.1718,-6.1699,-6.1506,-6.12,-6.1214,-6.1027,-6.0781,-6.0781,-6.0781,-6.0781,-6.0781,-6.0781,-6.0781,-6.0781,-6.0781,-6.0781,-6.0781,-6.0781,-6.0781,-6.0781,-6.0781,-6.0781,-6.0781,-6.0781,-6.0781,-6.0781,-6.0781,-6.0781,-6.0781,-6.0781,-6.0781,-6.0781,-6.0781,-6.0781,-6.0781,-6.0781,-6.0781,-6.0781,-6.0781,-6.0781,-6.0781,-6.0781,-6.0781,-6.0781,-6.0793,-6.0831,-6.0831,-6.0877,-6.0933,-6.0987,-6.101,-6.0297,-5.8681,-5.8613,-5.783,-5.6089,-5.6012,-5.6012,-5.6012,-5.6012,-5.6012,-5.6012,-5.6012,-5.6012,-5.6012,-5.6012,-5.6012,-5.5843,-5.6449,0.0,-5.9407,-5.9973,-6.0204,-6.105,-6.1012,-6.0781,-6.0781,-6.0781,-6.0781,-6.0781,-6.0781,-6.1089,-6.1947,-6.2781,-6.3589,-6.4474,-6.5359,-6.5474,-6.4282,-6.3628,-6.2858,-6.1755,-6.1192,-6.0941,-6.1012,-6.1113,-6.1257,-6.1383,-6.1459,-6.1549,-6.1638,-6.1657,-6.1688,-6.1701,-6.1707,-6.1714,-6.1719,-6.1719,-6.1719,-6.1719,-6.1719,-6.1718,-6.1715,-6.1718,-6.1568,-6.1387,-6.1256,-6.1105,-6.0913,-6.085,-6.0781,-6.0781,-6.0781,-6.0781,-6.0781,-6.0781,-6.0781,-6.0781,-6.0781,-6.0781,-6.0781,-6.0781,-6.0781,-6.0781,-6.0781,-6.0781,-6.0781,-6.0781,-6.0781,-6.0781,-6.0781,-6.0781,-6.0781,-6.0781,-6.0781,-6.0781,-6.0781,-6.0781,-6.0781,-6.0781,-6.0781,-6.0781,-6.0781,-6.0781,-6.0781,-6.0781,-6.0781,-6.0781,-6.0781,-6.0804,-6.0877,-6.0933,-6.0927,-6.0457,-5.9389,-5.935,-5.8596,-5.6848,-5.6798,-5.6583,-5.6012,-5.6012,-5.6012,-5.6012,-5.6012,-5.6012,-5.6012,-5.6012,-5.6012,-5.547,-5.5614,-5.5989,-5.8501,-5.8913,-5.9106,-6.0508,-6.0623,-6.0458,-6.0754,-6.0781,-6.0781,-6.0781,-6.0781,-6.0973,-6.1562,-6.2589,-6.3512,-6.4089,-6.5166,-6.559,-6.4705,-6.4089,-6.332,-6.2216,-6.1698,-6.1311,-6.1109,-6.1195,-6.1357,-6.1488,-6.1517,-6.1557,-6.1683,-6.1683,-6.1696,-6.1709,-6.1711,-6.1716,-6.1719,-6.1719,-6.1719,-6.1719,-6.1719,-6.1717,-6.1709,-6.1716,-6.1636,-6.1468,-6.1271,-6.114,-6.0991,-6.0856,-6.0781,-6.0781,-6.0781,-6.0781,-6.0781,-6.0781,-6.0781,-6.0781,-6.0781,-6.0781,-6.0781,-6.0781,-6.0781,-6.0781,-6.0781,-6.0781,-6.0781,-6.0781,-6.0781,-6.0781,-6.0781,-6.0781,-6.0781,-6.0781,-6.0781,-6.0781,-6.0781,-6.0781,-6.0781,-6.0781,-6.0781,-6.0781,-6.0781,-6.0781,-6.0781,-6.0781,-6.0781,-6.0781,-6.0781,-6.0781,-6.0843,-6.09,-6.0911,-6.0547,-5.9752,-5.9755,-5.9128,-5.7709,-5.7398,-5.6991,-5.6429,-5.6158,-5.6012,-5.6012,-5.6012,-5.6012,-5.6012,-5.6012,-5.6012,0.0,0.0,0.0,-5.7708,-5.7746,-5.7852,-6.0305,-6.0179,-5.981,-6.0639,-6.0793,-6.0793,-6.0781,-6.0781,-6.0781,-6.0781,-6.2204,-6.3308,-6.3308,-6.4782,-6.559,-6.4743,-6.4628,-6.3974,-6.2332,-6.2302,-6.2046,-6.1195,-6.1283,-6.1441,-6.149,-6.1498,-6.1559,-6.1683,-6.1692,-6.1702,-6.1709,-6.1715,-6.1718,-6.1719,-6.1719,-6.1719,-6.1719,-6.1719,-6.1717,-6.1709,-6.1709,-6.164,-6.1471,-6.1305,-6.1136,-6.1009,-6.085,-6.0793,-6.0793,-6.0781,-6.0781,-6.0781,-6.0781,-6.0781,-6.0781,-6.0781,-6.0781,-6.0781,-6.0781,-6.0781,-6.0781,-6.0781,-6.0781,-6.0781,-6.0781,-6.0781,-6.0781,-6.0781,-6.0781,-6.0781,-6.0781,-6.0781,-6.0781,-6.0781,-6.0781,-6.0781,-6.0781,-6.0781,-6.0781,-6.0781,-6.0781,-6.0781,-6.0781,-6.0781,-6.0781,-6.0781,-6.0781,-6.0843,-6.09,-6.0911,-6.0547,-5.9791,-5.9714,-5.9349,-5.8549,-5.7709,-5.7264,-5.7318,-5.6467,-5.6003,-5.6003,-5.6003,-5.6012,-5.6012,-5.6012,-5.6012,-5.3876,0.0,0.0,0.0,0.0,0.0,-5.9588,-5.9346,-5.9143,-6.0591,-6.0388,-6.0096,-6.0677,-6.0781,-6.0781,-6.0781,-6.2204,-6.3308,-6.3308,-6.4782,-6.582,-6.5551,-6.4974,-6.446,-6.4008,-6.2987,-6.2249,-6.2132,-6.1624,-6.1382,-6.1495,-6.1601,-6.1665,-6.172,-6.1692,-6.1702,-6.1709,-6.1715,-6.1718,-6.1719,-6.1719,-6.1719,-6.1719,-6.1719,-6.1718,-6.1715,-6.1711,-6.1639,-6.1557,-6.1413,-6.133,-6.1277,-6.0983,-6.0867,-6.0856,-6.0816,-6.0781,-6.0781,-6.0781,-6.0781,-6.0781,-6.0781,-6.0781,-6.0781,-6.0781,-6.0781,-6.0781,-6.0781,-6.0781,-6.0781,-6.0781,-6.0781,-6.0781,-6.0781,-6.0781,-6.0781,-6.0781,-6.0781,-6.0781,-6.0781,-6.0781,-6.0781,-6.0781,-6.0781,-6.0781,-6.0781,-6.0781,-6.0781,-6.0781,-6.0781,-6.0781,-6.0781,-6.0781,-6.0793,-6.0843,-6.0843,-6.0739,-6.0519,-6.0525,-6.0201,-5.9335,-5.9097,-5.8432,-5.7255,-5.6975,-5.6578,-5.5998,-5.5995,-5.6012,-5.6012,-5.6012,-5.6012,-5.3851,-5.3456,-5.337,-5.543,0.0,0.0,-5.8288,-5.8558,-5.8808,-6.0145,-6.0288,-6.0305,-6.075,-6.0877,-6.0861,-6.0861,-6.1944,-6.2921,-6.3243,-6.4782,-6.5897,-6.5897,-6.5461,-6.5074,-6.4725,-6.3587,-6.2772,-6.2507,-6.174,-6.1349,-6.1478,-6.1638,-6.1718,-6.1718,-6.1696,-6.1705,-6.1709,-6.1716,-6.1718,-6.1719,-6.1719,-6.1719,-6.1719,-6.1719,-6.1718,-6.1716,-6.1711,-6.1678,-6.1598,-6.1486,-6.1421,-6.1318,-6.1074,-6.0951,-6.091,-6.0845,-6.0827,-6.0781,-6.0781,-6.0781,-6.0781,-6.0781,-6.0781,-6.0781,-6.0781,-6.0781,-6.0781,-6.0781,-6.0781,-6.0781,-6.0781,-6.0781,-6.0781,-6.0781,-6.0781,-6.0781,-6.0781,-6.0781,-6.0781,-6.0781,-6.0781,-6.0781,-6.0781,-6.0781,-6.0781,-6.0781,-6.0781,-6.0781,-6.0781,-6.0781,-6.0781,-6.0781,-6.0781,-6.0781,-6.0781,-6.0781,-6.0781,-6.0781,-6.0854,-6.0657,-6.0179,-5.9826,-5.9192,-5.8248,-5.7912,-5.7534,-5.7089,-5.6343,-5.6197,-5.6545,-5.694,-5.7095,-5.5092,-5.3962,-5.3304,-5.547,-5.5625,0.0,-5.6762,-5.7757,-5.8559,-5.9271,-6.0033,-6.064,-6.074,-6.0723,-6.0755,-6.0871,-6.1494,-6.2286,-6.319,-6.4717,-6.5782,-6.591,-6.5972,-6.5712,-6.4953,-6.4247,-6.3506,-6.2719,-6.1819,-6.1379,-6.1478,-6.1638,-6.1718,-6.1718,-6.1701,-6.1709,-6.1709,-6.1718,-6.1719,-6.1719,-6.1719,-6.1719,-6.1719,-6.1719,-6.1718,-6.1717,-6.1711,-6.1678,-6.1598,-6.1539,-6.1432,-6.1316,-6.1164,-6.1032,-6.0931,-6.092,-6.0845,-6.0781,-6.0781,-6.0781,-6.0781,-6.0781,-6.0781,-6.0781,-6.0781,-6.0781,-6.0781,-6.0781,-6.0781,-6.0781,-6.0781,-6.0781,-6.0781,-6.0781,-6.0781,-6.0781,-6.0781,-6.0781,-6.0781,-6.0781,-6.0781,-6.0781,-6.0781,-6.0781,-6.0781,-6.0781,-6.0781,-6.0781,-6.0781,-6.0781,-6.0781,-6.0781,-6.0781,-6.0781,-6.0781,-6.0781,-6.0781,-6.0781,-6.0781,-6.0843,-6.09,-6.0129,-5.9727,-5.9703,-5.8906,-5.85,-5.8604,-5.7056,-5.6708,-5.7473,-5.8255,-5.8613,-5.6837,-5.6545,-5.6283,-5.6051,-5.694,0.0,-5.6459,-5.6923,-5.7562,-5.767,-5.7815,-5.8336,-5.9675,-5.9367,-5.9367,-6.0755,-6.1095,-6.1752,-6.3241,-6.4265,-6.5153,-6.5895,-6.5993,-6.5997,-6.5902,-6.5199,-6.4432,-6.3696,-6.2279,-6.1462,-6.1486,-6.1638,-6.1718,-6.1718,-6.1701,-6.1709,-6.1709,-6.1718,-6.1719,-6.1719,-6.1719,-6.1719,-6.1719,-6.1719,-6.1719,-6.1718,-6.1713,-6.1679,-6.1593,-6.1536,-6.1485,-6.1461,-6.1259,-6.1134,-6.1032,-6.0951,-6.0845,-6.0781,-6.0781,-6.0781,-6.0781,-6.0781,-6.0781,-6.0781,-6.0781,-6.0781,-6.0781,-6.0781,-6.0781,-6.0781,-6.0781,-6.0781,-6.0781,-6.0781,-6.0781,-6.0781,-6.0781,-6.0781,-6.0781,-6.0781,-6.0781,-6.0781,-6.0781,-6.0781,-6.0781,-6.0781,-6.0781,-6.0781,-6.0781,-6.0781,-6.0781,-6.0781,-6.0781,-6.0781,-6.0781,-6.0781,-6.0781,-6.0781,-6.0781,-6.0831,-6.0843,-6.065,-6.0227,-5.9546,-5.8796,-5.8442,-5.8539,-5.8237,-5.8178,-5.8333,-5.8526,-5.8613,-5.6361,-5.5777,-5.5528,-5.5904,-5.6687,0.0,0.0,-5.7327,-5.8053,-5.8451,-5.8219,-5.8278,-5.9505,-5.9051,-5.8916,-6.0191,-6.0423,-6.1002,-6.2692,-6.3979,-6.503,-6.5893,-6.604,-6.608,-6.6134,-6.5451,-6.4528,-6.3332,-6.2176,-6.1486,-6.1486,-6.1638,-6.1718,-6.1718,-6.1701,-6.1709,-6.1709,-6.1718,-6.1719,-6.1719,-6.1719,-6.1719,-6.1719,-6.1719,-6.1719,-6.1719,-6.1713,-6.164,-6.1603,-6.1527,-6.1467,-6.1433,-6.1327,-6.1228,-6.1143,-6.1059,-6.0972,-6.0834,-6.0834,-6.0827,-6.0781,-6.0781,-6.0781,-6.0781,-6.0781,-6.0781,-6.0781,-6.0781,-6.0781,-6.0781,-6.0781,-6.0781,-6.0781,-6.0781,-6.0781,-6.0781,-6.0781,-6.0781,-6.0781,-6.0781,-6.0781,-6.0781,-6.0781,-6.0781,-6.0781,-6.0781,-6.0781,-6.0781,-6.0781,-6.0781,-6.0781,-6.0781,-6.0781,-6.0781,-6.0781,-6.0781,-6.0781,-6.0781,-6.0781,-6.0781,-6.0781,-6.0781,-6.06,-6.0211,-5.9843,-5.9686,-5.9766,-5.9795,-5.963,-5.9261,-5.9648,-5.9841,-5.6536,-5.5605,-5.5356,-5.648,-5.6897,-5.7108,0.0,0.0,0.0,-5.9106,-5.8604,-5.8285,-5.8944,-5.8422,-5.8255,-5.9377,-5.9436,-6.0036,-6.2105,-6.3361,-6.4469,-6.5438,-6.5595,-6.5659,-6.567,-6.4987,-6.3994,-6.2727,-6.1937,-6.1483,-6.1483,-6.1638,-6.1681,-6.1683,-6.1702,-6.1709,-6.171,-6.1718,-6.1719,-6.1719,-6.1719,-6.1719,-6.1719,-6.1719,-6.1719,-6.1719,-6.1713,-6.1679,-6.1596,-6.1525,-6.1463,-6.1415,-6.1401,-6.1329,-6.1181,-6.1181,-6.1077,-6.0941,-6.0941,-6.0888,-6.085,-6.0827,-6.0804,-6.0781,-6.0781,-6.0781,-6.0781,-6.0781,-6.0781,-6.0781,-6.0781,-6.0781,-6.0781,-6.0781,-6.0781,-6.0781,-6.0781,-6.0781,-6.0781,-6.0781,-6.0781,-6.0781,-6.0781,-6.0781,-6.0781,-6.0781,-6.0781,-6.0781,-6.0781,-6.0781,-6.0781,-6.0781,-6.0781,-6.0781,-6.0781,-6.0781,-6.0781,-6.0781,-6.0781,-6.0781,-6.0781,-6.0781,-6.0843,-6.0888,-6.09,-6.0927,-6.0992,-6.1002,-6.0684,-6.0151,-6.0809,-6.1118,-6.0687,-6.0499,-6.0255,-5.9606,-6.002,-6.005,-5.78,0.0,-5.9106,-5.6902,0.0,-5.6313,-5.6429,0.0,0.0,-5.8333,-5.8136,-5.8746,-6.1872,-6.1892,-6.2181,-6.3696,-6.3941,-6.399,-6.4077,-6.327,-6.2757,-6.2687,-6.1933,-6.1512,-6.1486,-6.1638,-6.1686,-6.1696,-6.1705,-6.1711,-6.1716,-6.1718,-6.1719,-6.1719,-6.1719,-6.1719,-6.1719,-6.1719,-6.1719,-6.1719,-6.1713,-6.1711,-6.1678,-6.1548,-6.1481,-6.1495,-6.1433,-6.1329,-6.1181,-6.1181,-6.1152,-6.1099,-6.1099,-6.1051,-6.107,-6.0931,-6.0861,-6.0781,-6.0781,-6.0781,-6.0781,-6.0781,-6.0781,-6.0781,-6.0781,-6.0781,-6.0781,-6.0781,-6.0781,-6.0781,-6.0781,-6.0781,-6.0781,-6.0781,-6.0781,-6.0781,-6.0781,-6.0781,-6.0781,-6.0781,-6.0781,-6.0781,-6.0781,-6.0781,-6.0781,-6.0781,-6.0781,-6.0781,-6.0781,-6.0781,-6.0781,-6.0781,-6.0781,-6.0781,-6.0781,-6.0781,-6.0793,-6.0793,-6.0888,-6.0944,-6.0997,-6.1021,-6.0993,-6.0963,-6.1079,-6.1118,-6.0119,-5.9967,-5.9954,-5.9963,-6.0272,-6.0366,-5.9684,-5.8952,-5.8217,-5.7637,0.0,0.0,0.0,0.0,0.0,0.0,-5.7228,-5.8002,-5.9891,-5.9889,-6.047,-6.2596,-6.2907,-6.2955,-6.305,-6.2719,-6.2538,-6.2626,-6.1924,-6.1509,-6.1486,-6.1638,-6.1686,-6.1697,-6.1705,-6.1712,-6.1717,-6.1718,-6.1719,-6.1719,-6.1719,-6.1719,-6.1719,-6.1719,-6.1719,-6.1719,-6.1716,-6.1678,-6.164,-6.1575,-6.1537,-6.1499,-6.1415,-6.1359,-6.1329,-6.1329,-6.1236,-6.1161,-6.1161,-6.1089,-6.0962,-6.0856,-6.0827,-6.0781,-6.0781,-6.0781,-6.0781,-6.0781,-6.0781,-6.0781,-6.0781,-6.0781,-6.0781,-6.0781,-6.0781,-6.0781,-6.0781,-6.0781,-6.0781,-6.0781,-6.0781,-6.0781,-6.0781,-6.0781,-6.0781,-6.0781,-6.0781,-6.0781,-6.0781,-6.0781,-6.0781,-6.0781,-6.0781,-6.0781,-6.0781,-6.0781,-6.0781,-6.0781,-6.0781,-6.0781,-6.0781,-6.0781,-6.0781,-6.0781,-6.0843,-6.0888,-6.0944,-6.0959,-6.1021,-6.1032,-6.106,-6.1118,-5.9882,-5.9718,-5.9766,-5.9965,-6.0044,-6.0086,-6.0076,-5.9017,-5.8097,-5.8243,-5.6471,0.0,0.0,0.0,-5.5697,-5.63,0.0,-5.7615,-5.8497,-5.8372,-5.902,-6.1032,-6.1331,-6.1369,-6.1462,-6.1646,-6.1823,-6.1924,-6.1655,-6.1473,-6.1543,-6.1636,-6.169,-6.1701,-6.1708,-6.1714,-6.1718,-6.1718,-6.1719,-6.1719,-6.1719,-6.1719,-6.1719,-6.1719,-6.1719,-6.1719,-6.1718,-6.1679,-6.1638,-6.1605,-6.1563,-6.1478,-6.1447,-6.1412,-6.1412,-6.1412,-6.1344,-6.1252,-6.1252,-6.1134,-6.0941,-6.0872,-6.0816,-6.0781,-6.0781,-6.0781,-6.0781,-6.0781,-6.0781,-6.0781,-6.0781,-6.0781,-6.0781,-6.0781,-6.0781,-6.0781,-6.0781,-6.0781,-6.0781,-6.0781,-6.0781,-6.0781,-6.0781,-6.0781,-6.0781,-6.0781,-6.0781,-6.0781,-6.0781,-6.0781,-6.0781,-6.0781,-6.0781,-6.0781,-6.0781,-6.0781,-6.0781,-6.0781,-6.0781,-6.0781,-6.0781,-6.0781,-6.0781,-6.0781,-6.0781,-6.0816,-6.0911,-6.0955,-6.0969,-6.1002,-6.1051,-6.1118,-6.1523,-6.1521,-6.1277,-6.0335,-6.0087,-5.9655,-5.7916,-5.8776,-5.9459,-5.7799,-5.8009,-5.8273,-5.7459,-5.7304,-5.7335,-5.7365,-5.7365,0.0,0.0,-5.7869,-5.7675,-5.8604,-5.872,-5.8746,-5.8828,-5.9529,-6.0057,-6.0188,-6.0937,-6.1442,-6.1601,-6.1671,-6.1701,-6.1708,-6.1714,-6.1718,-6.1719,-6.1719,-6.1719,-6.1719,-6.1719,-6.1719,-6.1719,-6.1719,-6.1719,-6.1719,-6.1718,-6.1715,-6.1674,-6.1618,-6.1551,-6.1473,-6.1445,-6.1412,-6.1412,-6.1412,-6.1412,-6.1373,-6.1373,-6.1267,-6.1051,-6.0941,-6.0834,-6.0781,-6.0781,-6.0781,-6.0781,-6.0781,-6.0781,-6.0781,-6.0781,-6.0781,-6.0781,-6.0781,-6.0781,-6.0781,-6.0781,-6.0781,-6.0781,-6.0781,-6.0781,-6.0781,-6.0781,-6.0781,-6.0781,-6.0781,-6.0781,-6.0781,-6.0781,-6.0781,-6.0781,-6.0781,-6.0781,-6.0781,-6.0781,-6.0781,-6.0781,-6.0781,-6.0781,-6.0781,-6.0781,-6.0781,-6.0781,-6.0781,-6.0781,-6.0816,-6.0911,-6.0911,-6.0938,-6.1002,-6.1051,-6.1118,-6.1676,-6.1677,-6.1562,-6.1184,-6.0194,-5.9104,-5.8422,-5.7807,-5.7265,-5.6676,-5.6816,-5.6963,-5.6652,-5.704,-5.7412,-5.7412,-5.7868,-5.8161,0.0,-5.6979,-5.6553,-5.6824,-5.7907,-5.8613,-5.863,-5.9889,-6.0544,-6.0127,-6.0889,-6.1442,-6.1601,-6.1671,-6.1702,-6.1708,-6.1714,-6.1718,-6.1719,-6.1719,-6.1719,-6.1719,-6.1719,-6.1719,-6.1719,-6.1719,-6.1719,-6.1719,-6.1718,-6.1716,-6.1672,-6.1634,-6.1573,-6.1517,-6.149,-6.1421,-6.1412,-6.1412,-6.1412,-6.1405,-6.1322,-6.1186,-6.1099,-6.0951,-6.0834,-6.0781,-6.0781,-6.0781,-6.0781,-6.0781,-6.0781,-6.0781,-6.0781,-6.0781,-6.0781,-6.0781,-6.0781,-6.0781,-6.0781,-6.0781,-6.0781,-6.0781,-6.0781,-6.0781,-6.0781,-6.0781,-6.0781,-6.0781,-6.0781,-6.0781,-6.0781,-6.0781,-6.0781,-6.0781,-6.0781,-6.0781,-6.0781,-6.0781,-6.0781,-6.0781,-6.0781,-6.0781,-6.0781,-6.0781,-6.0781,-6.0781,-6.0781,-6.0793,-6.0816,-6.0888,-6.0944,-6.099,-6.1002,-6.1051,-6.1712,-6.1712,-6.1638,-6.1245,-6.0286,-5.9228,-5.852,-5.7947,-5.7476,-5.7165,-5.7592,-5.8044,-5.8123,-5.8485,-5.8692,-5.8428,-5.8568,-5.8153,0.0,-5.6167,-5.6012,-5.6012,-5.7288,-5.8139,-5.8139,-5.9416,-6.0181,-6.0098,-6.0633,-6.1137,-6.16,-6.1669,-6.1705,-6.1712,-6.1716,-6.1718,-6.1719,-6.1719,-6.1719,-6.1719,-6.1719,-6.1719,-6.1719,-6.1719,-6.1719,-6.1719,-6.1719,-6.1717,-6.1671,-6.1639,-6.1543,-6.152,-6.1487,-6.1462,-6.1412,-6.1412,-6.1412,-6.1366,-6.1252,-6.1186,-6.1116,-6.1012,-6.0931,-6.0916,-6.0916,-6.0883,-6.085,-6.085,-6.0816,-6.0781,-6.0781,-6.0781,-6.0781,-6.0781,-6.0781,-6.0781,-6.0781,-6.0781,-6.0781,-6.0781,-6.0781,-6.0781,-6.0781,-6.0781,-6.0781,-6.0781,-6.0781,-6.0781,-6.0781,-6.0781,-6.0781,-6.0781,-6.0781,-6.0781,-6.0781,-6.0781,-6.0781,-6.0781,-6.0781,-6.0781,-6.0781,-6.0781,-6.0781,-6.0781,-6.0781,-6.0781,-6.0781,-6.0827,-6.0911,-6.0965,-6.0969,-6.101]},{"header":{"parameterUnit":"m.s-1","parameterCategory":1,"la1":30.6,"la2":29.2853,"lo1":-89.7004,"lo2":-87.6739,"dy":0.0162,"dx":0.0183,"nx":112,"ny":82,"refTime":"2024-05-22T06:00:00:Z","depth":0,"parameterNumber":3,"parameterNumberName":"V-component_of_WINDS"},"data":[0.0,0.0,0.0,0.0,0.0,0.0,0.0,0.0,0.0,0.0,0.0,0.0,0.0,0.0,0.0,0.0,0.0,0.0,0.0,0.0,0.0,0.0,0.0,0.0,0.0,0.0,0.0,0.0,0.0,0.0,0.0,0.0,0.0,0.0,0.0,0.0,0.0,0.0,0.0,0.0,0.0,0.0,0.0,0.0,0.0,0.0,0.0,0.0,0.0,0.0,0.0,0.0,0.0,0.0,0.0,0.0,0.0,0.0,0.0,0.0,0.0,0.0,0.0,0.0,0.0,0.0,0.0,0.0,0.0,0.0,0.0,0.0,0.0,0.0,0.0,0.0,0.0,0.0,0.0,0.0,0.0,0.0,0.0,0.0,0.0,0.0,0.0,0.0,0.0,0.0,-2.155,-2.2525,-2.3354,-2.3714,-2.342,-2.3313,-2.2645,-2.1203,0.0,0.0,0.0,0.0,0.0,0.0,0.0,0.0,0.0,0.0,0.0,0.0,0.0,0.0,0.0,0.0,0.0,0.0,0.0,0.0,0.0,0.0,0.0,0.0,0.0,0.0,0.0,0.0,0.0,0.0,0.0,0.0,0.0,0.0,0.0,0.0,0.0,0.0,0.0,0.0,0.0,0.0,0.0,0.0,0.0,0.0,0.0,0.0,0.0,0.0,0.0,0.0,0.0,0.0,0.0,0.0,0.0,0.0,0.0,0.0,0.0,0.0,0.0,0.0,0.0,0.0,0.0,0.0,0.0,0.0,0.0,0.0,0.0,0.0,0.0,0.0,0.0,0.0,0.0,0.0,0.0,0.0,0.0,0.0,0.0,0.0,0.0,0.0,0.0,0.0,0.0,0.0,0.0,0.0,0.0,0.0,0.0,0.0,0.0,0.0,0.0,0.0,0.0,0.0,-2.2017,-2.342,-2.3915,-2.4022,-2.3728,-2.3233,-2.2418,-2.1189,0.0,0.0,0.0,0.0,0.0,0.0,0.0,0.0,0.0,0.0,0.0,0.0,0.0,0.0,0.0,0.0,0.0,0.0,0.0,0.0,0.0,0.0,0.0,0.0,0.0,0.0,0.0,0.0,0.0,0.0,0.0,0.0,0.0,0.0,0.0,0.0,0.0,0.0,0.0,0.0,0.0,0.0,0.0,0.0,0.0,0.0,0.0,0.0,0.0,0.0,0.0,0.0,0.0,0.0,0.0,0.0,0.0,0.0,0.0,0.0,0.0,0.0,0.0,0.0,0.0,0.0,0.0,0.0,0.0,0.0,0.0,0.0,0.0,0.0,0.0,0.0,0.0,0.0,0.0,0.0,0.0,0.0,0.0,0.0,0.0,0.0,0.0,0.0,0.0,0.0,0.0,0.0,0.0,0.0,0.0,0.0,0.0,0.0,0.0,0.0,0.0,0.0,0.0,-2.163,-2.2352,-2.3848,-2.3981,-2.3915,-2.3781,-2.306,-2.2124,-2.0949,-2.0722,0.0,0.0,0.0,0.0,0.0,0.0,0.0,0.0,0.0,0.0,0.0,0.0,0.0,0.0,0.0,0.0,0.0,0.0,0.0,0.0,0.0,0.0,0.0,0.0,0.0,0.0,0.0,0.0,0.0,0.0,0.0,0.0,0.0,0.0,0.0,0.0,0.0,0.0,0.0,0.0,0.0,0.0,0.0,0.0,0.0,0.0,0.0,0.0,0.0,0.0,0.0,0.0,0.0,0.0,0.0,0.0,0.0,0.0,0.0,0.0,0.0,0.0,0.0,0.0,0.0,0.0,0.0,0.0,0.0,0.0,0.0,0.0,0.0,0.0,0.0,0.0,0.0,0.0,0.0,0.0,0.0,0.0,0.0,0.0,0.0,0.0,0.0,0.0,0.0,0.0,0.0,0.0,0.0,0.0,0.0,0.0,0.0,0.0,0.0,0.0,0.0,0.0,-2.2325,-2.2846,-2.3981,-2.3968,-2.3821,-2.3674,-2.2832,-2.1844,-2.0748,-2.0334,0.0,0.0,0.0,0.0,0.0,0.0,0.0,0.0,0.0,0.0,0.0,0.0,0.0,0.0,0.0,0.0,0.0,0.0,0.0,0.0,0.0,0.0,0.0,0.0,0.0,0.0,0.0,0.0,0.0,0.0,0.0,0.0,0.0,0.0,0.0,0.0,0.0,0.0,0.0,0.0,0.0,0.0,0.0,0.0,0.0,0.0,0.0,0.0,0.0,0.0,0.0,0.0,0.0,0.0,0.0,0.0,0.0,0.0,0.0,0.0,0.0,0.0,0.0,0.0,0.0,0.0,0.0,0.0,0.0,0.0,0.0,0.0,0.0,0.0,0.0,0.0,0.0,0.0,0.0,0.0,0.0,0.0,0.0,0.0,0.0,0.0,0.0,0.0,0.0,0.0,0.0,0.0,0.0,0.0,0.0,0.0,0.0,0.0,0.0,0.0,0.0,0.0,-2.2874,-2.3688,-2.3794,-2.4022,-2.3955,-2.3407,-2.2539,-2.163,-2.0735,-2.0147,0.0,0.0,0.0,0.0,0.0,0.0,0.0,0.0,0.0,0.0,0.0,0.0,0.0,0.0,0.0,0.0,0.0,0.0,0.0,0.0,0.0,0.0,0.0,0.0,0.0,0.0,0.0,0.0,0.0,0.0,0.0,0.0,0.0,0.0,0.0,0.0,0.0,0.0,0.0,0.0,0.0,0.0,0.0,0.0,0.0,0.0,0.0,0.0,0.0,0.0,0.0,0.0,0.0,0.0,0.0,0.0,0.0,0.0,0.0,0.0,0.0,0.0,0.0,0.0,0.0,0.0,0.0,0.0,0.0,0.0,0.0,0.0,0.0,0.0,0.0,0.0,0.0,0.0,0.0,0.0,0.0,0.0,0.0,0.0,0.0,0.0,0.0,0.0,0.0,0.0,0.0,0.0,0.0,0.0,0.0,0.0,0.0,0.0,0.0,0.0,0.0,0.0,-2.2352,-2.314,-2.3714,-2.3701,-2.3487,-2.3073,-2.2392,-2.1537,-2.0468,0.0,0.0,0.0,0.0,0.0,0.0,0.0,0.0,0.0,0.0,0.0,0.0,0.0,0.0,0.0,0.0,0.0,0.0,0.0,0.0,0.0,0.0,0.0,0.0,0.0,0.0,0.0,0.0,0.0,0.0,0.0,0.0,0.0,0.0,0.0,0.0,0.0,0.0,0.0,0.0,0.0,0.0,0.0,0.0,0.0,0.0,0.0,0.0,0.0,0.0,0.0,0.0,0.0,0.0,0.0,0.0,0.0,0.0,0.0,0.0,0.0,0.0,0.0,0.0,0.0,0.0,0.0,0.0,0.0,0.0,0.0,0.0,0.0,0.0,0.0,0.0,0.0,0.0,0.0,0.0,0.0,0.0,0.0,0.0,0.0,0.0,0.0,0.0,0.0,0.0,0.0,0.0,0.0,0.0,0.0,0.0,0.0,0.0,0.0,0.0,0.0,0.0,-2.1309,-2.2084,-2.2792,-2.342,-2.3394,-2.3166,-2.2752,-2.2178,-2.139,-2.0247,0.0,0.0,0.0,0.0,0.0,0.0,0.0,0.0,0.0,0.0,0.0,0.0,0.0,0.0,0.0,0.0,0.0,0.0,0.0,0.0,0.0,0.0,0.0,0.0,0.0,0.0,0.0,0.0,0.0,0.0,0.0,0.0,0.0,0.0,0.0,0.0,0.0,0.0,0.0,0.0,0.0,0.0,0.0,0.0,0.0,0.0,0.0,0.0,0.0,0.0,0.0,0.0,0.0,0.0,0.0,0.0,0.0,0.0,0.0,0.0,0.0,0.0,0.0,0.0,0.0,0.0,0.0,0.0,0.0,0.0,0.0,0.0,0.0,0.0,0.0,0.0,0.0,0.0,0.0,0.0,0.0,0.0,0.0,0.0,0.0,0.0,0.0,0.0,0.0,0.0,0.0,0.0,0.0,0.0,0.0,0.0,0.0,0.0,0.0,0.0,0.0,0.0,-2.1029,-2.2124,-2.2928,-2.2859,-2.3126,-2.3073,-2.2472,-2.1884,-2.1176,0.0,0.0,0.0,0.0,0.0,0.0,0.0,0.0,0.0,0.0,0.0,0.0,0.0,0.0,0.0,0.0,0.0,0.0,0.0,0.0,0.0,0.0,0.0,0.0,0.0,0.0,0.0,0.0,0.0,0.0,0.0,0.0,0.0,0.0,0.0,0.0,0.0,0.0,0.0,0.0,0.0,0.0,0.0,0.0,0.0,0.0,0.0,0.0,0.0,0.0,0.0,0.0,0.0,0.0,0.0,0.0,0.0,0.0,0.0,0.0,0.0,0.0,0.0,0.0,0.0,0.0,0.0,0.0,0.0,0.0,0.0,0.0,0.0,0.0,0.0,0.0,0.0,0.0,0.0,0.0,0.0,0.0,0.0,0.0,0.0,0.0,0.0,0.0,0.0,0.0,0.0,0.0,0.0,0.0,0.0,0.0,0.0,0.0,0.0,0.0,0.0,0.0,0.0,-2.0748,-2.1643,-2.2325,-2.2525,-2.2445,-2.2311,-2.2124,-2.1764,-2.1082,-2.0,0.0,0.0,0.0,0.0,0.0,0.0,0.0,0.0,0.0,0.0,0.0,0.0,0.0,0.0,0.0,0.0,0.0,0.0,0.0,0.0,0.0,0.0,0.0,0.0,0.0,0.0,0.0,0.0,0.0,0.0,0.0,0.0,0.0,0.0,0.0,0.0,0.0,0.0,0.0,0.0,0.0,0.0,0.0,0.0,0.0,0.0,0.0,0.0,0.0,0.0,0.0,0.0,0.0,0.0,0.0,0.0,0.0,0.0,0.0,0.0,0.0,0.0,0.0,0.0,0.0,0.0,0.0,0.0,0.0,0.0,0.0,0.0,0.0,0.0,0.0,0.0,0.0,0.0,0.0,0.0,0.0,0.0,0.0,0.0,0.0,0.0,0.0,0.0,0.0,0.0,0.0,0.0,0.0,0.0,0.0,0.0,0.0,0.0,0.0,0.0,0.0,0.0,-2.0454,-2.1269,-2.1924,-2.2218,-2.2084,-2.1937,-2.1817,-2.155,-2.0882,-1.9693,0.0,0.0,0.0,0.0,0.0,0.0,0.0,0.0,0.0,0.0,0.0,0.0,0.0,0.0,0.0,0.0,0.0,0.0,0.0,0.0,0.0,0.0,0.0,0.0,0.0,0.0,0.0,0.0,0.0,0.0,0.0,0.0,0.0,0.0,0.0,0.0,0.0,0.0,0.0,0.0,0.0,0.0,0.0,0.0,0.0,0.0,0.0,0.0,0.0,0.0,0.0,0.0,0.0,0.0,0.0,0.0,0.0,0.0,0.0,0.0,0.0,0.0,0.0,0.0,0.0,0.0,0.0,0.0,0.0,0.0,0.0,0.0,0.0,0.0,0.0,0.0,0.0,0.0,0.0,0.0,0.0,0.0,0.0,0.0,0.0,0.0,0.0,0.0,0.0,0.0,0.0,0.0,0.0,0.0,0.0,0.0,0.0,0.0,0.0,0.0,0.0,0.0,-2.016,-2.0975,-2.1695,-2.1911,-2.1924,-2.1804,-2.1641,-2.1283,-2.0615,-1.9497,0.0,0.0,0.0,0.0,0.0,0.0,0.0,0.0,0.0,0.0,0.0,0.0,0.0,0.0,0.0,0.0,0.0,0.0,0.0,0.0,0.0,0.0,0.0,0.0,0.0,0.0,0.0,0.0,0.0,0.0,0.0,0.0,0.0,0.0,0.0,0.0,0.0,0.0,0.0,0.0,0.0,0.0,0.0,0.0,0.0,0.0,0.0,0.0,0.0,0.0,0.0,0.0,0.0,0.0,0.0,0.0,0.0,0.0,0.0,0.0,-1.1002,-1.0812,0.0,0.0,0.0,0.0,0.0,0.0,0.0,0.0,0.0,0.0,0.0,0.0,0.0,0.0,0.0,0.0,0.0,0.0,0.0,0.0,0.0,0.0,0.0,0.0,0.0,0.0,0.0,0.0,0.0,0.0,0.0,0.0,0.0,0.0,0.0,0.0,0.0,0.0,0.0,0.0,-2.016,-2.0802,-2.1309,-2.1681,-2.143,-2.1363,-2.1601,-2.1283,-2.0615,-1.9497,-1.931,0.0,0.0,0.0,0.0,0.0,0.0,0.0,0.0,0.0,0.0,0.0,0.0,0.0,0.0,0.0,0.0,0.0,0.0,0.0,0.0,0.0,0.0,0.0,0.0,0.0,0.0,0.0,0.0,0.0,0.0,0.0,0.0,0.0,0.0,0.0,0.0,0.0,0.0,0.0,0.0,0.0,0.0,0.0,0.0,0.0,0.0,0.0,0.0,0.0,0.0,0.0,0.0,0.0,0.0,0.0,0.0,0.0,0.0,0.0,-1.126,-1.1077,0.0,0.0,0.0,0.0,0.0,0.0,0.0,0.0,0.0,0.0,0.0,0.0,0.0,0.0,0.0,0.0,0.0,0.0,0.0,0.0,0.0,0.0,0.0,0.0,0.0,0.0,0.0,0.0,0.0,0.0,0.0,0.0,0.0,0.0,0.0,0.0,0.0,0.0,0.0,0.0,-1.9973,-2.0655,-2.1162,-2.1323,-2.1203,-2.1176,-2.1323,-2.1069,-2.0588,-1.9826,-1.9386,0.0,0.0,0.0,0.0,0.0,0.0,0.0,0.0,0.0,0.0,0.0,0.0,0.0,0.0,0.0,0.0,0.0,0.0,0.0,0.0,0.0,0.0,0.0,0.0,0.0,0.0,0.0,0.0,0.0,0.0,0.0,0.0,0.0,0.0,0.0,0.0,0.0,0.0,0.0,0.0,0.0,0.0,0.0,0.0,0.0,0.0,0.0,0.0,0.0,0.0,0.0,0.0,0.0,-1.1586,-1.1599,-1.1694,-1.1565,-1.1592,-1.1728,-1.1599,-1.143,-1.124,-1.124,0.0,0.0,0.0,0.0,0.0,0.0,0.0,0.0,0.0,0.0,0.0,0.0,0.0,0.0,0.0,0.0,0.0,0.0,0.0,0.0,0.0,0.0,-2.2346,-2.2343,-2.2352,-2.2029,-2.0962,0.0,0.0,0.0,0.0,0.0,0.0,0.0,0.0,0.0,0.0,0.0,-1.984,-2.0601,-2.1109,-2.1109,-2.1109,-2.1109,-2.1109,-2.0895,-2.0601,-2.0193,-1.9506,-1.8758,0.0,0.0,0.0,0.0,0.0,0.0,0.0,0.0,0.0,0.0,0.0,0.0,0.0,0.0,0.0,0.0,0.0,0.0,0.0,0.0,0.0,0.0,0.0,0.0,0.0,0.0,0.0,0.0,0.0,0.0,0.0,0.0,-0.3697,-0.4147,0.0,0.0,0.0,0.0,0.0,0.0,0.0,0.0,0.0,0.0,0.0,0.0,0.0,-1.2316,-1.1592,-1.1864,-1.1938,-1.1809,-1.2054,-1.2115,-1.2006,-1.206,-1.2054,-1.2203,-1.2182,0.0,-1.1558,-1.1558,0.0,0.0,0.0,0.0,0.0,0.0,0.0,0.0,0.0,0.0,0.0,0.0,0.0,0.0,0.0,0.0,0.0,0.0,0.0,0.0,0.0,0.0,-2.297,-2.2988,-2.2956,-2.2831,-2.2386,-2.1204,-1.9983,-1.9082,-1.8891,-1.8771,0.0,0.0,0.0,0.0,0.0,0.0,-2.0134,-2.0722,-2.1109,-2.1109,-2.1109,-2.1109,-2.1109,-2.1069,-2.0815,-2.0267,-1.9893,-1.9185,-1.8035,-1.7435,0.0,0.0,0.0,0.0,0.0,0.0,0.0,0.0,0.0,0.0,0.0,0.0,0.0,0.0,0.0,0.0,0.0,0.0,0.0,0.0,0.0,0.0,0.0,0.0,0.0,0.0,0.0,0.0,0.0,-0.3489,-0.4047,-0.43,-0.4283,-0.4267,0.0,0.0,0.0,0.0,0.0,0.0,0.0,0.0,0.0,-0.8972,-1.1534,-1.2674,-1.2244,-1.2461,-1.2488,-1.2338,-1.2562,-1.2542,-1.2311,-1.24,-1.2427,-1.2406,-1.2406,-1.2298,-1.2094,-1.1843,-1.1613,-1.1396,0.0,0.0,0.0,0.0,-1.127,-1.1665,-1.0999,-1.1304,-1.1873,-1.208,0.0,0.0,0.0,0.0,0.0,0.0,0.0,-2.1622,-2.2162,-2.2692,-2.3106,-2.3106,-2.3106,-2.2981,-2.2668,-2.2105,-2.1376,-2.0644,-2.0187,-1.9798,-1.9337,-1.9155,0.0,0.0,0.0,-2.0147,-2.0441,-2.0842,-2.1109,-2.1109,-2.1109,-2.1109,-2.1109,-2.1109,-2.1002,-2.0735,-2.0294,-1.9733,-1.9065,-1.8143,-1.7301,0.0,0.0,0.0,0.0,0.0,0.0,0.0,0.0,0.0,0.0,0.0,0.0,0.0,0.0,0.0,0.0,0.0,0.0,0.0,0.0,0.0,0.0,0.0,0.0,0.0,0.0,0.0,0.0,-0.3791,-0.4335,-0.4352,-0.4379,-0.4387,0.0,0.0,0.0,0.0,0.0,0.0,-0.4211,-0.6966,-0.8493,-0.8269,-1.1077,-1.2671,-1.2786,-1.2901,-1.2901,-1.2793,-1.2868,-1.2779,-1.2562,-1.2637,-1.261,-1.2501,-1.2501,-1.2501,-1.2474,-1.2101,-1.1837,-1.1647,-1.1382,-1.1233,-1.1234,-1.1234,-1.1234,-1.1234,-1.1234,-1.1234,-1.1262,-1.1042,-1.1593,-1.2563,-1.3715,0.0,0.0,0.0,0.0,-2.1451,-2.2173,-2.2731,-2.3106,-2.3106,-2.3106,-2.3043,-2.2793,-2.2731,-2.252,-2.1835,-2.123,-2.0657,-2.0209,-1.9821,0.0,-1.9586,-2.0027,-2.0428,-2.0641,-2.0922,-2.1109,-2.1109,-2.1109,-2.1109,-2.1109,-2.1109,-2.1082,-2.1002,-2.0521,-2.0067,-1.9706,-1.8704,-1.7769,-1.6941,0.0,0.0,0.0,0.0,0.0,0.0,0.0,0.0,0.0,0.0,0.0,0.0,0.0,0.0,0.0,0.0,0.0,0.0,0.0,0.0,0.0,0.0,0.0,0.0,0.0,0.0,0.0,0.0,0.0,-0.4466,-0.4575,0.0,0.0,0.0,0.0,-0.4651,-0.4766,-0.4783,-0.4842,-0.6673,-0.8023,-0.8902,-1.0685,-1.2128,-1.2949,-1.2956,-1.2956,-1.2949,-1.2807,-1.2732,-1.2712,-1.2576,-1.2508,-1.2501,-1.2501,-1.2501,-1.2488,-1.2332,-1.2088,-1.1809,-1.1653,-1.1416,-1.1234,-1.1234,-1.1234,-1.1234,-1.1234,-1.1441,-1.1641,-1.1627,-1.2178,-1.2998,-1.4116,-1.6211,0.0,0.0,-2.1804,-2.2966,-2.3043,-2.3043,-2.3106,-2.3106,-2.3106,-2.3106,-2.3106,-2.3043,-2.2831,-2.1897,-2.1396,-2.104,-2.0725,0.0,-2.0187,-2.0187,-2.0454,-2.0655,-2.0668,-2.0922,-2.1109,-2.1109,-2.1109,-2.1109,-2.1109,-2.1109,-2.0989,-2.0722,-2.0401,-1.9987,-1.9412,-1.8798,-1.817,-1.7555,-1.6941,0.0,0.0,0.0,0.0,0.0,0.0,0.0,0.0,0.0,0.0,0.0,0.0,0.0,0.0,0.0,0.0,0.0,0.0,0.0,0.0,0.0,0.0,0.0,0.0,0.0,0.0,0.0,0.0,-0.4591,-0.4706,0.0,-0.461,-0.4689,-0.4774,-0.4834,-0.4913,-0.4769,-0.4307,-0.5988,-0.7417,-0.831,-1.0362,-1.2074,-1.3247,-1.3575,-1.352,-1.3098,-1.3139,-1.301,-1.2732,-1.2779,-1.2691,-1.2501,-1.2501,-1.2501,-1.2488,-1.2345,-1.2169,-1.1965,-1.1816,-1.1633,-1.147,-1.1558,-1.1538,-1.1457,-1.1457,-1.1459,-1.1483,-1.1289,-1.1911,-1.2849,-1.3297,-1.5623,-1.8317,-1.9297,-2.0989,-2.2543,-2.2981,-2.3106,-2.3106,-2.3106,-2.3106,-2.3106,-2.3106,-2.3106,-2.3014,-2.2649,-2.2137,-2.1666,-2.1422,-2.1039,-2.0735,-2.0548,-2.0762,-2.0949,-2.0949,-2.1042,-2.1109,-2.1109,-2.1109,-2.1109,-2.1109,-2.0935,-2.0708,-2.0414,-1.9947,-1.9492,-1.9092,-1.8517,-1.8009,-1.7595,-1.7007,-1.6326,0.0,0.0,0.0,0.0,0.0,0.0,0.0,0.0,0.0,0.0,0.0,0.0,0.0,0.0,0.0,0.0,0.0,0.0,0.0,0.0,0.0,0.0,0.0,0.0,0.0,-0.4293,-0.4635,-0.4717,-0.4831,-0.4867,-0.4766,-0.4864,-0.4951,-0.4992,-0.491,-0.4746,-0.4413,-0.5369,-0.6808,-0.8623,-1.0009,-1.1635,-1.3652,-1.3818,-1.3679,-1.3247,-1.3302,-1.3146,-1.2807,-1.2861,-1.2745,-1.2501,-1.2501,-1.2501,-1.2488,-1.2291,-1.2155,-1.2047,-1.1891,-1.1742,-1.1633,-1.1728,-1.1701,-1.1613,-1.1558,-1.1409,-1.1206,-1.0941,-1.1442,-1.2231,-1.2947,-1.4958,-1.7291,-1.8896,-2.05,-2.1978,-2.2856,-2.3106,-2.3106,-2.3106,-2.3106,-2.3106,-2.3106,-2.3106,-2.3106,-2.3106,-2.2668,-2.2173,-2.19,-2.154,-2.1168,-2.0855,-2.0989,-2.1109,-2.1109,-2.1109,-2.1109,-2.1109,-2.1109,-2.1109,-2.1109,-2.0748,-2.0441,-2.018,-1.9693,-1.9279,-1.9078,-1.8504,-1.8103,-1.7889,-1.7114,-1.642,-1.5832,0.0,0.0,0.0,0.0,0.0,0.0,0.0,0.0,0.0,0.0,0.0,0.0,0.0,0.0,0.0,0.0,0.0,0.0,0.0,0.0,0.0,0.0,0.0,-0.4,-0.4379,-0.4717,-0.4761,-0.4954,-0.5006,-0.4951,-0.5049,-0.5117,-0.5117,-0.4819,-0.4796,-0.5297,-0.4932,-0.6382,-0.9976,-0.9726,-1.0976,-1.4066,-1.3652,-1.3397,-1.3397,-1.3247,-1.3105,-1.2956,-1.2807,-1.2651,-1.2501,-1.2501,-1.2501,-1.2481,-1.2189,-1.2067,-1.2047,-1.1891,-1.1742,-1.1619,-1.1626,-1.1619,-1.1592,-1.1436,-1.1192,-1.088,-1.0873,-1.0839,-1.1115,-1.3218,-1.4315,-1.5599,-1.9036,-2.0449,-2.1335,-2.2668,-2.3043,-2.3043,-2.3106,-2.3106,-2.3106,-2.3106,-2.3106,-2.3106,-2.3106,-2.2856,-2.248,-2.2167,-2.179,-2.1488,-2.1172,-2.1109,0.0,-2.1109,-2.1109,-2.1109,-2.1109,-2.1109,-2.1109,-2.1109,-2.0575,-2.0227,-2.0214,-1.9679,-1.9403,-1.9345,-1.8798,-1.849,-1.8477,-1.7315,-1.6727,-1.6714,0.0,0.0,0.0,0.0,0.0,0.0,0.0,0.0,0.0,0.0,0.0,0.0,0.0,0.0,0.0,0.0,0.0,0.0,0.0,0.0,0.0,-0.4226,-0.4409,-0.4409,-0.4657,-0.4888,-0.4965,-0.5079,-0.5147,-0.5131,-0.5199,-0.5243,-0.5243,-0.5193,-0.5062,-0.4853,-0.6035,-0.7547,-0.955,-1.1048,-1.2548,-1.4066,-1.4225,-1.4059,-1.3403,-1.3356,-1.3207,-1.3043,-1.2915,-1.2752,-1.2501,-1.2501,-1.2501,-1.2488,-1.2305,-1.2162,-1.2047,-1.1891,-1.1742,-1.1633,-1.1735,-1.164,-1.143,-1.128,-1.1104,-1.086,-1.0819,-1.0758,-1.0916,-1.2041,-1.353,-1.5209,-1.6646,-1.8256,-1.9928,-2.1272,-2.165,-2.1902,-2.2856,-2.3106,-2.3106,-2.3106,-2.3106,-2.3106,-2.3106,-2.3043,-2.2793,-2.2167,-2.179,-2.1488,-2.1172,-2.1109,-2.1109,-2.1109,-2.1109,-2.1109,-2.1109,-2.1109,-2.1109,-2.1109,-2.0575,-2.0147,-1.9933,-1.9372,-1.8958,-1.8744,-1.8584,-1.8397,-1.8115,-1.7422,-1.7072,0.0,0.0,0.0,0.0,0.0,0.0,0.0,0.0,0.0,0.0,0.0,0.0,0.0,0.0,0.0,0.0,0.0,0.0,0.0,0.0,0.0,0.0,-0.4434,-0.4668,-0.4719,-0.4848,-0.4976,-0.5085,-0.5158,-0.5224,-0.5273,-0.5311,-0.5333,-0.5333,-0.5164,-0.5013,-0.4962,-0.6546,-0.8211,-0.9878,-1.1706,-1.3211,-1.4307,-1.439,-1.4059,-1.3403,-1.3403,-1.3247,-1.2963,-1.2963,-1.2793,-1.2501,-1.2501,-1.2501,-1.2488,-1.2277,-1.2142,-1.2047,0.0,0.0,0.0,0.0,-1.1552,-1.128,-1.1261,-1.1023,-1.0772,-1.0751,-1.0717,-1.085,-1.1578,-1.2626,-1.3857,-1.5154,-1.6581,-1.7999,-1.947,-2.0436,-2.1335,-2.209,-2.2668,-2.3106,-2.3106,-2.3106,-2.3106,-2.3106,-2.3106,0.0,-2.2418,-2.2041,-2.1677,-2.1362,-2.1172,-2.1109,-2.1109,-2.1109,-2.1109,-2.1109,-2.1109,-2.1109,-2.1109,-2.0575,0.0,0.0,0.0,-1.8971,-1.8691,-1.8677,0.0,0.0,0.0,0.0,0.0,-1.7435,0.0,0.0,-1.7622,-1.7675,0.0,0.0,0.0,0.0,0.0,0.0,0.0,0.0,0.0,0.0,0.0,0.0,0.0,0.0,0.0,0.0,-0.4543,-0.4812,-0.4921,-0.4948,-0.5016,-0.5183,-0.521,-0.5259,-0.5373,-0.5384,-0.5384,-0.5384,-0.5046,-0.4962,-0.5384,-0.6881,0.0,0.0,0.0,-1.3549,-1.4713,-1.4307,-1.3901,-1.3403,-1.3403,-1.3247,-1.2963,-1.2963,-1.2793,-1.2501,-1.2501,-1.2494,-1.2461,-1.2196,-1.2067,-1.202,-1.1864,-1.1728,-1.1619,-1.1599,-1.1409,-1.1227,-1.1145,0.0,0.0,-1.0717,-1.0717,-1.085,-1.1578,-1.1776,-1.2165,-1.411,-1.5089,-1.5869,-1.7409,-1.9139,-2.0626,-2.1019,-2.2027,-2.2918,-2.3043,-2.3106,-2.3106,-2.3106,-2.3106,-2.2981,-2.2731,-2.2355,-2.1992,-2.1677,-2.1299,-2.1109,-2.1109,-2.1109,-2.1109,-2.1109,-2.1109,0.0,-2.1109,-2.0575,-2.0167,-2.0167,-1.9693,-1.9252,-1.8985,-1.8971,-1.8838,-1.8544,-1.8544,-1.8651,-1.8878,-1.8624,-1.8504,-1.8517,-1.7422,-1.7328,0.0,0.0,0.0,0.0,0.0,0.0,0.0,0.0,0.0,0.0,0.0,0.0,0.0,0.0,0.0,-0.4498,-0.4683,-0.491,-0.4932,-0.5016,-0.5109,-0.5194,-0.5245,-0.5305,-0.5376,-0.5384,-0.5384,-0.5384,-0.53,-0.53,-0.5384,-0.8382,-1.0294,-1.071,-1.3459,-1.4796,-1.4713,-1.4307,-1.3901,-1.3403,-1.3403,0.0,-1.2963,-1.2963,-1.2793,-1.2501,-1.2501,-1.2433,-1.2325,-1.2271,-1.2101,-1.1864,-1.1714,-1.1647,-1.1606,-1.1484,-1.1321,-1.1145,-1.1029,-1.0873,-1.0717,-1.0717,-1.0717,-1.085,-1.1578,-1.1776,0.0,-1.2947,-1.3276,-1.3857,-1.5804,-1.6581,-1.7613,-2.0436,-2.1335,-2.1776,-2.2856,-2.3106,-2.3106,-2.3106,-2.3106,-2.3106,-2.2981,-2.248,-2.1992,-2.1677,-2.1299,-2.1109,-2.1109,-2.1109,-2.1109,-2.1109,-2.1109,-2.1109,-2.1109,-2.0575,-2.0167,-2.0167,-1.9693,-1.9345,-1.9279,-1.9279,-1.9145,-1.8838,-1.8838,-1.8758,-1.8571,-1.8517,-1.8611,-1.8824,-1.8357,-1.8237,0.0,0.0,0.0,0.0,0.0,0.0,0.0,0.0,0.0,0.0,0.0,-0.3171,-0.3939,0.0,-0.4213,-0.4667,-0.488,-0.4989,-0.5019,-0.5128,-0.5202,-0.5202,-0.5256,-0.5316,-0.5379,-0.5384,-0.5384,-0.5384,-0.5412,-0.5837,-0.6637,-0.9263,-1.1026,-1.1712,-1.4128,-1.5051,-1.439,-1.4232,-1.3901,-1.3403,-1.3403,-1.3247,-1.2963,-1.2963,-1.2793,-1.2501,-1.2501,-1.242,-1.2277,-1.2121,-1.1925,-1.1714,-1.1647,-1.1572,-1.1497,-1.1416,-1.1246,-1.1043,-1.0907,-1.0779,-1.0717,-1.0717,-1.0717,-1.0784,-1.1115,-1.1247,-1.1314,-1.1637,-1.2033,-1.2626,-1.3988,-1.5098,-1.6581,-1.9419,-2.0563,-2.1461,-2.2793,-2.3106,-2.3106,-2.3106,-2.3106,-2.3043,-2.2856,-2.2418,-2.2041,-2.1866,-2.1425,-2.1109,-2.1109,-2.1109,-2.1109,-2.1109,-2.1109,-2.1056,-2.0909,-2.0347,-2.0013,-2.0013,-1.9613,-1.943,-1.943,-1.943,-1.9292,-1.9145,-1.9145,-1.9078,-1.8931,-1.8784,-1.8784,-1.8918,-1.8624,-1.8571,0.0,0.0,0.0,0.0,0.0,0.0,0.0,-0.2982,-0.2986,-0.3035,-0.2991,-0.3094,-0.3877,-0.4165,-0.4407,-0.4852,-0.5,-0.506,-0.512,-0.5224,-0.5275,-0.5226,-0.5273,-0.533,-0.5379,-0.5384,-0.539,-0.5401,-0.5436,-0.6199,-0.7913,-0.9726,-1.1316,-1.2637,-1.43,-1.4811,-1.4066,-1.3983,-1.3735,-1.3403,-1.337,-1.322,-1.3043,-1.2929,-1.2766,-1.2501,-1.244,-1.2352,-1.2223,-1.1918,-1.1721,-1.1619,-1.1619,-1.1525,-1.1389,-1.1355,-1.1179,-1.088,-1.0847,-1.0759,-1.0717,-1.0717,-1.0717,-1.0717,-1.0717,-1.0717,-1.0717,-1.0717,-1.1115,-1.1776,-1.2618,-1.4054,-1.5869,-1.8075,-1.9483,-2.0753,-2.2341,-2.2731,-2.2793,-2.3043,-2.3106,-2.2981,-2.2668,-2.2292,-2.2104,-2.1978,-2.1488,-2.1109,-2.1109,-2.1109,-2.1109,-2.1109,-2.1056,-2.0882,-2.0535,-2.008,-1.9773,-1.972,-1.9492,-1.943,-1.943,-1.943,-1.943,-1.943,-1.943,-1.943,-1.943,-1.9065,-1.8958,-1.8998,-1.8718,-1.8704,-0.3018,-0.3271,-0.3289,-0.3076,-0.2804,-0.2734,0.0,-0.2728,-0.248,-0.3239,-0.3399,-0.3615,-0.3992,-0.4565,-0.4909,-0.5008,-0.5063,-0.5123,-0.5183,-0.5251,-0.5292,-0.5283,-0.5338,-0.5376,-0.5384,-0.5384,-0.5406,-0.5461,-0.5422,-0.6171,-0.7997,-0.945,-1.0987,-1.2637,-1.3728,-1.4232,-1.4066,-1.3652,-1.3486,-1.3397,-1.3261,-1.3112,-1.2956,-1.282,-1.2664,-1.2488,-1.2223,-1.2176,-1.206,-1.1769,-1.1633,-1.1619,-1.1619,-1.1525,-1.1375,-1.124,-1.1084,-1.086,-1.0792,-1.0731,-1.0717,-1.0717,-1.0717,-1.0717,-1.0717,-1.0717,-1.0717,-1.0717,-1.0784,-1.1115,-1.2487,-1.2947,-1.3857,-1.6581,-1.7356,-1.8192,-2.0753,-2.1335,-2.165,-2.2856,-2.3106,-2.2981,-2.2668,-2.2292,-2.1978,-2.1677,-2.1362,-2.1109,-2.1109,-2.1109,-2.1109,-2.1109,-2.0882,-2.0508,-1.9947,-1.984,-1.9693,-1.9439,-1.9444,-1.943,-1.943,-1.943,-1.943,-1.943,-1.943,-1.943,-1.943,-1.9065,-1.9065,-1.9319,-1.9011,-1.8891,-0.2839,-0.3081,-0.3186,-0.2869,-0.2916,-0.2892,-0.2738,-0.2574,-0.2616,-0.2737,-0.2805,-0.3012,-0.3414,-0.3968,-0.444,-0.468,-0.4995,-0.5226,-0.5254,-0.5308,-0.5346,-0.5346,-0.5368,-0.5384,-0.5384,-0.5384,-0.5395,-0.542,-0.6359,-0.7704,-0.9529,-1.0897,-1.2387,-1.3804,-1.4059,-1.3983,-1.3735,-1.3486,-1.3356,-1.3268,-1.32,-1.3051,-1.2827,-1.2759,-1.2603,-1.2366,-1.2155,-1.2013,-1.1911,-1.1701,-1.1619,-1.1619,-1.1619,-1.1525,-1.1369,-1.1219,-1.107,-1.086,-1.0772,-1.0717,-1.0717,-1.0717,-1.0717,-1.0717,-1.0717,-1.0717,-1.0717,-1.0717,-1.0717,-1.0916,-1.1967,-1.2495,-1.3399,-1.5804,-1.6721,-1.756,-1.9483,-1.9865,-2.0055,-2.0626,-2.069,-2.0563,-1.9979,-1.9801,-1.9546,-1.8972,-2.0195,-2.1109,-2.1109,-2.1109,-2.1042,-2.0869,-2.0441,-2.0067,-1.9826,-1.9639,-1.92,-1.8357,-1.901,-1.9068,-1.8344,-1.901,-1.943,-1.943,-1.943,-1.943,-1.943,-1.9239,-1.9239,-1.9417,-1.9239,-1.8769,-0.2432,-0.2753,-0.2873,-0.261,-0.2798,-0.2836,-0.2362,-0.2477,-0.2599,-0.235,-0.2474,-0.2675,-0.3017,-0.3557,-0.4016,-0.4498,-0.4819,-0.5132,-0.5316,-0.5343,-0.536,-0.536,-0.536,-0.536,-0.536,-0.5373,-0.5392,-0.5409,-0.7032,-0.8888,-1.0592,-1.1909,-1.3248,-1.4638,-1.4142,-1.3735,-1.3403,-1.3356,-1.3281,-1.3173,-1.3091,-1.2935,-1.2725,-1.2684,-1.2528,-1.2284,-1.2128,-1.1972,-1.1823,-1.1681,-1.1619,-1.1619,-1.1619,-1.1552,-1.143,-1.1233,-1.107,-1.086,-1.0772,-1.0717,-1.0717,-1.0717,-1.0717,-1.0717,-1.0717,-1.0717,-1.0717,-1.0717,-1.0717,-1.085,-1.1578,-1.2173,-1.2947,-1.4642,-1.5414,-1.6193,-1.7613,-1.7999,-1.8256,-1.864,-1.8844,-1.878,-1.8139,-1.8011,-1.7753,-1.7109,-1.8716,-2.0068,-2.0462,-2.0777,-2.0842,-2.0481,-2.0054,-1.9641,-1.9194,-1.8998,-1.8357,-1.7044,-1.8169,-1.8473,-1.7513,-1.8706,-1.943,-1.943,-1.943,-1.943,-1.943,-1.943,-1.943,-1.9372,-1.9068,-1.8402,-0.2102,-0.2322,-0.2578,-0.2281,-0.22,-0.2252,-0.2281,-0.2311,-0.2349,-0.2409,-0.2751,-0.3096,-0.313,-0.352,-0.4063,-0.4548,-0.4595,-0.4814,-0.529,-0.5333,-0.5297,-0.5297,-0.5297,-0.5297,-0.5297,-0.5349,-0.5409,-0.5469,-0.7014,-0.8844,-1.0709,-1.1622,-1.2886,-1.4631,-1.3894,-1.3403,-1.3403,-1.3254,-1.318,-1.3166,-1.2881,-1.2739,-1.2725,-1.2576,-1.2427,-1.2284,-1.2128,-1.1972,-1.1823,-1.1681,-1.1619,-1.1619,-1.1619,-1.1613,-1.1572,-1.1274,-1.107,-1.086,-1.0772,-1.0717,-1.0717,-1.0717,-1.0717,-1.0717,-1.0717,-1.0717,-1.0717,-1.0717,-1.0717,-1.085,-1.1578,-1.185,-1.2041,-1.2684,-1.2882,-1.3333,-1.4688,-1.5544,-1.6387,-1.7784,-1.8576,-1.878,-1.8139,-1.8011,-1.7753,-1.7109,-1.7044,-1.7625,-1.8908,-2.0028,-2.0468,-1.9893,-1.9813,-1.9194,-1.7726,-1.7572,-1.6985,-1.5747,-1.6868,-1.7513,-1.7513,-1.8706,-1.943,-1.943,-1.943,-1.943,-1.943,-1.943,-1.943,-1.9372,-1.811,-1.7513,-0.2432,-0.3316,-0.416,-0.4121,-0.4896,-0.5686,-0.5473,-0.5433,-0.5405,-0.5425,-0.475,-0.4192,-0.4132,-0.3776,-0.3456,-0.3617,-0.4003,-0.4401,-0.487,-0.4947,-0.5018,-0.5354,-0.5354,-0.5852,-0.7013,-0.6038,-0.5894,-0.7091,-0.8571,-1.0153,-1.1945,-1.2919,-1.3728,-1.4315,-1.3735,-1.3403,-1.3403,-1.3247,-1.3125,-1.303,-1.2725,-1.2576,-1.2576,-1.2427,-1.2277,-1.2128,-1.1979,-1.1823,-1.1687,-1.164,-1.1619,-1.1619,-1.1619,-1.1558,-1.1443,-1.124,-1.107,-1.086,-1.0772,-1.0717,-1.0717,-1.0717,-1.0717,-1.0717,-1.0717,-1.0717,-1.0717,-1.0717,-1.0717,-1.0784,-1.0982,-1.1446,-1.1843,-1.2107,-1.2495,-1.2947,-1.3399,-1.3661,-1.4119,-1.5098,-1.5489,-1.5619,-1.5629,-1.5434,-1.5359,-1.5554,-1.6398,-1.7108,-1.7453,-1.7656,-1.7626,-1.7288,-1.672,-1.6157,-1.5596,-1.5171,-1.4579,-1.3715,-1.4886,-1.5784,-1.622,-1.7455,-1.8532,-1.9359,-1.943,-1.943,-1.943,-1.8532,-1.8169,-1.811,-1.6809,-1.5806,-0.3276,-0.4434,-0.5612,-0.573,-0.6516,-0.722,-0.7022,-0.697,-0.6994,-0.7011,-0.6188,-0.5559,-0.5585,-0.5026,-0.4505,-0.4305,-0.4543,-0.5039,-0.5619,-0.5778,-0.6177,-0.6929,-0.7176,-0.7671,-0.8829,-0.7837,-0.7686,-0.8878,-1.0221,-1.1552,-1.2637,-1.3562,-1.4066,-1.4066,-1.3597,-1.3322,-1.3322,-1.3119,-1.2942,-1.2793,-1.2596,-1.2474,-1.242,-1.2332,-1.2176,-1.1972,-1.187,-1.1748,-1.1619,-1.1619,-1.1619,-1.1613,-1.1558,-1.1477,-1.1369,-1.1165,-1.1029,-1.086,-1.0772,-1.0717,-1.0717,-1.0717,-1.0717,-1.0717,-1.0717,-1.0717,-1.0717,-1.0717,-1.0717,-1.0717,-1.0717,-1.1049,-1.138,-1.138,-1.1769,-1.2033,-1.2033,-1.2231,-1.2626,-1.335,-1.3744,-1.4006,-1.4342,-1.3818,-1.3416,-1.3735,-1.4315,-1.5177,-1.6402,-1.6417,-1.6078,-1.5576,-1.4968,-1.4341,-1.3627,-1.315,-1.268,-1.2037,-1.3228,-1.4421,-1.5569,-1.6397,-1.7396,-1.8706,-1.8706,-1.848,-1.7902,-1.764,-1.7231,-1.6669,-1.5467,-1.45,-0.4557,-0.5644,-0.6783,-0.6989,-0.7061,-0.7157,-0.7238,-0.7259,-0.7208,-0.7223,-0.7162,-0.7117,-0.7199,-0.7145,-0.6884,-0.6339,-0.6354,-0.6625,-0.7361,-0.7813,-0.8579,-0.9815,-1.0378,-1.0618,-1.0699,-1.0623,-1.0672,-1.0948,-1.2038,-1.2714,-1.2803,-1.3562,-1.4066,-1.4059,-1.3493,-1.3166,-1.3159,-1.2874,-1.2651,-1.2501,-1.2501,-1.2427,-1.2291,-1.2284,-1.2115,-1.183,-1.1823,-1.1742,-1.1619,-1.1619,-1.1619,-1.1606,-1.145,-1.1389,-1.1348,-1.0988,-1.0873,-1.0847,-1.0772,-1.0717,-1.0717,-1.0717,-1.0717,-1.0717,-1.0717,-1.0717,-1.0717,-1.0717,-1.0717,-1.0717,-1.0717,-1.0717,-1.0717,-1.0717,-1.0717,-1.0717,-1.0717,-1.1247,-1.1909,-1.2618,-1.335,-1.4006,-1.4277,-1.3227,-1.2173,-1.1776,-1.1115,-1.1969,-1.5566,-1.6011,-1.5575,-1.4451,-1.4341,-1.3567,-1.1727,-1.1555,-1.1374,-1.0906,-1.1924,-1.3476,-1.551,-1.551,-1.6031,-1.7313,-1.7313,-1.6599,-1.5182,-1.6588,-1.6529,-1.5145,-1.4084,-1.3596,-0.6092,-0.7269,-0.8405,-0.857,-0.9538,-1.0413,-1.0449,-1.0455,-1.0431,-1.0292,-0.9341,-0.8535,-0.8414,-0.7606,-0.7006,-0.703,-0.7239,-0.7681,-0.8273,-0.8777,-0.9262,-1.0014,-1.0423,-1.1163,-1.2573,-1.2332,-1.2675,-1.4128,-1.287,-1.2535,-1.3638,-1.3652,-1.3514,-1.3398,-1.3275,-1.3119,-1.3017,-1.2827,-1.2651,-1.2501,-1.2501,-1.2427,-1.2284,-1.2176,-1.2013,-1.1823,-1.1721,-1.1653,-1.1619,-1.1619,-1.1619,-1.1606,-1.145,-1.1321,-1.1199,-1.1016,-1.0806,-1.0772,-1.0731,-1.0717,-1.0717,-1.0717,-1.0717,-1.0717,-1.0717,-1.0717,-1.0717,-1.0717,-1.0717,-1.0717,-1.0717,-1.0717,-1.0717,-1.0717,-1.0717,-1.0717,-1.0717,-1.085,-1.1181,-1.1909,-1.3021,-1.3744,-1.3276,-1.2882,-1.2297,-1.1181,-1.085,-1.0995,-1.1751,-1.183,-1.1635,-1.1111,-1.0589,-1.0112,-0.9572,-0.9511,-1.0112,-1.1374,-1.1322,-1.2586,-1.5451,-1.4192,-1.3995,-1.5173,-1.4676,-1.4215,-1.3841,-1.3662,-1.3461,-1.3217,-1.241,-1.2116,-0.7741,-0.889,-1.0104,-1.0232,-1.0902,-1.1599,-1.1538,-1.1518,-1.1497,-1.1409,-1.0626,-0.98,-0.9084,-0.8388,-0.7572,-0.66,-0.6655,-0.7256,-0.8536,-0.9105,-1.0049,-1.1641,-1.2216,-1.288,-1.388,-1.3659,-1.387,-1.4616,-1.3528,-1.3226,-1.4066,-1.3652,-1.3329,-1.318,-1.3112,-1.2976,-1.2759,-1.2671,-1.2583,-1.2501,-1.2501,-1.2393,-1.2189,-1.2101,-1.1945,-1.1735,-1.1653,-1.1619,-1.1619,-1.1619,-1.1619,-1.1606,-1.145,-1.1301,-1.1214,-1.1002,-1.0853,-1.0717,-1.0717,-1.0717,-1.0717,-1.0717,-1.0717,-1.0717,-1.0717,-1.0717,-1.0717,-1.0717,-1.0717,-1.0717,-1.0717,-1.0717,-1.0717,-1.0717,-1.0717,-1.0717,-1.0717,-1.0717,-1.0916,-1.1652,-1.2692,-1.3218,-1.2495,-1.2091,-1.1497,-1.0445,-0.9987,-0.9689,-0.941,-0.9945,-1.0085,-0.9429,-0.9037,-0.8665,-0.8421,-0.8421,-0.8964,-1.0354,-1.0119,-1.114,-1.3775,-1.2277,-1.1945,-1.3101,-1.2732,-1.2191,-1.1475,-1.1951,-1.1989,-1.1537,-1.151,-1.1598,-0.9403,-1.0459,-1.143,-1.1579,-1.1619,-1.1579,-1.1423,-1.1375,-1.1348,-1.1307,-1.1212,-1.0813,-0.9561,-0.9431,-0.8734,-0.6586,-0.6169,-0.6832,-0.902,-0.9482,-1.0798,-1.3735,-1.4473,-1.4713,-1.4713,-1.4512,-1.426,-1.3824,-1.3877,-1.3941,-1.3927,-1.359,-1.3275,-1.3119,-1.2976,-1.2773,-1.2501,-1.2501,-1.2501,-1.2501,-1.2501,-1.2345,-1.2135,-1.2135,-1.1898,-1.1619,-1.1619,-1.1619,-1.1619,-1.1619,-1.1619,-1.1599,-1.143,-1.128,-1.1145,-1.0982,-1.0766,-1.0717,-1.0717,-1.0717,-1.0717,-1.0717,-1.0717,-1.0717,-1.0717,-1.0717,-1.0717,-1.0717,-1.0717,-1.0717,-1.0717,-1.0717,-1.0717,-1.0717,-1.0717,-1.0717,-1.0717,-1.0717,-1.0916,-1.1652,-1.2297,-1.2429,-1.1776,-1.1108,-1.0439,-0.9649,-0.8984,-0.8508,-0.8285,-0.9264,-0.9645,-0.8757,-0.8665,-0.8482,-0.7933,-0.7994,-0.8299,-0.9031,-0.897,-0.9754,-1.1615,-1.0415,-1.0102,-1.1114,-1.1047,-1.0317,-0.8957,-1.0898,-1.1273,-1.0222,-1.1075,-1.1598,-1.0984,-1.1177,-1.143,-1.1579,-1.1619,-1.1579,-1.1423,-1.1294,-1.1131,-1.0887,-1.0914,-1.0779,-1.0353,-1.0737,-1.1057,-1.073,-0.9944,-1.0009,-1.2144,-1.1629,-1.1795,-1.3901,-1.4473,-1.4713,-1.4713,-1.4368,-1.4056,-1.3838,-1.3526,-1.3322,-1.3205,-1.3118,-1.2963,-1.2813,-1.2657,-1.2556,-1.2501,-1.2501,-1.2501,-1.2501,-1.2501,-1.2345,-1.2135,-1.2135,-1.1898,-1.1619,-1.1619,-1.1619,-1.1619,-1.1619,-1.1619,-1.1592,-1.1314,-1.1185,-1.1131,-1.086,-1.0744,-1.0717,-1.0717,-1.0717,-1.0717,-1.0717,-1.0717,-1.0717,-1.0717,-1.0717,-1.0717,-1.0717,-1.0717,-1.0717,-1.0717,-1.0717,-1.0717,-1.0717,-1.0717,-1.0717,-1.0717,-1.0717,-1.0916,-1.1652,-1.1909,-1.171,-1.1042,-1.077,-1.024,-0.8984,-0.8656,-0.8541,-0.8405,-0.8489,-0.8454,-0.8083,-0.8055,-0.7994,-0.7933,-0.836,-0.9147,-1.0272,-0.993,-1.024,-1.1607,-0.9937,-0.9029,-0.9182,-0.8647,-0.8154,-0.7776,-0.9187,-0.9844,-0.9735,-1.0945,-1.1598,-1.145,-1.1511,-1.1531,-1.1599,-1.1558,-1.1443,-1.1212,-1.1043,-1.0867,-1.0649,-1.0663,-1.0426,-0.9623,-0.9183,-0.8998,-0.9181,-0.809,-0.8316,-1.1193,-1.1184,-1.1564,-1.3466,-1.3894,-1.4059,-1.4059,-1.3823,-1.3547,-1.3394,-1.315,-1.2949,-1.2963,-1.2888,-1.2807,-1.2732,-1.2583,-1.2501,-1.2501,-1.2501,-1.2501,-1.2501,-1.2501,-1.2345,-1.2135,-1.2135,-1.1898,-1.1619,-1.1619,-1.1619,-1.1619,-1.1619,-1.1619,-1.1599,-1.1369,-1.1233,-1.1138,-1.0921,-1.0785,-1.0717,-1.0717,-1.0717,-1.0717,-1.0717,-1.0717,-1.0717,-1.0717,-1.0717,-1.0717,-1.0717,-1.0717,-1.0717,-1.0717,-1.0717,-1.0717,-1.0717,-1.0717,-1.0717,-1.0717,-1.0717,-1.0784,-1.1181,-1.1247,-1.0982,-1.0319,-1.0187,-0.9848,-0.879,-0.859,-0.8546,-0.8432,-0.8312,-0.8166,-0.8048,-0.7971,-0.7872,-0.7872,-0.8177,-0.8599,-0.9195,-0.8958,-0.9086,-0.968,-0.8842,-0.8303,-0.8176,-0.7877,-0.7644,-0.7519,-0.88,-0.9456,-0.9651,-1.0902,-1.1598,-1.1545,-1.1619,-1.1619,-1.1619,-1.1531,-1.1355,-1.0954,-1.0833,-1.0656,-1.0439,-1.0426,-1.0162,-0.918,-0.8179,-0.753,-0.7761,-0.6643,-0.686,-1.028,-1.0445,-1.1097,-1.3115,-1.3403,-1.339,-1.3356,-1.3241,-1.3098,-1.2929,-1.2766,-1.2732,-1.2854,-1.2745,-1.2678,-1.2678,-1.2562,-1.2501,-1.2501,-1.2501,-1.2501,-1.2501,-1.2474,-1.2318,-1.2135,-1.2026,-1.187,-1.1619,-1.1619,-1.1619,-1.1619,-1.1619,-1.1599,-1.1552,-1.1402,-1.1253,-1.1097,-1.0955,-1.0759,-1.0717,-1.0717,-1.0717,-1.0717,-1.0717,-1.0717,-1.0717,-1.0717,-1.0717,-1.0717,-1.0717,-1.0717,-1.0717,-1.0717,-1.0717,-1.0717,-1.0717,-1.0717,-1.0717,-1.0717,-1.0717,-1.0717,-1.0717,-1.0717,-1.0525,-0.9927,-0.9728,-0.9461,-0.879,-0.8651,-0.8557,-0.8465,-0.8329,-0.8198,-0.81,-0.7959,-0.7872,-0.7872,-0.7872,-0.7872,-0.7872,-0.7872,-0.7872,-0.7872,-0.7872,-0.7828,-0.7741,-0.7736,-0.7693,-0.7595,-0.8713,-0.9294,-0.9467,-1.0599,-1.1212,-1.1572,-1.1619,-1.1619,-1.1619,-1.1606,-1.1484,-1.0981,-1.0833,-1.0602,-1.0181,-1.0202,-1.0344,-1.0292,-1.0412,-1.0603,-1.1096,-0.9826,-0.9639,-1.2096,-1.1249,-1.1097,-1.3115,-1.3403,-1.3349,-1.3207,-1.318,-1.3057,-1.2773,-1.261,-1.2528,-1.2542,-1.2528,-1.2522,-1.2522,-1.2508,-1.2501,-1.2501,-1.2501,-1.2501,-1.2501,-1.2372,-1.2223,-1.2054,-1.1918,-1.1769,-1.1619,-1.1619,-1.1619,-1.1619,-1.1619,-1.1538,-1.1396,-1.1246,-1.1097,-1.088,-1.0799,-1.0731,-1.0717,-1.0717,-1.0717,-1.0717,-1.0717,-1.0717,-1.0717,-1.0717,-1.0717,-1.0717,-1.0717,-1.0717,-1.0717,-1.0717,-1.0717,-1.0717,-1.0717,-1.0717,-1.0717,-1.0717,-1.0717,-1.0717,-1.0717,-1.0717,-1.0585,-1.0193,-0.9927,-0.9528,-0.9117,-0.8784,-0.8584,-0.8573,-0.8372,-0.8167,-0.822,-0.8008,-0.7872,-0.7872,-0.7872,-0.7872,-0.7872,-0.7872,-0.7872,-0.7872,-0.7872,-0.7867,-0.7856,-0.7856,-0.785,-0.7839,-0.8508,-0.8885,-0.8891,-0.962,-0.999,-1.1443,-1.1552,-1.1619,-1.1619,-1.1552,-1.1389,-1.0961,-1.0758,-1.048,-1.0127,-1.01,-1.0188,-1.0337,-0.981,-0.9814,-1.1134,-1.0113,-0.9853,-1.2136,-1.1811,-1.1835,-1.3112,-1.3186,-1.3146,-1.3173,-1.3098,-1.2922,-1.2617,-1.2535,-1.2501,-1.2501,-1.2501,-1.2501,-1.2501,-1.2501,-1.2501,-1.2501,-1.2501,-1.2501,-1.2501,-1.2359,-1.221,-1.2054,-1.1904,-1.1755,-1.1619,-1.1619,-1.1619,-1.1619,-1.1619,-1.1531,-1.1375,-1.1219,-1.1077,-1.086,-1.0778,-1.0717,-1.0717,-1.0717,-1.0717,-1.0717,-1.0717,-1.0717,-1.0717,-1.0717,-1.0717,-1.0717,-1.0717,-1.0717,-1.0717,-1.0717,-1.0717,-1.0717,-1.0717,-1.0717,-1.0717,-1.0717,-1.0717,-1.0717,-1.0717,-1.0717,-1.0585,-1.0259,-0.9927,-0.9594,-0.9183,-0.8784,-0.859,-0.859,-0.8383,-0.8172,-0.8172,-0.8019,-0.7872,-0.7872,-0.7872,-0.7872,-0.7872,-0.7872,-0.7872,-0.7872,-0.7872,-0.7872,-0.7872,-0.7872,-0.7872,-0.7872,-0.8482,-0.8793,-0.8793,-0.9518,-0.9822,-1.1348,-1.1504,-1.1619,-1.1619,-1.1504,-1.1314,-1.0948,-1.0711,-1.0432,-1.0222,-1.0148,-1.0202,-1.0487,-0.9764,-0.9576,-1.102,-1.0392,-1.0303,-1.1918,-1.2142,-1.2338,-1.2908,-1.2888,-1.2861,-1.2963,-1.2881,-1.2732,-1.2515,-1.2501,-1.2501,-1.2501,-1.2501,-1.2501,-1.2501,-1.2501,-1.2501,-1.2501,-1.2501,-1.2481,-1.244,-1.2291,-1.2142,-1.1986,-1.1837,-1.1714,-1.1619,-1.1619,-1.1619,-1.1619,-1.1619,-1.1504,-1.1314,-1.1275,-1.105,-1.0799,-1.0758,-1.0717,-1.0717,-1.0717,-1.0717,-1.0717,-1.0717,-1.0717,-1.0717,-1.0717,-1.0717,-1.0717,-1.0717,-1.0717,-1.0717,-1.0717,-1.0717,-1.0717,-1.0717,-1.0717,-1.0717,-1.0717,-1.0717,-1.0717,-1.0717,-1.0717,-1.0651,-1.0392,-0.9994,-0.9594,-0.9322,-0.8923,-0.859,-0.859,-0.841,-0.8274,-0.8178,-0.8051,-0.7971,-0.7872,-0.7872,-0.7872,-0.7872,-0.7872,-0.7872,-0.7872,-0.7872,-0.7872,-0.7872,-0.7872,-0.7872,-0.7872,-0.8299,-0.8543,-0.8543,-0.9031,-0.9214,-1.1348,-1.1504,-1.1619,-1.1619,-1.1504,-1.1314,-1.0948,-1.0711,-1.0493,-1.0487,-1.0378,-1.046,-1.1111,-1.0914,-1.0799,-1.1314,-1.1389,-1.1491,-1.1796,-1.2094,-1.2345,-1.2488,-1.2508,-1.2508,-1.2508,-1.2508,-1.2508,-1.2501,-1.2501,-1.2501,-1.2501,-1.2501,-1.2501,-1.2501,-1.2501,-1.2501,-1.2501,-1.2501,-1.2433,-1.2291,-1.2135,-1.1986,-1.183,-1.1687,-1.1619,-1.1619,-1.1619,-1.1619,-1.1619,-1.1619,-1.1443,-1.1234,-1.1234,-1.0982,-1.0724,-1.0717,-1.0717,-1.0717,-1.0717,-1.0717,-1.0717,-1.0717,-1.0717,-1.0717,-1.0717,-1.0717,-1.0717,-1.0717,-1.0717,-1.0717,-1.0717,-1.0717,-1.0717,-1.0717,-1.0717,-1.0717,-1.0717,-1.0717,-1.0717,-1.0717,-1.0717,-1.0717,-1.0717,-1.0127,-0.9728,-0.9661,-0.9056,-0.859,-0.859,-0.8486,-0.8372,-0.8183,-0.8127,-0.8065,-0.7883,-0.7872,-0.7872,-0.7872,-0.7872,-0.7872,-0.7872,-0.7872,-0.7872,-0.7872,-0.7872,-0.7872,-0.7872,-0.7933,-0.7933,-0.7933,-0.7933,-0.7933,-1.1043,-1.1192,-1.1307,-1.1307,-1.1274,-1.1158,-1.086,-1.0636,-1.0493,-1.0493,-1.0378,-1.0432,-1.0928,-1.0853,-1.0867,-1.1321,-1.1301,-1.1409,-1.1918,-1.1979,-1.2142,-1.2603,-1.2657,-1.2657,-1.2657,-1.2562,-1.2501,-1.2501,-1.2501,-1.2501,-1.2501,-1.2501,-1.2501,-1.2501,-1.2501,-1.2501,-1.2501,-1.2406,-1.2332,-1.2284,-1.2026,-1.1877,-1.1823,-1.1687,-1.1619,-1.1619,-1.1619,-1.1619,-1.1613,-1.1504,-1.1348,-1.122,-1.1056,-1.0894,-1.0717,-1.0717,-1.0717,-1.0717,-1.0717,-1.0717,-1.0717,-1.0717,-1.0717,-1.0717,-1.0717,-1.0717,-1.0717,-1.0717,-1.0717,-1.0717,-1.0717,-1.0717,-1.0717,-1.0717,-1.0717,-1.0717,-1.0717,-1.0717,-1.0717,-1.0717,-1.0717,-1.0651,-1.0392,-0.9994,-0.9594,-0.9322,-0.8923,-0.859,-0.859,-0.8486,-0.8372,-0.8183,-0.8127,-0.8065,-0.7883,-0.7872,-0.7872,-0.7872,-0.7872,-0.7872,-0.7872,-0.7872,-0.7872,-0.7872,-0.7872,-0.7872,-0.7872,-0.7872,-0.7872,-0.7872,-0.7872,-0.7872,0.0,-1.1009,-1.1234,-1.1234,-1.1077,-1.0948,-1.0765,-1.0514,-1.0358,-1.0466,-1.0378,-1.0399,-1.0792,-1.0785,-1.0812,-1.109,-1.1199,-1.1362,-1.1681,-1.1837,-1.206,-1.2433,-1.2528,-1.2562,-1.2562,-1.2528,-1.2501,-1.2501,-1.2501,-1.2501,-1.2501,-1.2501,-1.2474,-1.2427,-1.242,-1.242,-1.242,-1.2277,-1.2176,-1.2115,-1.1925,-1.1504,-1.0863,-1.1365,-1.1253,-1.0743,-1.1325,-1.1619,0.0,-1.1457,-1.1301,-1.1151,-1.1002,-1.0786,-1.0717,-1.0717,-1.0717,-1.0717,-1.0717,-1.0717,-1.0717,-1.0717,-1.0717,-1.0717,-1.0717,-1.0717,-1.0717,-1.0717,-1.0717,-1.0717,-1.0717,-1.0717,-1.0717,-1.0717,-1.0717,-1.0717,-1.0717,-1.0717,-1.0717,-1.0717,-1.0717,-1.0585,-1.0259,-0.9927,-0.9594,-0.9183,-0.8784,-0.859,-0.859,-0.8524,-0.8416,-0.8188,-0.8166,-0.8051,-0.7883,-0.7872,-0.7872,-0.7872,-0.7872,-0.7872,-0.7872,-0.7872,-0.7872,-0.7872,-0.7872,-0.7872,-0.7872,-0.7872,-0.7872,-0.7872,-0.7872,-0.7872,0.0,-1.088,-1.1166,-1.1166,-1.0894,-1.0683,-1.0677,-1.0287,0.0,-1.0419,-1.0371,-1.0378,-1.0697,-1.0738,-1.0731,-1.0765,-1.1111,-1.1335,-1.1212,-1.1708,-1.2155,-1.2169,-1.2216,-1.2305,-1.2305,-1.2427,-1.2501,-1.2501,-1.2501,-1.2501,-1.2501,-1.2494,-1.2427,-1.2291,-1.2271,-1.2264,-1.2277,-1.2121,-1.1898,-1.161,-1.1597,-1.0717,-0.9219,-1.0599,-1.0527,-0.9363,-1.0815,-1.1469,-1.1592,-1.1436,-1.1287,-1.1131,-1.0989,-1.0779,-1.0717,-1.0717,-1.0717,-1.0717,-1.0717,-1.0717,-1.0717,-1.0717,-1.0717,-1.0717,-1.0717,-1.0717,-1.0717,-1.0717,-1.0717,-1.0717,-1.0717,-1.0717,-1.0717,-1.0717,-1.0717,-1.0717,-1.0717,-1.0717,-1.0717,-1.0717,-1.0651,-1.0591,-1.0193,-0.9861,-0.9528,-0.9117,-0.8784,-0.859,-0.859,-0.859,-0.8497,-0.8258,-0.8172,-0.8133,-0.7894,-0.7872,-0.7872,-0.7872,-0.7872,-0.7872,-0.7872,-0.7872,-0.7872,-0.7872,-0.7872,-0.7872,-0.7872,-0.7872,-0.7872,-0.7872,-0.7872,-0.7872,-1.0112,0.0,-1.0487,-1.0487,-1.0432,-1.0351,0.0,-1.0065,-1.0038,-1.029,-1.0304,-1.0439,-1.0962,-1.0873,-1.0833,-1.1179,-1.1226,-1.1287,-1.1484,-1.1932,-1.2277,-1.2386,-1.2427,-1.2454,-1.2454,-1.2481,-1.2501,-1.2501,-1.2501,-1.2501,-1.2501,-1.24,-1.2325,-1.2291,-1.206,-1.1993,-1.2115,-1.1959,-1.1276,-1.0058,-0.996,-0.9096,-0.7548,-0.791,-0.8492,-0.9291,-0.9651,-1.0466,-1.1436,-1.128,-1.1131,-1.0982,-1.0833,-1.0751,-1.0717,-1.0717,-1.0717,-1.0717,-1.0717,-1.0717,-1.0717,-1.0717,-1.0717,-1.0717,-1.0717,-1.0717,-1.0717,-1.0717,-1.0717,-1.0717,-1.0717,-1.0717,-1.0717,-1.0717,-1.0717,-1.0717,-1.0717,-1.0717,-1.0717,-1.0717,-1.0518,-1.0193,-0.9861,-0.9522,-0.9117,-0.8784,-0.8656,-0.859,-0.859,-0.859,-0.8497,-0.8258,-0.8172,-0.8133,-0.7894,-0.7872,-0.7872,-0.7872,-0.7872,-0.7872,-0.7872,-0.7872,-0.7872,-0.7872,-0.7872,-0.7872,-0.7872,-0.7872,-0.7872,-0.7872,-0.7872,-0.7872,-0.9883,-1.0154,-1.0378,-1.0378,-1.0331,-1.0256,-1.0175,-1.0046,-0.9971,-1.0053,-1.0073,-1.0188,-1.0582,-1.0629,-1.0717,-1.1029,-1.1185,-1.1396,-1.1769,-1.2033,-1.2264,-1.2474,-1.2501,-1.2501,-1.2501,-1.244,-1.2406,-1.2406,-1.2338,-1.2298,-1.2298,-1.223,-1.2155,-1.2081,-1.1174,-1.0835,-1.0915,-1.0773,-0.9899,-0.8363,-0.8304,-0.7404,-0.5956,-0.668,-0.7476,-0.8275,-0.9002,-1.0084,-1.1382,-1.1226,-1.1077,-1.0867,-1.0778,-1.0717,-1.0717,-1.0717,-1.0717,-1.0717,-1.0717,-1.0717,-1.0717,-1.0717,-1.0717,-1.0717,-1.0717,-1.0717,-1.0717,-1.0717,-1.0717,-1.0717,-1.0717,-1.0717,-1.0717,-1.0717,-1.0717,-1.0717,-1.0717,-1.0717,-1.0717,-1.0717,-1.0452,-1.006,-0.9728,-0.9389,-0.8984,-0.8656,-0.859,-0.859,-0.859,-0.859,-0.8497,-0.8258,-0.8172,-0.8133,-0.7894,-0.7872,-0.7872,-0.7872,-0.7872,-0.7872,-0.7872,-0.7872,-0.7872,-0.7872,-0.7872,-0.7872,-0.7872,-0.7872,-0.7872,-0.7872,-0.7872,-0.7872,-0.9876,-1.0181,-1.0473,-1.0405,-1.0317,-1.0243,-1.0215,0.0,0.0,0.0,0.0,-0.9883,-1.0017,-1.0324,-1.0555,-1.0758,-1.1124,-1.1538,-1.1965,-1.2026,-1.2128,-1.24,-1.2433,-1.2433,-1.2433,-1.2325,-1.2257,-1.2257,-1.2135,-1.2135,-1.2135,-1.204,-1.1965,-1.1837,-1.0266,-0.937,-0.915,-0.8977,-0.8203,-0.668,-0.668,-0.5815,-0.4366,-0.5667,-0.6391,-0.6753,-0.8256,-0.9698,-1.099,-1.1123,-1.1043,-1.0833,-1.0772,-1.0717,-1.0717,-1.0717,-1.0717,-1.0717,-1.0717,-1.0717,-1.0717,-1.0717,-1.0717,-1.0717,-1.0717,-1.0717,-1.0717,-1.0717,-1.0717,-1.0717,-1.0717,-1.0717,-1.0717,-1.0717,-1.0717,-1.0717,-1.0717,-1.0717,-1.0651,-1.0651,-1.0326,-0.9994,-0.9661,-0.9256,-0.8917,-0.8651,-0.859,-0.859,-0.859,-0.859,-0.8497,-0.8258,-0.8172,-0.8133,-0.7894,-0.7872,-0.7872,-0.7872,-0.7872,-0.7872,-0.7872,-0.7872,-0.7872,-0.7872,-0.7872,-0.7872,-0.7872,-0.7872,-0.7872,-0.7872,-0.7872,-0.7872,-1.0141,-1.0344,-1.0399,-1.0019,-1.0005,-0.999,-0.9924,-0.9856,0.0,0.0,0.0,-0.9944,-1.0351,-1.046,-1.0622,-1.1029,-1.126,-1.1504,-1.1823,-1.1864,-1.1932,-1.2108,-1.2128,-1.2128,-1.2128,-1.2108,-1.2094,-1.2094,-1.2074,-1.2135,-1.2135,-1.1938,-1.1857,-1.183,-1.0172,-0.8734,-0.7425,-0.734,-0.6608,-0.502,-0.502,-0.4221,-0.2697,-0.2914,-0.3785,-0.5162,-0.6538,-0.7941,-0.9301,-1.049,-1.0894,-1.0751,-1.0731,-1.0717,-1.0717,-1.0717,-1.0717,-1.0717,-1.0717,-1.0717,-1.0717,-1.0717,-1.0717,-1.0717,-1.0717,-1.0717,-1.0717,-1.0717,-1.0717,-1.0717,-1.0717,-1.0717,-1.0717,-1.0717,-1.0717,-1.0717,-1.0717,-1.0717,-1.0591,-1.0326,-0.9994,-0.9661,-0.925,-0.8917,-0.8656,-0.859,-0.859,-0.859,-0.859,-0.859,-0.8497,-0.8258,-0.8172,-0.8133,-0.7894,-0.7872,-0.7872,-0.7872,-0.7872,-0.7872,-0.7872,-0.7872,-0.7872,-0.7872,-0.7872,-0.7872,-0.7872,-0.7872,-0.7872,-0.7872,-0.7872,-0.7872,-0.9992,-1.0141,-1.0202,-0.9936,-1.0181,-1.0307,-1.0215,-1.0127,-1.0066,-1.0066,-1.0066,-1.0181,-1.0548,-1.0683,-1.0887,-1.1335,-1.147,-1.1586,-1.1803,-1.183,-1.1884,-1.2047,-1.2135,-1.2135,-1.2135,-1.1986,-1.1938,-1.1938,-1.1864,-1.1823,-1.1823,-1.1755,-1.1273,-1.0468,-0.8879,-0.7306,-0.5754,-0.4895,-0.4121,-0.3423,-0.3423,-0.2986,-0.2333,-0.2318,-0.3173,-0.4749,-0.61,-0.7553,-0.8903,-1.0289,-1.0793,-1.0717,-1.0717,-1.0717,-1.0717,-1.0717,-1.0717,-1.0717,-1.0717,-1.0717,-1.0717,-1.0717,-1.0717,-1.0717,-1.0717,-1.0717,-1.0717,-1.0717,-1.0717,-1.0717,-1.0717,-1.0717,-1.0717,-1.0717,-1.0717,-1.0717,-1.0717,-1.0591,-1.0392,-1.0259,-0.9721,-0.9322,-0.9117,-0.8851,-0.859,-0.859,-0.859,-0.859,-0.859,-0.859,-0.8524,-0.835,-0.8274,-0.816,-0.8048,-0.7971,-0.7872,-0.7872,-0.7872,-0.7872,-0.7872,-0.7872,-0.7872,-0.7872,-0.7872,-0.7872,-0.7872,-0.7872,-0.7872,-0.7872,-0.7872,-0.7872,-0.991,-1.0012,-1.0051,-1.0085,-1.0358,-1.0548,-1.05,-1.0385,-1.029,-1.0324,-1.0331,-1.0412,-1.067,-1.09,-1.1179,-1.1558,-1.1619,-1.166,-1.1769,-1.1782,-1.1823,-1.1945,-1.1959,-1.1959,-1.1959,-1.185,-1.1782,-1.1782,-1.1681,-1.1619,-1.1619,-1.1619,-1.0875,-0.9319,-0.7805,-0.618,-0.4616,-0.3061,-0.229,-0.2312,-0.2312,-0.2312,-0.2311,-0.229,-0.2918,-0.412,-0.5527,-0.6979,-0.8345,-0.9746,-1.0484,-1.0717,-1.0717,-1.0717,-1.0717,-1.0717,-1.0717,-1.0717,-1.0717,-1.0717,-1.0717,-1.0717,-1.0717,-1.0717,-1.0717,-1.0717,-1.0717,-1.0717,-1.0717,-1.0717,-1.0717,-1.0717,-1.0717,-1.0717,-1.0717,-1.0717,-1.0717,-1.0525,-1.0259,-1.0193,-0.9655,-0.9183,-0.9117,-0.8851,-0.859,-0.859,-0.859,-0.859,-0.859,-0.859,-0.8546,-0.8432,-0.8307,-0.8171,-0.8086,-0.8015,-0.796,-0.7872,-0.7872,-0.7872,-0.7872,-0.7872,-0.7872,-0.7872,-0.7872,-0.7872,-0.7872,-0.7872,-0.7872,-0.7872,-0.7872,-0.7872,-1.0168,-1.0256,-1.0297,-1.0426,-1.0276,-1.0105,-1.0432,-1.0385,-1.0317,-1.0453,-1.0473,-1.0527,-1.069,-1.107,-1.1416,-1.1592,-1.1619,-1.1619,-1.1633,-1.1633,-1.164,-1.1647,-1.1653,-1.1653,-1.1653,-1.164,-1.1633,-1.1633,-1.1626,-1.1619,-1.1619,-1.1619,-1.083,-0.9269,-0.7704,-0.617,-0.4622,-0.3018,-0.2179,-0.2182,-0.2182,-0.2182,-0.2182,-0.2179,-0.2248,-0.2457,-0.3873,-0.5279,-0.6766,-0.8164,-0.9522,-1.0717,-1.0717,-1.0717,-1.0717,-1.0717,-1.0717,-1.0717,-1.0717,-1.0717,-1.0717,-1.0717,-1.0717,-1.0717,-1.0717,-1.0717,-1.0717,-1.0717,-1.0717,-1.0717,-1.0717,-1.0717,-1.0717,-1.0717,-1.0717,-1.0717,-1.0717,-1.0651,-1.0591,-1.0259,-0.9927,-0.9528,-0.9183,-0.8851,-0.859,-0.859,-0.859,-0.859,-0.859,-0.859,-0.8546,-0.8432,-0.8307,-0.8138,-0.7905,-0.8043,-0.8054,-0.7877,-0.7872,-0.7872,-0.7872,-0.7872,-0.7872,-0.7872,-0.7872,-0.7872,-0.7872,-0.7872,-0.7872,-0.7872,-0.7872,-0.7872,-0.9964,-1.0066,-1.0175,-1.0324,-1.0276,-1.027,-1.0568,-1.0663,-1.0738,-1.088,-1.0907,-1.0928,-1.0982,-1.1212,-1.1409,-1.147,-1.1558,-1.1619,-1.1619,-1.1619,-1.1619,-1.1619,-1.1619,-1.1619,-1.1619,-1.1619,-1.1579,-1.1484,-1.1477,-1.1436,-1.1341,-1.1335,-1.0174,-0.7739,-0.7108,-0.56,-0.3115,-0.2494,-0.2207,-0.2189,-0.2228,-0.2175,-0.2175,-0.2226,-0.2217,-0.2284,-0.3682,-0.5143,-0.6547,-0.7989,-0.9443,-1.0717,-1.0717,-1.0717,-1.0717,-1.0717,-1.0717,-1.0717,-1.0717,-1.0717,-1.0717,-1.0717,-1.0717,-1.0717,-1.0717,-1.0717,-1.0717,-1.0717,-1.0717,-1.0717,-1.0717,-1.0717,-1.0717,-1.0717,-1.0717,-1.0717,-1.0717,-1.0518,-1.0326,-1.0193,-0.9721,-0.9256,-0.9117,-0.8851,-0.859,-0.859,-0.859,-0.859,-0.859,-0.859,-0.8568,-0.853,-0.8416,-0.8247,-0.807,-0.8092,-0.8065,-0.7877,-0.7872,-0.7872,-0.7872,-0.7872,-0.7872,-0.7872,-0.7872,-0.7872,-0.7872,-0.7872,-0.7872,-0.7872,-0.7872,-0.7872,-0.9836,-0.9869,-1.0011,-1.0181,-1.0243,-1.0371,-1.0717,-1.0806,-1.0989,-1.1131,-1.1234,-1.1234,-1.1234,-1.1287,-1.1389,-1.1389,-1.1518,-1.1619,-1.1619,-1.1619,-1.1619,-1.1619,-1.1619,-1.1619,-1.1619,-1.1572,-1.1504,-1.1396,-1.1348,-1.1274,-1.1165,-1.1234,-0.982,-0.6802,-0.6733,-0.5247,-0.2254,-0.2185,-0.2176,-0.2223,-0.2196,-0.2217,-0.2217,-0.2195,-0.2185,-0.2252,-0.3242,-0.4699,-0.6498,-0.7503,-0.9045,-1.0717,-1.0717,-1.0717,-1.0717,-1.0717,-1.0717,-1.0717,-1.0717,-1.0717,-1.0717,-1.0717,-1.0717,-1.0717,-1.0717,-1.0717,-1.0717,-1.0717,-1.0717,-1.0717,-1.0717,-1.0717,-1.0717,-1.0717,-1.0717,-1.0717,-1.0717,-1.0525,-1.0392,-1.0392,-0.9788,-0.9322,-0.9322,-0.8923,-0.859,-0.859,-0.859,-0.859,-0.859,-0.859,-0.8573,-0.8535,-0.8497,-0.8356,-0.8141,-0.8089,-0.804,-0.7883,-0.7872,-0.7872,-0.7872,-0.7872,-0.7872,-0.7872,-0.7872,-0.7872,-0.7872,-0.7872,-0.7872,-0.7872,-0.7872,-0.7872,-0.9863,-0.9869,-0.9984,-0.999,-1.0168,-1.0399,-1.0779,-1.088,-1.0989,-1.1138,-1.1165,-1.1234,-1.1234,-1.1287,-1.1389,-1.1389,-1.1518,-1.1619,-1.1619,-1.1619,-1.1619,-1.1619,-1.1619,-1.1619,-1.1619,-1.1484,-1.1389,-1.1389,-1.1246,-1.1227,-1.1227,-1.1158,-0.9773,-0.6774,-0.6706,-0.524,-0.2223,-0.2155,-0.2155,-0.2155,-0.2155,-0.2223,-0.2223,-0.2223,-0.2223,-0.2223,-0.2223,-0.383,-0.6431,-0.6431,-0.8102,-1.0717,-1.0717,-1.0717,-1.0717,-1.0717,-1.0717,-1.0717,-1.0717,-1.0717,-1.0717,-1.0717,-1.0717,-1.0717,-1.0717,-1.0717,-1.0717,-1.0717,-1.0717,-1.0717,-1.0717,-1.0717,-1.0717,-1.0717,-1.0717,-1.0717,-1.0717,-1.0717,-1.0717,-1.0717,-1.0193,-0.9728,-0.9728,-0.9056,-0.859,-0.859,-0.859,-0.859,-0.859,-0.859,-0.8546,-0.8432,-0.8519,-0.8443,-0.8152,-0.8166,-0.8133,-0.7888,-0.7872,-0.7872,-0.7872,-0.7872,-0.7872,-0.7872,-0.7872,-0.7872,-0.7872,-0.7872,-0.7872,-0.7872,-0.7872,-0.7872,-0.9863,-0.9869,-1.0011,-1.0181,-1.0405,-1.0656,-1.0826,-1.1029,-1.1172,-1.143,-1.1396,-1.1321,-1.1321,-1.1362,-1.1389,-1.1389,-1.1518,-1.1619,-1.1619,-1.1619,-1.1619,-1.1619,-1.1619,-1.1579,-1.147,-1.1416,-1.1307,-1.1097,-1.1036,-1.0968,-1.0853,-0.9899,-0.8252,-0.5863,-0.479,-0.3102,-0.0673,-0.0673,-0.0673,-0.0673,-0.1212,-0.1683,-0.2223,-0.2223,-0.2223,-0.2223,-0.2223,-0.383,-0.6564,-0.8573,-0.9915,-1.0717,-1.0717,-1.0717,-1.0717,-1.0717,-1.0717,-1.0717,-1.0717,-1.0717,-1.0717,-1.0717,-1.0717,-1.0717,-1.0717,-1.0717,-1.0717,-1.0717,-1.0717,-1.0717,-1.0717,-1.0717,-1.0717,-1.0717,-1.0717,-1.0717,-1.0717,-1.0717,-1.0717,-1.0717,-1.0326,-0.9994,-0.9728,-0.9256,-0.8851,-0.8651,-0.859,-0.859,-0.859,-0.859,-0.8573,-0.8541,-0.8568,-0.8513,-0.8323,-0.8263,-0.8166,-0.807,-0.7982,-0.7872,-0.7872,-0.7872,-0.7872,-0.7872,-0.7872,-0.7872,-0.7872,-0.7872,-0.7872,-0.7872,-0.7872,-0.7872,-1.0012,-1.0073,-1.0188,-1.0405,-1.0588,-1.0772,-1.0989,-1.1145,-1.1307,-1.1491,-1.1409,-1.1301,-1.1301,-1.1301,-1.1321,-1.1382,-1.1518,-1.1619,-1.1619,-1.1619,-1.1619,-1.1619,-1.1565,-1.1491,-1.1402,-1.1287,-1.1145,-1.0894,-1.0826,-1.0819,-1.0724,-0.9105,-0.7293,-0.5489,-0.3689,-0.1881,0.0,0.0,0.0,0.0,-0.0471,-0.1144,-0.1952,-0.2154,-0.2223,-0.2223,-0.2759,-0.4297,-0.6564,-0.8906,-1.018,-1.0717,-1.0717,-1.0717,-1.0717,-1.0717,-1.0717,-1.0717,-1.0717,-1.0717,-1.0717,-1.0717,-1.0717,-1.0717,-1.0717,-1.0717,-1.0717,-1.0717,-1.0717,-1.0717,-1.0717,-1.0717,-1.0717,-1.0717,-1.0717,-1.0717,-1.0717,-1.0717,-1.0717,-1.0717,-1.0452,-1.0127,-0.9927,-0.9588,-0.9189,-0.8851,-0.8651,-0.859,-0.859,-0.859,-0.859,-0.859,-0.859,-0.8541,-0.8426,-0.8307,-0.8182,-0.8125,-0.7999,-0.7872,-0.7872,-0.7872,-0.7872,-0.7872,-0.7872,-0.7872,-0.7872,-0.7872,-0.7872,-0.7872,-0.7872,-0.7872,-1.0222,-1.027,-1.0351,-1.0643,-1.0738,-1.0833,-1.1118,-1.128,-1.1369,-1.1369,-1.126,-1.1234,-1.1234,-1.1241,-1.1226,-1.1369,-1.1518,-1.1619,-1.1619,-1.1619,-1.1619,-1.1619,-1.1484,-1.1389,-1.1369,-1.1118,-1.0873,-1.086,-1.0799,-1.0651,-1.0585,-0.8496,-0.6689,-0.5222,-0.3017,-0.1142,0.0202,0.0202,0.0202,0.0202,0.0067,-0.0471,-0.1414,-0.1952,-0.2155,-0.2289,-0.3698,-0.5101,-0.6498,-0.7969,-0.9443,-1.0717,-1.0717,-1.0717,-1.0717,-1.0717,-1.0717,-1.0717,-1.0717,-1.0717,-1.0717,-1.0717,-1.0717,-1.0717,-1.0717,-1.0717,-1.0717,-1.0717,-1.0717,-1.0717,-1.0717,-1.0717,-1.0717,-1.0717,-1.0717,-1.0717,-1.0717,-1.0717,-1.0717,-1.0717,-1.0459,-1.0259,-1.0193,-0.9927,-0.9594,-0.9183,-0.8917,-0.8656,-0.8656,-0.8651,-0.8651,-0.859,-0.859,-0.8546,-0.8443,-0.8323,-0.8198,-0.8141,-0.8015,-0.7944,-0.7872,-0.7872,-0.7872,-0.7872,-0.7872,-0.7872,-0.7872,-0.7872,-0.7872,-0.7872,-0.7872,-0.7872,-1.0031,-1.0188,-1.0351,-1.0643,-1.0894,-1.1118,-1.1301,-1.1274,-1.1212,-1.1212,-1.1185,-1.1234,-1.1234,-1.126,-1.1355,-1.1389,-1.1518,-1.1619,-1.1619,-1.1619,-1.1619,-1.1619,-1.1484,-1.1341,-1.1226,-1.105,-1.0833,-1.0778,-1.0738,-1.0452,-0.9915,-0.736,-0.5155,-0.3751,-0.1007,0.0807,0.175,0.175,0.175,0.1683,0.0808,0.0269,0.0,-0.1212,-0.2019,-0.2627,-0.3833,-0.5101,-0.6498,-0.7969,-0.9443,-1.0717,-1.0717,-1.0717,-1.0717,-1.0717,-1.0717,-1.0717,-1.0717,-1.0717,-1.0717,-1.0717,-1.0717,-1.0717,-1.0717,-1.0717,-1.0717,-1.0717,-1.0717,-1.0717,-1.0717,-1.0717,-1.0717,-1.0717,-1.0717,-1.0717,-1.0717,-1.0717,-1.0717,-1.0717,-1.0651,-1.0525,-1.0259,-1.0127,-0.9994,-0.9594,-0.9528,-0.9322,-0.905,-0.8984,-0.8917,-0.8651,-0.859,-0.8579,-0.8552,-0.8443,-0.8329,-0.8204,-0.8084,-0.8032,-0.7877,-0.7872,-0.7872,-0.7872,-0.7872,-0.7872,-0.7872,-0.7872,-0.7872,-0.7872,-0.7872,-0.7872,-1.0202,-1.0317,-1.0487,-1.0928,-1.1104,-1.1255,-1.126,-1.1111,-1.0948,-1.0948,-1.1009,-1.1063,-1.1063,-1.1179,-1.1307,-1.1382,-1.1518,-1.1619,-1.1619,-1.1558,-1.1511,-1.1511,-1.1314,-1.1145,-1.107,-1.0928,-1.0806,-1.0724,-1.0386,-1.0047,-0.9715,-0.6293,-0.4019,-0.3218,-0.0067,0.1818,0.2223,0.2223,0.2087,0.1885,0.1279,0.0673,0.0,-0.1077,-0.2019,-0.2694,-0.3096,-0.4498,-0.6431,-0.7236,-0.8773,-1.0717,-1.0717,-1.0717,-1.0717,-1.0717,-1.0717,-1.0717,-1.0717,-1.0717,-1.0717,-1.0717,-1.0717,-1.0717,-1.0717,-1.0717,-1.0717,-1.0717,-1.0717,-1.0717,-1.0717,-1.0717,-1.0717,-1.0717,-1.0717,-1.0717,-1.0717,-1.0717,-1.0717,-1.0717,-1.0717,-1.0651,-1.0459,-1.0326,-1.0127,-0.9994,-0.9794,-0.9594,-0.9389,-0.925,-0.905,-0.8851,-0.8717,-0.859,-0.859,-0.8481,-0.8367,-0.8178,-0.8122,-0.8059,-0.7877,-0.7872,-0.7872,-0.7872,-0.7872,-0.7872,-0.7872,-0.7872,-0.7872,-0.7872,-0.7872,-0.7872,-1.0304,-1.0493,-1.0704,-1.1253,-1.1274,-1.1234,-1.1234,-1.0934,-1.0717,-1.0717,-1.0819,-1.084,-1.084,-1.1029,-1.1172,-1.1328,-1.1484,-1.1592,-1.1613,-1.1511,-1.1423,-1.1396,-1.1151,-1.0907,-1.088,-1.0812,-1.0717,-1.0717,-1.0047,-0.9649,-0.9516,-0.5492,-0.3151,-0.3017,0.0403,0.2223,0.2223,0.2154,0.1952,0.1616,0.1481,0.0673,-0.0606,-0.1144,-0.1818,-0.2627,-0.2357,-0.383,-0.6431,-0.6431,-0.8102,-1.0717,-1.0717,-1.0717,-1.0717,-1.0717,-1.0717,-1.0717,-1.0717,-1.0717,-1.0717,-1.0717,-1.0717,-1.0717,-1.0717,-1.0717,-1.0717,-1.0717,-1.0717,-1.0717,-1.0717,-1.0717,-1.0717,-1.0717,-1.0717,-1.0717,-1.0717,-1.0717,-1.0717,-1.0717,-1.0717,-1.0717,-1.0717,-1.0459,-1.0259,-1.0259,-1.006,-0.9861,-0.9794,-0.9522,-0.925,-0.9183,-0.8917,-0.8651,-0.8651,-0.8503,-0.8388,-0.8178,-0.8138,-0.8019,-0.7877,-0.7872,-0.7872,-0.7872,-0.7872,-0.7872,-0.7872,-0.7872,-0.7872,-0.7872,-0.7872,-0.7872,-0.9997,0.0,-1.0968,-1.1307,-1.1274,-1.1234,-1.1234,-1.0934,-1.0717,-1.0717,-1.0738,-1.0751,-1.0751,-1.0806,-1.1023,-1.1172,-1.1321,-1.147,-1.1599,-1.1599,-1.1538,-1.1409,-1.124,-1.1084,-1.0894,-1.0812,-1.0717,-1.0717,-1.0047,-0.9449,-0.8784,-0.5225,-0.2883,-0.2281,0.0672,0.2223,0.2223,0.1885,0.1683,0.1616,0.0943,0.0067,-0.101,-0.0741,-0.1212,-0.229,-0.2559,-0.4099,-0.6431,-0.6431,-0.8102,-1.0717,-1.0717,-1.0717,-1.0717,-1.0717,-1.0717,-1.0717,-1.0717,-1.0717,-1.0717,-1.0717,-1.0717,-1.0717,-1.0717,-1.0717,-1.0717,-1.0717,-1.0717,-1.0717,-1.0717,-1.0717,-1.0717,-1.0717,-1.0717,-1.0717,-1.0717,-1.0717,-1.0717,-1.0717,-1.0717,-1.0717,-1.0717,-1.0651,-1.0651,-1.0651,-1.0585,-1.0459,-1.0193,-1.006,-0.9927,-0.9661,-0.9256,-0.905,-0.905,-0.8773,-0.847,-0.8183,-0.822,-0.8111,-0.7883,-0.7872,-0.7872,-0.7872,-0.7872,-0.7872,-0.7872,-0.7872,-0.7872,-0.7872,-0.7872,-0.7872,-1.0209,-1.0555,-1.0894,-1.1185,-1.1151,-1.1043,-1.1043,-1.0873,-1.0717,-1.0717,-1.0717,-1.0717,-1.0717,-1.0779,-1.0995,-1.1138,-1.1294,-1.1443,-1.1599,-1.1545,-1.1436,-1.128,-1.1131,-1.0982,-1.0766,-1.0758,-1.0518,-1.018,-0.9516,-0.8446,-0.6907,-0.4091,-0.208,-0.094,0.1076,0.2223,0.2223,0.1818,0.1414,0.101,0.0471,0.0,-0.0471,-0.0741,-0.1346,-0.2223,-0.2087,-0.3696,-0.6431,-0.6431,-0.8102,-1.0717,-1.0717,-1.0717,-1.0717,-1.0717,-1.0717,-1.0717,-1.0717,-1.0717,-1.0717,-1.0717,-1.0717,-1.0717,-1.0717,-1.0717,-1.0717,-1.0717,-1.0717,-1.0717,-1.0717,-1.0717,-1.0717,-1.0717,-1.0717,-1.0717,-1.0717,-1.0717,-1.0717,-1.0717,-1.0717,-1.0717,-1.0717,-1.0717,-1.0717,-1.0717,-1.0717,-1.0651,-1.0525,-1.0326,-1.0127,-0.9994,-0.9661,-0.9322,-0.9117,-0.8984,-0.8684,-0.8247,-0.8172,-0.8127,-0.7883,-0.7872,-0.7872,-0.7872,-0.7872,-0.7872,-0.7872,-0.7872,-0.7872,-0.7872,-0.7872,-0.7872,-1.0276,0.0,-1.0677,-1.0975,-1.0968,-1.0833,-1.0873,-1.0833,-1.0717,-1.0717,-1.0717,-1.0717,-1.0717,-1.0812,-1.0941,-1.1084,-1.1233,-1.1389,-1.1538,-1.1497,-1.1375,-1.1185,-1.107,-1.0928,-1.0738,-1.0518,-1.0253,-0.9715,-0.8851,-0.7646,-0.6034,-0.3488,-0.161,-0.0537,0.1211,0.2223,0.2223,0.175,0.1077,0.0337,0.0135,0.0,0.0,-0.0539,-0.1144,-0.1616,-0.175,-0.3425,-0.6164,-0.6297,-0.8102,-1.0717,-1.0717,-1.0717,-1.0717,-1.0717,-1.0717,-1.0717,-1.0717,-1.0717,-1.0717,-1.0717,-1.0717,-1.0717,-1.0717,-1.0717,-1.0717,-1.0717,-1.0717,-1.0717,-1.0717,-1.0717,-1.0717,-1.0717,-1.0717,-1.0717,-1.0717,-1.0717,-1.0717,-1.0717,-1.0717,-1.0717,-1.0717,-1.0717,-1.0717,-1.0717,-1.0717,-1.0717,-1.0717,-1.0452,-1.0326,-1.0326,-1.006,-0.9661,-0.9256,-0.9183,-0.881,-0.8247,-0.8172,-0.8127,-0.7883,-0.7872,-0.7872,-0.7872,-0.7872,-0.7872,-0.7872,-0.7872,-0.7872,-0.7872,-0.7872,-0.7872,-0.9963,-1.0188,0.0,-1.067,-1.0738,-1.0772,-1.0847,-1.0833,-1.0717,-1.0717,-1.0717,-1.0717,-1.0717,-1.0724,-1.0778,-1.0867,-1.1084,-1.1226,-1.1382,-1.1518,-1.1497,-1.1199,-1.1158,-1.1036,-1.0751,-1.0114,-0.9715,-0.9715,-0.8379,-0.7512,-0.7379,-0.4024,-0.208,-0.2013,0.074,0.2223,0.2223,0.1481,0.0741,0.0,0.0,0.0,0.0,-0.0067,-0.0067,-0.0202,-0.1548,-0.3425,-0.5489,-0.6164,-0.8102,-1.0717,-1.0717,-1.0717,-1.0717,-1.0717,-1.0717,-1.0717,-1.0717,-1.0717,-1.0717,-1.0717,-1.0717,-1.0717,-1.0717,-1.0717,-1.0717,-1.0717,-1.0717,-1.0717,-1.0717,-1.0717,-1.0717,-1.0717,-1.0717,-1.0717,-1.0717,-1.0717,-1.0717,-1.0717,-1.0717,-1.0717,-1.0717,-1.0717,-1.0717,-1.0717,-1.0717,-1.0717,-1.0717,-1.0651,-1.0658,-1.0658,-1.0392,-1.006,-0.9728,-0.9322,-0.881,-0.8247,-0.8172,-0.8127,-0.7883,-0.7872,-0.7872,-0.7872,-0.7872,-0.7872,-0.7872,-0.7872,-0.7872,-0.7872,-0.7872,-0.7872,-0.947,-0.9636,0.0,-1.0408,-1.0575,-1.0616,-1.0765,-1.0758,-1.0717,-1.0717,-1.0717,-1.0717,-1.0717,-1.0717,-1.0772,-1.0853,-1.107,-1.1212,-1.1369,-1.1525,-1.1545,-1.1335,-1.1219,-1.1084,-1.082,-1.0171,-0.9516,-0.905,-0.8046,-0.6506,-0.4158,-0.2818,-0.1276,0.0605,0.1682,0.1952,0.1481,0.1212,0.0741,0.0,0.0,0.0,0.0,0.0,0.0269,0.0673,-0.0337,-0.2016,-0.4091,-0.5292,-0.7165,-0.9443,-1.0319,-1.0717,-1.0717,-1.0717,-1.0717,-1.0717,-1.0717,-1.0717,-1.0717,-1.0717,-1.0717,-1.0717,-1.0717,-1.0717,-1.0717,-1.0717,-1.0717,-1.0717,-1.0717,-1.0717,-1.0717,-1.0717,-1.0717,-1.0717,-1.0717,-1.0717,-1.0717,-1.0717,-1.0717,-1.0717,-1.0717,-1.0717,-1.0717,-1.0717,-1.0717,-1.0717,-1.0717,-1.0717,-1.0717,-1.0717,-1.0585,-1.0392,-1.006,-0.9854,-0.9575,-0.9074,-0.8804,-0.8561,-0.8369,-0.8172,-0.8015,-0.7872,-0.7872,-0.7872,-0.7872,-0.7872,-0.7872,-0.7872,-0.7872,-0.7872,-0.9096,-0.9182,-0.9307,-0.9921,-1.0057,-1.009,-1.0465,-1.0485,-1.0524,-1.0644,-1.0717,-1.0717,-1.0717,-1.0717,-1.0751,-1.0786,-1.1036,-1.1199,-1.1301,-1.1491,-1.1565,-1.1409,-1.1301,-1.1165,-1.09,-0.9979,-0.9163,-0.8656,-0.7717,-0.5908,-0.3021,-0.235,-0.0806,0.2087,0.2087,0.1683,0.1077,0.0943,0.0606,0.0,0.0,0.0,0.0,0.0,0.0404,0.1077,0.0606,-0.074,-0.2617,-0.462,-0.6494,-0.8368,-1.0047,-1.0717,-1.0717,-1.0717,-1.0717,-1.0717,-1.0717,-1.0717,-1.0717,-1.0717,-1.0717,-1.0717,-1.0717,-1.0717,-1.0717,-1.0717,-1.0717,-1.0717,-1.0717,-1.0717,-1.0717,-1.0717,-1.0717,-1.0717,-1.0717,-1.0717,-1.0717,-1.0717,-1.0717,-1.0717,-1.0717,-1.0717,-1.0717,-1.0717,-1.0717,-1.0717,-1.0717,-1.0717,-1.0717,-1.0717,-1.0717,-1.0591,-1.0259,-1.0193,-0.9996,-0.9531,-0.9264,-0.8969,-0.8689,-0.8386,-0.82,-0.7993,-0.7955,-0.7872,-0.7872,-0.7872,-0.7872,-0.7872,-0.7872,-0.7872,0.0,0.0,0.0,-0.9205,-0.9211,-0.9292,-1.0024,-1.007,-1.0143,-1.0624,-1.0651,-1.0651,-1.0717,-1.0717,-1.0717,-1.0717,-1.0968,-1.1234,-1.1234,-1.1423,-1.1565,-1.1416,-1.1396,-1.128,-1.0921,-0.9659,-0.872,-0.86,-0.7321,-0.5848,-0.43,-0.2819,-0.0672,0.2087,0.1818,0.1414,0.1077,0.0673,0.0337,0.0,0.0,0.0,0.0,0.0,0.0404,0.1077,0.1077,0.0269,-0.1274,-0.4152,-0.6156,-0.7626,-0.9842,-1.0651,-1.0651,-1.0717,-1.0717,-1.0717,-1.0717,-1.0717,-1.0717,-1.0717,-1.0717,-1.0717,-1.0717,-1.0717,-1.0717,-1.0717,-1.0717,-1.0717,-1.0717,-1.0717,-1.0717,-1.0717,-1.0717,-1.0717,-1.0717,-1.0717,-1.0717,-1.0717,-1.0717,-1.0717,-1.0717,-1.0717,-1.0717,-1.0717,-1.0717,-1.0717,-1.0717,-1.0717,-1.0717,-1.0717,-1.0717,-1.0591,-1.0259,-1.0193,-0.9996,-0.9537,-0.9525,-0.9334,-0.8881,-0.8689,-0.8494,-0.8119,-0.7999,-0.7933,-0.7933,-0.7933,-0.7872,-0.7872,-0.7872,-0.7872,-0.8172,0.0,0.0,0.0,0.0,0.0,-0.9571,-0.9599,-0.9632,-1.0207,-1.0241,-1.0326,-1.0631,-1.0717,-1.0717,-1.0717,-1.0968,-1.1234,-1.1234,-1.1423,-1.1606,-1.1558,-1.1457,-1.1221,-1.0855,-0.9835,-0.8956,-0.8387,-0.743,-0.564,-0.2887,-0.0336,0.1346,0.2155,0.1818,0.1414,0.1077,0.0673,0.0337,0.0,0.0,0.0,0.0,0.0,0.0269,0.0673,0.0943,0.0403,-0.0806,-0.295,-0.4356,-0.5496,-0.8706,-0.9981,-1.0047,-1.0518,-1.0717,-1.0717,-1.0717,-1.0717,-1.0717,-1.0717,-1.0717,-1.0717,-1.0717,-1.0717,-1.0717,-1.0717,-1.0717,-1.0717,-1.0717,-1.0717,-1.0717,-1.0717,-1.0717,-1.0717,-1.0717,-1.0717,-1.0717,-1.0717,-1.0717,-1.0717,-1.0717,-1.0717,-1.0717,-1.0717,-1.0717,-1.0717,-1.0717,-1.0717,-1.0717,-1.0717,-1.0717,-1.0651,-1.0591,-1.0591,-1.0505,-1.0399,-1.0128,-0.9939,-0.9663,-0.9426,-0.9124,-0.8812,-0.8578,-0.8329,-0.8244,-0.7994,-0.7872,-0.7872,-0.7872,-0.7872,-0.7808,-0.781,-0.7857,-0.8346,0.0,0.0,-0.9036,-0.9078,-0.9249,-0.9795,-0.9886,-1.0024,-1.0439,-1.0392,-1.0253,-1.0253,-1.0644,-1.0953,-1.1151,-1.1423,-1.1619,-1.1619,-1.1395,-1.1109,-1.0831,-0.9787,-0.8892,-0.8229,-0.7444,-0.557,-0.2348,0.0605,0.2223,0.2223,0.1683,0.1279,0.1077,0.0539,0.0202,0.0,0.0,0.0,0.0,0.0,0.0202,0.0539,0.0943,0.0471,-0.0605,-0.2147,-0.3555,-0.5028,-0.8041,-0.9449,-0.9715,-1.0114,-1.0452,-1.0717,-1.0717,-1.0717,-1.0717,-1.0717,-1.0717,-1.0717,-1.0717,-1.0717,-1.0717,-1.0717,-1.0717,-1.0717,-1.0717,-1.0717,-1.0717,-1.0717,-1.0717,-1.0717,-1.0717,-1.0717,-1.0717,-1.0717,-1.0717,-1.0717,-1.0717,-1.0717,-1.0717,-1.0717,-1.0717,-1.0717,-1.0717,-1.0717,-1.0717,-1.0717,-1.0717,-1.0717,-1.0717,-1.0717,-1.0717,-1.0717,-1.0525,-1.0287,-1.007,-0.981,-0.9574,-0.9291,-0.8913,-0.8534,-0.8341,-0.8044,-0.796,-0.801,-0.8002,-0.8024,-0.7681,-0.7584,-0.7491,-0.7796,-0.7818,0.0,-0.842,-0.8632,-0.8817,-0.9321,-0.9508,-0.9672,-1.0028,-0.9889,-0.9691,-0.9709,-1.0015,-1.0493,-1.1,-1.1339,-1.1599,-1.1548,-1.1188,-1.0849,-1.0651,-0.9602,-0.8713,-0.8118,-0.7112,-0.5235,-0.2348,0.0605,0.2223,0.2223,0.1481,0.1077,0.1077,0.0337,0.0,0.0,0.0,0.0,0.0,0.0,0.0135,0.0471,0.0943,0.0471,-0.0672,-0.1679,-0.3354,-0.5499,-0.7646,-0.8917,-0.9582,-0.9649,-1.0114,-1.0717,-1.0717,-1.0717,-1.0717,-1.0717,-1.0717,-1.0717,-1.0717,-1.0717,-1.0717,-1.0717,-1.0717,-1.0717,-1.0717,-1.0717,-1.0717,-1.0717,-1.0717,-1.0717,-1.0717,-1.0717,-1.0717,-1.0717,-1.0717,-1.0717,-1.0717,-1.0717,-1.0717,-1.0717,-1.0717,-1.0717,-1.0717,-1.0717,-1.0717,-1.0717,-1.0717,-1.0717,-1.0717,-1.0717,-1.0717,-1.0717,-1.0717,-1.0591,-1.0259,-1.013,-0.9928,-0.959,-0.9132,-0.8678,-0.8236,-0.8019,-0.797,-0.8141,-0.8187,-0.8172,-0.7609,-0.801,-0.791,-0.7877,-0.8002,0.0,-0.806,-0.8127,-0.8346,-0.8683,-0.877,-0.8979,-0.9518,-0.9469,-0.9469,-0.9691,-0.954,-0.9642,-1.0229,-1.0971,-1.1342,-1.1175,-1.0822,-1.0305,-0.9629,-0.9018,-0.8268,-0.7539,-0.4765,-0.2751,-0.2147,0.0605,0.2223,0.2223,0.1481,0.1077,0.1077,0.0337,0.0,0.0,0.0,0.0,0.0,0.0,0.0067,0.0135,0.0808,0.0336,-0.1008,-0.1813,-0.3088,-0.4702,-0.6844,-0.8184,-0.8917,-0.9449,-1.0114,-1.0717,-1.0717,-1.0717,-1.0717,-1.0717,-1.0717,-1.0717,-1.0717,-1.0717,-1.0717,-1.0717,-1.0717,-1.0717,-1.0717,-1.0717,-1.0717,-1.0717,-1.0717,-1.0717,-1.0717,-1.0717,-1.0717,-1.0717,-1.0717,-1.0717,-1.0717,-1.0717,-1.0717,-1.0717,-1.0717,-1.0717,-1.0717,-1.0717,-1.0717,-1.0717,-1.0717,-1.0717,-1.0717,-1.0717,-1.0717,-1.0717,-1.0717,-1.0658,-1.0591,-1.0558,-1.0484,-1.0299,-0.9575,-0.906,-0.8683,-0.8314,-0.8176,-0.8198,-0.8225,-0.8172,-0.6359,-0.6972,-0.7372,-0.7795,-0.7841,0.0,0.0,-0.8057,-0.8223,-0.8475,-0.8441,-0.858,-0.9092,-0.8957,-0.8805,-0.8996,-0.903,-0.9117,-0.9439,-1.0062,-1.0664,-1.0953,-1.0534,-1.0023,-0.9663,-0.8908,-0.8137,-0.7286,-0.4007,-0.2147,-0.2147,0.0605,0.2223,0.2223,0.1481,0.1077,0.1077,0.0337,0.0,0.0,0.0,0.0,0.0,0.0,0.0,0.0067,0.0808,-0.0134,-0.2151,-0.2081,-0.3423,-0.551,-0.6581,-0.745,-0.8117,-0.8446,-0.9316,-1.018,-1.018,-1.0452,-1.0717,-1.0717,-1.0717,-1.0717,-1.0717,-1.0717,-1.0717,-1.0717,-1.0717,-1.0717,-1.0717,-1.0717,-1.0717,-1.0717,-1.0717,-1.0717,-1.0717,-1.0717,-1.0717,-1.0717,-1.0717,-1.0717,-1.0717,-1.0717,-1.0717,-1.0717,-1.0717,-1.0717,-1.0717,-1.0717,-1.0717,-1.0717,-1.0717,-1.0717,-1.0717,-1.0717,-1.0717,-1.0717,-1.0717,-1.0717,-1.0717,-1.0717,-1.0617,-1.0346,-0.9947,-0.9453,-0.8932,-0.8736,-0.8513,-0.8329,-0.8383,-0.841,-0.5008,-0.5722,-0.6552,-0.7624,-0.7743,-0.7645,0.0,0.0,0.0,-0.8307,-0.8236,-0.8256,-0.8612,-0.8406,-0.8187,-0.8345,-0.8485,-0.8705,-0.8866,-0.9187,-0.9707,-1.0584,-1.0096,-0.9666,-0.9595,-0.8844,-0.7999,-0.7078,-0.406,-0.2214,-0.2214,0.0605,0.2154,0.2087,0.1414,0.1077,0.101,0.0337,0.0,0.0,0.0,0.0,0.0,0.0,0.0,0.0067,0.0808,-0.0202,-0.2353,-0.2148,-0.349,-0.5711,-0.625,-0.692,-0.7512,-0.7512,-0.8312,-0.9516,-0.9516,-0.9848,-1.0319,-1.0452,-1.0585,-1.0717,-1.0717,-1.0717,-1.0717,-1.0717,-1.0717,-1.0717,-1.0717,-1.0717,-1.0717,-1.0717,-1.0717,-1.0717,-1.0717,-1.0717,-1.0717,-1.0717,-1.0717,-1.0717,-1.0717,-1.0717,-1.0717,-1.0717,-1.0717,-1.0717,-1.0717,-1.0717,-1.0717,-1.0717,-1.0717,-1.0717,-1.0717,-1.0717,-1.0717,-1.0717,-1.0717,-1.0717,-1.0717,-1.0717,-1.0591,-1.0326,-1.0259,-0.9854,-0.9183,-0.9117,-0.8866,-0.8454,-0.8546,-0.859,-0.4576,-0.5426,-0.5935,-0.7517,-0.7968,-0.8039,-0.8059,0.0,-0.8307,-0.7997,0.0,-0.7977,-0.7993,0.0,0.0,-0.8198,-0.7912,-0.806,-0.9109,-0.8698,-0.8601,-0.959,-0.9271,-0.8922,-0.8578,-0.8119,-0.7497,-0.6727,-0.4127,-0.2484,-0.2147,0.0605,0.2019,0.1683,0.1279,0.0943,0.0539,0.0202,0.0,0.0,0.0,0.0,0.0,0.0,0.0,0.0067,0.0808,0.0943,0.0471,-0.1343,-0.2281,-0.2887,-0.551,-0.692,-0.7512,-0.7512,-0.8051,-0.8723,-0.8723,-0.8784,-0.8923,-0.9582,-1.0253,-1.0717,-1.0717,-1.0717,-1.0717,-1.0717,-1.0717,-1.0717,-1.0717,-1.0717,-1.0717,-1.0717,-1.0717,-1.0717,-1.0717,-1.0717,-1.0717,-1.0717,-1.0717,-1.0717,-1.0717,-1.0717,-1.0717,-1.0717,-1.0717,-1.0717,-1.0717,-1.0717,-1.0717,-1.0717,-1.0717,-1.0717,-1.0717,-1.0717,-1.0717,-1.0717,-1.0717,-1.0717,-1.0717,-1.0717,-1.0651,-1.0651,-1.0326,-0.9994,-0.9661,-0.9256,-0.8911,-0.8568,-0.8584,-0.859,-0.2099,-0.2946,-0.3864,-0.6104,-0.6534,-0.6745,-0.8123,-0.8285,-0.8182,-0.81,0.0,0.0,0.0,0.0,0.0,0.0,-0.7916,-0.8023,-0.8617,-0.835,-0.8431,-0.9285,-0.9051,-0.8708,-0.8301,-0.8118,-0.7679,-0.6928,-0.4262,-0.2551,-0.2147,0.0605,0.2019,0.1616,0.1279,0.0875,0.0471,0.0135,0.0,0.0,0.0,0.0,0.0,0.0,0.0,0.0,0.0539,0.0404,-0.0269,-0.1814,-0.2821,-0.3559,-0.5711,-0.6652,-0.692,-0.692,-0.7383,-0.7984,-0.7984,-0.8518,-0.9383,-1.0047,-1.0452,-1.0717,-1.0717,-1.0717,-1.0717,-1.0717,-1.0717,-1.0717,-1.0717,-1.0717,-1.0717,-1.0717,-1.0717,-1.0717,-1.0717,-1.0717,-1.0717,-1.0717,-1.0717,-1.0717,-1.0717,-1.0717,-1.0717,-1.0717,-1.0717,-1.0717,-1.0717,-1.0717,-1.0717,-1.0717,-1.0717,-1.0717,-1.0717,-1.0717,-1.0717,-1.0717,-1.0717,-1.0717,-1.0717,-1.0717,-1.0717,-1.0717,-1.0591,-1.0326,-0.9994,-0.9655,-0.9256,-0.8917,-0.8717,-0.859,-0.0261,-0.0977,-0.2152,-0.4785,-0.5253,-0.5653,-0.7843,-0.8097,-0.7907,-0.7991,-0.7685,0.0,0.0,0.0,-0.758,-0.7787,0.0,-0.7969,-0.8156,-0.8204,-0.836,-0.8917,-0.8756,-0.8488,-0.8092,-0.8184,-0.7728,-0.6509,-0.4176,-0.2482,-0.1544,0.074,0.1885,0.1481,0.1144,0.0741,0.0337,0.0135,0.0,0.0,0.0,0.0,0.0,0.0,0.0,0.0,0.0337,0.0135,-0.0605,-0.2084,-0.3092,-0.3895,-0.5781,-0.6522,-0.6522,-0.6522,-0.6786,-0.725,-0.725,-0.8184,-0.9516,-1.0187,-1.0518,-1.0717,-1.0717,-1.0717,-1.0717,-1.0717,-1.0717,-1.0717,-1.0717,-1.0717,-1.0717,-1.0717,-1.0717,-1.0717,-1.0717,-1.0717,-1.0717,-1.0717,-1.0717,-1.0717,-1.0717,-1.0717,-1.0717,-1.0717,-1.0717,-1.0717,-1.0717,-1.0717,-1.0717,-1.0717,-1.0717,-1.0717,-1.0717,-1.0717,-1.0717,-1.0717,-1.0717,-1.0717,-1.0717,-1.0717,-1.0717,-1.0717,-1.0717,-1.0518,-1.0193,-0.9927,-0.9588,-0.9117,-0.8784,-0.859,-0.0201,-0.0537,-0.1203,-0.4021,-0.4729,-0.5219,-0.7175,-0.7542,-0.7432,-0.7481,-0.738,-0.7155,-0.7055,-0.7036,-0.7103,-0.7489,-0.7489,0.0,0.0,-0.8133,-0.8106,-0.8236,-0.8253,-0.806,-0.7745,-0.8102,-0.7374,-0.4935,-0.3794,-0.228,-0.0202,0.1009,0.1481,0.1144,0.0741,0.0337,0.0,0.0,0.0,0.0,0.0,0.0,0.0,0.0,0.0,0.0,0.0337,0.0673,0.0807,-0.1681,-0.2486,-0.2482,-0.5376,-0.6522,-0.6522,-0.6522,-0.6522,-0.6518,-0.6518,-0.7455,-0.8784,-0.9516,-1.018,-1.0717,-1.0717,-1.0717,-1.0717,-1.0717,-1.0717,-1.0717,-1.0717,-1.0717,-1.0717,-1.0717,-1.0717,-1.0717,-1.0717,-1.0717,-1.0717,-1.0717,-1.0717,-1.0717,-1.0717,-1.0717,-1.0717,-1.0717,-1.0717,-1.0717,-1.0717,-1.0717,-1.0717,-1.0717,-1.0717,-1.0717,-1.0717,-1.0717,-1.0717,-1.0717,-1.0717,-1.0717,-1.0717,-1.0717,-1.0717,-1.0717,-1.0717,-1.0518,-1.0193,-1.0193,-0.9788,-0.9117,-0.8784,-0.859,0.0673,0.0538,0.0067,-0.1803,-0.3089,-0.4263,-0.5818,-0.6778,-0.7348,-0.7336,-0.7165,-0.6931,-0.6893,-0.694,-0.7113,-0.7431,-0.7554,-0.7722,0.0,-0.8008,-0.7948,-0.7986,-0.8138,-0.8172,-0.8044,-0.835,-0.7568,-0.5194,-0.3924,-0.228,-0.0134,0.1009,0.1414,0.1144,0.0741,0.0337,0.0,0.0,0.0,0.0,0.0,0.0,0.0,0.0,0.0,0.0,0.0135,0.0539,0.0942,-0.0874,-0.1881,-0.235,-0.43,-0.5644,-0.6522,-0.6522,-0.6522,-0.6589,-0.6987,-0.7784,-0.8723,-0.9449,-1.018,-1.0717,-1.0717,-1.0717,-1.0717,-1.0717,-1.0717,-1.0717,-1.0717,-1.0717,-1.0717,-1.0717,-1.0717,-1.0717,-1.0717,-1.0717,-1.0717,-1.0717,-1.0717,-1.0717,-1.0717,-1.0717,-1.0717,-1.0717,-1.0717,-1.0717,-1.0717,-1.0717,-1.0717,-1.0717,-1.0717,-1.0717,-1.0717,-1.0717,-1.0717,-1.0717,-1.0717,-1.0717,-1.0717,-1.0717,-1.0717,-1.0717,-1.0717,-1.0651,-1.0518,-1.0326,-0.9994,-0.9455,-0.9117,-0.8784,0.0875,0.0875,0.0605,-0.0735,-0.1776,-0.2845,-0.422,-0.5452,-0.6231,-0.5819,-0.6244,-0.6421,-0.5661,-0.6341,-0.6947,-0.6851,-0.7321,-0.7785,0.0,-0.7894,-0.7872,-0.7872,-0.8051,-0.8171,-0.8171,-0.835,-0.7323,-0.4598,-0.3642,-0.2068,0.0403,0.1144,0.1279,0.0875,0.0539,0.0202,0.0,0.0,0.0,0.0,0.0,0.0,0.0,0.0,0.0,0.0,0.0,0.0404,0.1009,-0.0471,-0.1544,-0.2283,-0.3761,-0.5175,-0.6522,-0.6522,-0.6522,-0.6585,-0.725,-0.7784,-0.8318,-0.905,-0.9582,-0.9921,-0.9921,-1.012,-1.0319,-1.0319,-1.0518,-1.0717,-1.0717,-1.0717,-1.0717,-1.0717,-1.0717,-1.0717,-1.0717,-1.0717,-1.0717,-1.0717,-1.0717,-1.0717,-1.0717,-1.0717,-1.0717,-1.0717,-1.0717,-1.0717,-1.0717,-1.0717,-1.0717,-1.0717,-1.0717,-1.0717,-1.0717,-1.0717,-1.0717,-1.0717,-1.0717,-1.0717,-1.0717,-1.0717,-1.0717,-1.0717,-1.0717,-1.0717,-1.0717,-1.0452,-1.0193,-0.9861,-0.9588,-0.9322]}]]